[[{"header":{"parameterUnit":"m.s-1","parameterCategory":1,"la1":30.6,"la2":28.766,"lo1":-90.7593,"lo2":-88.6598,"dy":0.0162,"dx":0.0183,"nx":116,"ny":114,"refTime":"2023-08-10T12:00:00:Z","depth":0,"parameterNumber":2,"parameterNumberName":"U-component_of_WINDS"},"data":[0.0,0.0,0.0,0.0,0.0,0.0,0.0,0.0,0.0,0.0,0.0,0.0,0.0,0.0,0.0,0.0,0.0,0.0,0.0,0.0,0.0,0.0,0.0,0.0,0.0,0.0,0.0,0.0,0.0,0.0,0.0,0.0,0.0,0.0,0.0,0.0,0.0,0.0,0.0,0.0,0.0,0.0,0.0,0.0,0.0,0.0,0.0,0.0,0.0,0.0,0.0,0.0,0.0,0.0,0.0,0.0,0.0,0.0,0.0,0.0,0.0,0.0,0.0,0.0,0.0,0.0,0.0,0.0,0.0,0.0,0.0,0.0,0.0,0.0,0.0,0.0,0.0,0.0,0.0,0.0,0.0,0.0,0.0,0.0,0.0,0.0,0.0,0.0,0.0,0.0,0.0,0.0,0.0,0.0,0.0,0.0,0.0,0.0,0.0,0.0,0.0,0.0,0.0,0.0,0.0,0.0,0.0,0.0,0.0,0.0,0.0,0.0,0.0,0.0,0.0,0.0,0.0,0.0,0.0,0.0,0.0,0.0,0.0,0.0,0.0,0.0,0.0,0.0,0.0,0.0,0.0,0.0,0.0,0.0,0.0,0.0,0.0,0.0,0.0,0.0,0.0,0.0,0.0,0.0,0.0,0.0,0.0,0.0,0.0,0.0,0.0,0.0,0.0,0.0,0.0,0.0,0.0,0.0,0.0,0.0,0.0,0.0,0.0,0.0,0.0,0.0,0.0,0.0,0.0,0.0,0.0,0.0,0.0,0.0,0.0,0.0,0.0,0.0,0.0,0.0,0.0,0.0,0.0,0.0,0.0,0.0,0.0,0.0,0.0,0.0,0.0,0.0,0.0,0.0,0.0,0.0,0.0,0.0,0.0,0.0,0.0,0.0,0.0,0.0,0.0,0.0,0.0,0.0,0.0,0.0,0.0,0.0,0.0,0.0,0.0,0.0,0.0,0.0,0.0,0.0,0.0,0.0,0.0,0.0,0.0,0.0,0.0,0.0,0.0,0.0,0.0,0.0,0.0,0.0,0.0,0.0,0.0,0.0,0.0,0.0,0.0,0.0,0.0,0.0,0.0,0.0,0.0,0.0,0.0,0.0,0.0,0.0,0.0,0.0,0.0,0.0,0.0,0.0,0.0,0.0,0.0,0.0,0.0,0.0,0.0,0.0,0.0,0.0,0.0,0.0,0.0,0.0,0.0,0.0,0.0,0.0,0.0,0.0,0.0,0.0,0.0,0.0,0.0,0.0,0.0,0.0,0.0,0.0,0.0,0.0,0.0,0.0,0.0,0.0,0.0,0.0,0.0,0.0,0.0,0.0,0.0,0.0,0.0,0.0,0.0,0.0,0.0,0.0,0.0,0.0,0.0,0.0,0.0,0.0,0.0,0.0,0.0,0.0,0.0,0.0,0.0,0.0,0.0,0.0,0.0,0.0,0.0,0.0,0.0,0.0,0.0,0.0,0.0,0.0,0.0,0.0,0.0,0.0,0.0,0.0,0.0,0.0,0.0,0.0,0.0,0.0,0.0,0.0,0.0,0.0,0.0,0.0,0.0,0.0,0.0,0.0,0.0,0.0,0.0,0.0,0.0,0.0,0.0,0.0,0.0,0.0,0.0,0.0,0.0,0.0,0.0,0.0,0.0,0.0,0.0,0.0,0.0,0.0,0.0,0.0,0.0,0.0,0.0,0.0,0.0,0.0,0.0,0.0,0.0,0.0,0.0,0.0,0.0,0.0,0.0,0.0,0.0,0.0,0.0,0.0,0.0,0.0,0.0,0.0,0.0,0.0,0.0,0.0,0.0,0.0,0.0,0.0,0.0,0.0,0.0,0.0,0.0,0.0,0.0,0.0,0.0,0.0,0.0,0.0,0.0,0.0,0.0,0.0,0.0,0.0,0.0,0.0,0.0,0.0,0.0,0.0,0.0,0.0,0.0,0.0,0.0,0.0,0.0,0.0,0.0,0.0,0.0,0.0,0.0,0.0,0.0,0.0,0.0,0.0,0.0,0.0,0.0,0.0,0.0,0.0,0.0,0.0,0.0,0.0,0.0,0.0,0.0,0.0,0.0,0.0,0.0,0.0,0.0,0.0,0.0,0.0,0.0,0.0,0.0,0.0,0.0,0.0,0.0,0.0,0.0,0.0,0.0,0.0,0.0,0.0,0.0,0.0,0.0,0.0,0.0,0.0,0.0,0.0,0.0,0.0,0.0,0.0,0.0,0.0,0.0,0.0,0.0,0.0,0.0,0.0,0.0,0.0,0.0,0.0,0.0,0.0,0.0,0.0,0.0,0.0,0.0,0.0,0.0,0.0,0.0,0.0,0.0,0.0,0.0,0.0,0.0,0.0,0.0,0.0,0.0,0.0,0.0,0.0,0.0,0.0,0.0,0.0,0.0,0.0,0.0,0.0,0.0,0.0,0.0,0.0,0.0,0.0,0.0,0.0,0.0,0.0,0.0,0.0,0.0,0.0,0.0,0.0,0.0,0.0,0.0,0.0,0.0,0.0,0.0,0.0,0.0,0.0,0.0,0.0,0.0,0.0,0.0,0.0,0.0,0.0,0.0,0.0,0.0,0.0,0.0,0.0,0.0,0.0,0.0,0.0,0.0,0.0,0.0,0.0,0.0,0.0,0.0,0.0,0.0,0.0,0.0,0.0,0.0,0.0,0.0,0.0,0.0,0.0,0.0,0.0,0.0,0.0,0.0,0.0,0.0,0.0,0.0,0.0,0.0,0.0,0.0,0.0,0.0,0.0,0.0,0.0,0.0,0.0,0.0,0.0,0.0,0.0,0.0,0.0,0.0,0.0,0.0,0.0,0.0,0.0,0.0,0.0,0.0,0.0,0.0,0.0,0.0,0.0,0.0,0.0,0.0,0.0,0.0,0.0,0.0,0.0,0.0,0.0,0.0,0.0,0.0,0.0,0.0,0.0,0.0,0.0,0.0,0.0,0.0,0.0,0.0,0.0,0.0,0.0,0.0,0.0,0.0,0.0,0.0,0.0,0.0,0.0,0.0,0.0,0.0,0.0,0.0,0.0,0.0,0.0,0.0,0.0,0.0,0.0,0.0,0.0,0.0,0.0,0.0,0.0,0.0,0.0,0.0,0.0,0.0,0.0,0.0,0.0,0.0,0.0,0.0,0.0,0.0,0.0,0.0,0.0,0.0,0.0,0.0,0.0,0.0,0.0,0.0,0.0,0.0,0.0,0.0,0.0,0.0,0.0,0.0,0.0,0.0,0.0,0.0,0.0,0.0,0.0,0.0,0.0,0.0,0.0,0.0,0.0,0.0,0.0,0.0,0.0,0.0,0.0,0.0,0.0,0.0,0.0,0.0,0.0,0.0,0.0,0.0,0.0,0.0,0.0,0.0,0.0,0.0,0.0,0.0,0.0,0.0,0.0,0.0,0.0,0.0,0.0,0.0,0.0,0.0,0.0,0.0,0.0,0.0,0.0,0.0,0.0,0.0,0.0,0.0,0.0,0.0,0.0,0.0,0.0,0.0,0.0,0.0,0.0,0.0,0.0,0.0,0.0,0.0,0.0,0.0,0.0,0.0,0.0,0.0,0.0,0.0,0.0,0.0,0.0,0.0,0.0,0.0,0.0,0.0,0.0,0.0,0.0,0.0,0.0,0.0,0.0,0.0,0.0,0.0,0.0,0.0,0.0,0.0,0.0,0.0,0.0,0.0,0.0,0.0,0.0,0.0,0.0,0.0,0.0,0.0,0.0,0.0,0.0,0.0,0.0,0.0,0.0,0.0,0.0,0.0,0.0,0.0,0.0,0.0,0.0,0.0,0.0,0.0,0.0,0.0,0.0,0.0,0.0,0.0,0.0,0.0,0.0,0.0,0.0,0.0,0.0,0.0,0.0,0.0,0.0,0.0,0.0,0.0,0.0,0.0,0.0,0.0,0.0,0.0,0.0,0.0,0.0,0.0,0.0,0.0,0.0,0.0,0.0,0.0,0.0,0.0,0.0,0.0,0.0,0.0,0.0,0.0,0.0,0.0,0.0,0.0,0.0,0.0,0.0,0.0,0.0,0.0,0.0,0.0,0.0,0.0,0.0,0.0,0.0,0.0,0.0,0.0,0.0,0.0,0.0,0.0,0.0,0.0,0.0,0.0,0.0,0.0,0.0,0.0,0.0,0.0,0.0,0.0,0.0,0.0,0.0,0.0,0.0,0.0,0.0,0.0,0.0,0.0,0.0,0.0,0.0,0.0,0.0,0.0,0.0,0.0,0.0,0.0,0.0,0.0,0.0,0.0,0.0,0.0,0.0,0.0,0.0,0.0,0.0,0.0,0.0,0.0,0.0,0.0,0.0,0.0,0.0,0.0,0.0,0.0,0.0,0.0,0.0,0.0,0.0,0.0,0.0,0.0,0.0,0.0,0.0,0.0,0.0,0.0,0.0,0.0,0.0,0.0,0.0,0.0,0.0,0.0,0.0,0.0,0.0,0.0,0.0,0.0,0.0,0.0,0.0,0.0,0.0,0.0,0.0,0.0,0.0,0.0,0.0,0.0,0.0,0.0,0.0,0.0,0.0,0.0,0.0,0.0,0.0,0.0,0.0,0.0,0.0,0.0,0.0,0.0,0.0,0.0,0.0,0.0,0.0,0.0,0.0,0.0,0.0,0.0,0.0,0.0,0.0,0.0,0.0,0.0,0.0,0.0,0.0,0.0,0.0,0.0,0.0,0.0,0.0,0.0,0.0,0.0,0.0,0.0,0.0,0.0,0.0,0.0,0.0,0.0,0.0,0.0,0.0,0.0,0.0,0.0,0.0,0.0,0.0,0.0,0.0,0.0,0.0,0.0,0.0,0.0,0.0,0.0,0.0,0.0,0.0,0.0,0.0,0.0,0.0,0.0,0.0,0.0,0.0,0.0,0.0,0.0,0.0,0.0,0.0,0.0,0.0,0.0,0.0,0.0,0.0,0.0,0.0,0.0,0.0,0.0,0.0,0.0,0.0,0.0,0.0,0.0,0.0,0.0,0.0,0.0,0.0,0.0,0.0,0.0,0.0,0.0,0.0,0.0,0.0,0.0,0.0,0.0,0.0,0.0,0.0,0.0,0.0,0.0,0.0,0.0,0.0,0.0,0.0,0.0,0.0,0.0,0.0,0.0,0.0,0.0,0.0,0.0,0.0,0.0,0.0,0.0,0.0,0.0,0.0,0.0,0.0,0.0,0.0,0.0,0.0,0.0,0.0,0.0,0.0,0.0,0.0,0.0,0.0,0.0,0.0,0.0,0.0,0.0,0.0,0.0,0.0,0.0,0.0,0.0,0.0,0.0,0.0,0.0,0.0,0.0,0.0,0.0,0.0,0.0,0.0,0.0,0.0,0.0,0.0,0.0,0.0,0.0,0.0,0.0,0.0,0.0,0.0,0.0,0.0,0.0,0.0,0.0,0.0,0.0,0.0,0.0,0.0,0.0,0.0,0.0,0.0,0.0,0.0,0.0,0.0,0.0,0.0,0.0,0.0,0.0,0.0,0.0,0.0,0.0,0.0,0.0,0.0,0.0,0.0,0.0,0.0,0.0,0.0,0.0,0.0,0.0,0.0,0.0,0.0,0.0,0.0,0.0,0.0,0.0,0.0,0.0,0.0,0.0,0.0,0.0,0.0,0.0,0.0,0.0,0.0,0.0,0.0,0.0,0.0,0.0,0.0,0.0,0.0,0.0,0.0,0.0,0.0,0.0,0.0,0.0,0.0,0.0,0.0,0.0,0.0,0.0,0.0,0.0,0.0,0.0,0.0,0.0,0.0,0.0,0.0,0.0,0.0,0.0,0.0,0.0,0.0,0.0,0.0,0.0,0.0,0.0,0.0,0.0,0.0,0.0,0.0,0.0,0.0,0.0,0.0,0.0,0.0,0.0,0.0,0.0,0.0,0.0,0.0,0.0,0.0,0.0,0.0,0.0,0.0,0.0,0.0,0.0,0.0,0.0,0.0,0.0,0.0,0.0,0.0,0.0,0.0,0.0,0.0,0.0,0.0,0.0,0.0,0.0,0.0,0.0,0.0,0.0,0.0,0.0,0.0,0.0,0.0,0.0,0.0,0.0,0.0,0.0,0.0,0.0,0.0,0.0,0.0,0.0,0.0,-4.5818,0.0,0.0,0.0,0.0,0.0,0.0,0.0,0.0,0.0,0.0,0.0,0.0,0.0,0.0,0.0,0.0,0.0,0.0,0.0,0.0,0.0,0.0,0.0,0.0,0.0,0.0,0.0,0.0,0.0,0.0,0.0,0.0,0.0,0.0,0.0,0.0,0.0,0.0,0.0,0.0,0.0,0.0,0.0,0.0,0.0,0.0,0.0,0.0,0.0,0.0,0.0,0.0,0.0,0.0,0.0,0.0,0.0,0.0,0.0,0.0,0.0,0.0,0.0,0.0,0.0,0.0,0.0,0.0,0.0,0.0,0.0,0.0,0.0,0.0,0.0,0.0,0.0,0.0,0.0,0.0,0.0,0.0,0.0,0.0,0.0,0.0,0.0,0.0,0.0,0.0,0.0,0.0,0.0,0.0,0.0,0.0,0.0,0.0,0.0,0.0,0.0,0.0,0.0,0.0,0.0,0.0,0.0,0.0,0.0,0.0,0.0,0.0,0.0,0.0,0.0,0.0,-4.8928,0.0,0.0,0.0,0.0,0.0,0.0,0.0,0.0,0.0,0.0,0.0,0.0,0.0,0.0,0.0,0.0,0.0,0.0,0.0,0.0,0.0,0.0,0.0,0.0,0.0,0.0,0.0,0.0,0.0,0.0,0.0,0.0,0.0,0.0,0.0,0.0,0.0,0.0,0.0,0.0,0.0,0.0,0.0,0.0,0.0,0.0,0.0,0.0,0.0,0.0,0.0,0.0,0.0,0.0,0.0,0.0,0.0,0.0,0.0,0.0,0.0,0.0,0.0,0.0,0.0,0.0,0.0,0.0,0.0,0.0,0.0,0.0,0.0,0.0,0.0,0.0,0.0,0.0,0.0,0.0,0.0,0.0,0.0,0.0,0.0,0.0,0.0,0.0,0.0,0.0,0.0,0.0,0.0,0.0,0.0,0.0,0.0,0.0,0.0,0.0,0.0,0.0,0.0,0.0,0.0,0.0,0.0,0.0,-5.5945,-5.6592,-5.9323,-5.6382,-5.5069,-5.489,-5.1881,-5.2007,-5.3857,0.0,0.0,0.0,0.0,0.0,0.0,0.0,0.0,0.0,0.0,0.0,0.0,0.0,0.0,0.0,0.0,0.0,0.0,0.0,0.0,0.0,0.0,0.0,0.0,0.0,0.0,0.0,0.0,0.0,0.0,0.0,0.0,0.0,0.0,0.0,0.0,0.0,0.0,0.0,-4.2949,-4.2808,-4.23,-4.1506,0.0,0.0,0.0,0.0,0.0,0.0,0.0,0.0,0.0,0.0,0.0,0.0,0.0,0.0,0.0,0.0,0.0,0.0,0.0,0.0,0.0,0.0,0.0,0.0,0.0,0.0,0.0,0.0,0.0,0.0,0.0,0.0,0.0,0.0,0.0,0.0,0.0,0.0,0.0,0.0,0.0,0.0,0.0,0.0,-3.2068,-3.5155,0.0,0.0,0.0,0.0,0.0,0.0,0.0,0.0,0.0,0.0,0.0,0.0,0.0,0.0,-5.6147,-5.613,-5.6755,-5.7905,-6.0154,-6.277,-6.5495,-6.2569,-6.1246,-6.1058,-5.8034,0.0,-5.7044,-5.373,0.0,0.0,0.0,0.0,0.0,0.0,0.0,0.0,0.0,0.0,0.0,0.0,0.0,0.0,0.0,0.0,0.0,0.0,0.0,0.0,0.0,0.0,0.0,0.0,0.0,0.0,0.0,0.0,0.0,0.0,0.0,0.0,0.0,0.0,0.0,0.0,0.0,-4.2632,-4.3881,-4.4009,-4.3871,-4.3413,-4.2214,-4.1134,-4.0189,-3.856,0.0,0.0,0.0,0.0,0.0,0.0,0.0,0.0,0.0,0.0,0.0,0.0,0.0,0.0,0.0,0.0,0.0,0.0,0.0,0.0,0.0,0.0,0.0,0.0,0.0,0.0,0.0,0.0,0.0,0.0,0.0,0.0,0.0,0.0,0.0,0.0,0.0,0.0,0.0,-2.8745,-3.4582,-3.6543,-3.9763,-4.0972,0.0,0.0,0.0,0.0,0.0,0.0,0.0,0.0,0.0,-5.1914,-5.6252,-5.9115,-6.0433,-6.0427,-6.0418,-6.0427,-6.346,-6.4701,-6.4247,-6.2965,-6.2412,-6.2358,-6.0976,-6.0437,-6.0185,-5.7192,-5.4211,-5.1311,0.0,0.0,0.0,0.0,0.0,-4.303,0.0,0.0,0.0,0.0,0.0,0.0,0.0,0.0,0.0,0.0,0.0,0.0,0.0,0.0,0.0,0.0,0.0,0.0,0.0,0.0,0.0,0.0,0.0,0.0,0.0,0.0,0.0,0.0,0.0,0.0,-4.3733,0.0,0.0,0.0,0.0,-4.2234,-4.0585,-4.0197,-3.7603,0.0,0.0,0.0,0.0,0.0,0.0,0.0,0.0,0.0,0.0,0.0,0.0,0.0,0.0,0.0,0.0,0.0,0.0,0.0,0.0,0.0,0.0,0.0,0.0,0.0,0.0,0.0,0.0,0.0,0.0,0.0,0.0,0.0,0.0,0.0,0.0,0.0,0.0,-3.1419,-3.6939,-3.8109,-4.2648,-4.4731,0.0,0.0,0.0,0.0,0.0,0.0,-4.9581,-4.8895,-5.1781,-5.8834,-6.1204,-6.2432,-6.2421,-6.3135,-6.3566,-6.3535,-6.5727,-6.5238,-6.2367,-6.2442,-6.2391,-6.2336,-6.1613,-6.1228,-6.108,-5.8866,-5.6365,-5.3883,-5.2353,-5.006,-4.7394,-4.6736,-4.5619,-4.4564,0.0,0.0,0.0,0.0,0.0,0.0,0.0,0.0,0.0,0.0,0.0,0.0,0.0,0.0,0.0,0.0,0.0,0.0,0.0,0.0,0.0,0.0,0.0,0.0,0.0,0.0,0.0,0.0,0.0,0.0,0.0,0.0,0.0,0.0,0.0,0.0,0.0,0.0,0.0,0.0,0.0,0.0,0.0,0.0,0.0,0.0,0.0,0.0,0.0,0.0,0.0,0.0,0.0,0.0,0.0,0.0,0.0,0.0,0.0,0.0,0.0,0.0,0.0,0.0,0.0,0.0,0.0,0.0,0.0,0.0,0.0,0.0,0.0,0.0,0.0,0.0,0.0,0.0,0.0,-4.1151,-4.7487,0.0,0.0,0.0,0.0,-5.0646,-5.0984,-5.1144,-5.1082,-5.2423,-5.5944,-6.1936,-6.2347,-6.2384,-6.2408,-6.5149,-6.6562,-6.6579,-6.677,-6.5238,-6.2367,-6.2391,-6.2377,-6.2225,-5.9338,-5.8152,-5.8083,-5.7959,-5.6998,-5.5416,-5.3991,-5.1814,-4.9542,-4.853,-4.7883,-4.7315,0.0,0.0,0.0,0.0,0.0,0.0,0.0,0.0,0.0,0.0,0.0,0.0,0.0,0.0,0.0,0.0,0.0,0.0,0.0,0.0,0.0,0.0,0.0,0.0,0.0,0.0,0.0,0.0,0.0,0.0,0.0,0.0,0.0,0.0,0.0,0.0,0.0,0.0,0.0,0.0,0.0,0.0,0.0,0.0,0.0,0.0,0.0,0.0,0.0,0.0,0.0,0.0,0.0,0.0,0.0,0.0,0.0,0.0,0.0,0.0,0.0,0.0,0.0,0.0,0.0,0.0,0.0,0.0,0.0,0.0,0.0,0.0,0.0,0.0,0.0,0.0,0.0,0.0,0.0,-4.6647,-5.1766,0.0,-5.1847,-5.2656,-5.3331,-5.3382,-5.4698,-5.5804,-5.6442,-5.6379,-5.8201,-6.2302,-6.4245,-6.5196,-6.5239,-6.6245,-6.68,-6.6821,-6.486,-6.3396,-6.2403,-6.2402,-6.135,-5.9464,-5.8376,-5.7927,-5.7836,-5.687,-5.6159,-5.56,-5.4751,-5.3084,-5.1059,-5.0021,-4.9111,-4.826,0.0,0.0,0.0,0.0,0.0,0.0,0.0,0.0,0.0,0.0,0.0,0.0,0.0,0.0,0.0,0.0,0.0,0.0,0.0,0.0,0.0,0.0,0.0,0.0,0.0,0.0,0.0,0.0,0.0,0.0,0.0,0.0,0.0,0.0,0.0,0.0,0.0,0.0,0.0,0.0,0.0,0.0,-2.7735,0.0,0.0,0.0,0.0,0.0,0.0,0.0,0.0,0.0,0.0,0.0,0.0,0.0,0.0,0.0,0.0,0.0,0.0,0.0,0.0,0.0,0.0,0.0,0.0,0.0,0.0,0.0,0.0,0.0,0.0,0.0,0.0,0.0,0.0,0.0,-4.8509,-4.9648,-5.4617,-5.6998,-5.4557,-5.6337,-5.7391,-5.69,-5.841,-5.9726,-6.041,-5.9789,-6.0348,-6.2317,-6.5226,-6.6779,-6.6838,-6.68,-6.6327,-6.5287,-6.3349,-6.2403,-6.2341,-6.1341,-5.9768,-5.7891,-5.7915,-5.7323,-5.6373,-5.5319,-5.4985,-5.4987,-5.4833,-5.3811,-5.2241,-5.093,-4.9931,-4.9103,0.0,0.0,0.0,0.0,0.0,0.0,0.0,0.0,0.0,0.0,0.0,0.0,0.0,0.0,0.0,0.0,0.0,0.0,0.0,0.0,0.0,0.0,0.0,0.0,0.0,0.0,0.0,0.0,0.0,0.0,0.0,0.0,0.0,0.0,0.0,0.0,0.0,0.0,0.0,0.0,0.0,0.0,-2.7747,0.0,0.0,0.0,0.0,0.0,0.0,0.0,0.0,0.0,0.0,0.0,0.0,0.0,0.0,0.0,0.0,0.0,0.0,0.0,0.0,0.0,0.0,0.0,0.0,0.0,0.0,0.0,0.0,0.0,0.0,0.0,0.0,0.0,-3.9042,-4.6018,-5.0824,-5.018,-5.6055,-5.9203,-5.6916,-5.9485,-6.1332,-6.1332,-6.1992,-6.2381,-6.2381,-6.2409,-6.2367,-6.2367,-6.5179,-6.663,-6.663,-6.6562,-6.5111,-6.2249,-6.2353,-6.2324,-6.214,-5.9186,-5.7874,-5.7931,-5.7908,-5.6217,-5.3473,-5.3469,-5.3495,-5.3532,-5.4312,-5.4143,-5.3264,-5.1171,-5.032,-4.9866,0.0,0.0,0.0,0.0,0.0,0.0,0.0,0.0,0.0,0.0,0.0,0.0,0.0,0.0,0.0,0.0,0.0,0.0,0.0,0.0,0.0,0.0,0.0,0.0,0.0,0.0,0.0,0.0,0.0,0.0,0.0,0.0,0.0,0.0,0.0,0.0,0.0,0.0,0.0,0.0,0.0,0.0,-2.7172,0.0,0.0,0.0,0.0,0.0,0.0,0.0,0.0,0.0,0.0,0.0,0.0,0.0,0.0,0.0,0.0,0.0,0.0,0.0,0.0,0.0,0.0,0.0,0.0,0.0,0.0,0.0,0.0,0.0,0.0,0.0,0.0,-4.2282,-4.3623,-4.9789,-5.4949,-5.6993,-5.9471,-6.0918,-6.0823,-6.1622,-6.2093,-6.2093,-6.2279,-6.2381,-6.2381,-6.237,-6.2375,-6.2367,-6.3168,-6.3586,-6.3586,-6.1434,-5.9923,-5.917,-6.1358,-6.1265,-5.9106,-5.8304,-5.7903,-5.7865,-5.7909,-5.625,-5.3427,-5.2269,-5.2472,-5.3568,-5.4329,-5.4143,-5.3264,-5.1171,-4.9158,-4.7189,0.0,0.0,0.0,0.0,0.0,0.0,0.0,0.0,0.0,0.0,0.0,0.0,0.0,0.0,0.0,0.0,0.0,0.0,0.0,0.0,0.0,0.0,0.0,0.0,0.0,0.0,0.0,0.0,0.0,0.0,0.0,0.0,0.0,0.0,0.0,0.0,0.0,0.0,0.0,0.0,0.0,0.0,-2.4207,-2.3345,-2.1503,-1.9282,-1.8843,-1.7424,-1.569,-1.5102,0.0,0.0,0.0,0.0,0.0,0.0,0.0,0.0,0.0,0.0,0.0,0.0,0.0,0.0,0.0,0.0,0.0,0.0,0.0,0.0,0.0,0.0,0.0,0.0,-4.1324,-4.577,-4.8393,-5.2925,-5.6929,-5.9346,-6.0334,-6.0977,-6.1383,-6.1278,-6.1371,-6.1715,-6.2763,-6.3079,-6.2459,-6.2391,-6.2368,-6.2408,-6.2408,-6.1795,-6.0539,-5.8742,-5.788,-5.7942,-5.9641,-5.9945,-5.8787,-5.6879,-5.6031,0.0,-5.6046,-5.5093,-5.3414,-5.2522,-5.2421,0.0,0.0,0.0,0.0,0.0,-4.8213,-4.5738,0.0,0.0,0.0,0.0,0.0,0.0,0.0,0.0,0.0,0.0,0.0,0.0,0.0,0.0,0.0,0.0,0.0,0.0,0.0,0.0,0.0,0.0,0.0,0.0,0.0,0.0,0.0,0.0,0.0,0.0,0.0,0.0,0.0,0.0,0.0,0.0,0.0,0.0,0.0,0.0,0.0,0.0,-1.985,-2.0216,-1.9617,-1.8564,-1.7934,-1.6649,-1.507,-1.3999,0.0,0.0,0.0,0.0,0.0,0.0,0.0,0.0,0.0,0.0,0.0,0.0,0.0,0.0,0.0,0.0,0.0,0.0,0.0,0.0,0.0,0.0,0.0,0.0,-4.3991,-4.8187,-5.2212,-5.4667,-5.6667,-5.8558,-5.9244,-5.9557,-5.9557,-5.9226,-5.9416,-6.0386,-6.2511,-6.3177,-6.2005,0.0,0.0,0.0,0.0,-6.0469,-5.7423,-5.7599,-5.7641,-5.7621,-5.7656,-5.8426,-5.973,-5.5424,-5.3472,-5.3526,-5.348,-5.3516,-5.3483,-5.3298,-5.2622,-5.1663,-5.1948,-5.2387,-5.262,-4.9953,-4.7419,0.0,0.0,0.0,0.0,0.0,0.0,0.0,0.0,0.0,0.0,0.0,0.0,0.0,0.0,0.0,0.0,0.0,0.0,0.0,0.0,0.0,0.0,0.0,0.0,0.0,0.0,0.0,0.0,0.0,0.0,0.0,0.0,0.0,0.0,0.0,0.0,0.0,0.0,0.0,0.0,0.0,0.0,0.0,-1.6798,-1.7741,-1.729,-1.6338,-1.8404,-1.6272,-1.2575,-1.2381,-1.2093,-1.1835,-1.125,0.0,0.0,0.0,0.0,0.0,0.0,0.0,0.0,0.0,0.0,0.0,0.0,0.0,0.0,0.0,0.0,0.0,0.0,0.0,0.0,-4.0472,-4.3929,-4.7054,-4.9818,-5.0584,-5.2483,-5.674,-5.6629,-5.6226,-5.6226,-5.5943,-5.6253,-5.7495,-5.8061,-5.8441,-5.878,-5.8791,0.0,-5.8807,-5.8738,-5.7312,-5.4378,-5.552,-5.6162,-5.6136,0.0,0.0,-5.8204,-5.4955,-5.3481,-5.3483,-5.3501,-5.3534,-5.343,-5.2179,-5.0759,-4.9409,-5.0005,-4.9887,-4.9063,-4.7249,-4.5725,-4.4407,0.0,0.0,0.0,0.0,0.0,0.0,0.0,0.0,0.0,0.0,0.0,0.0,0.0,0.0,0.0,0.0,0.0,0.0,0.0,0.0,0.0,0.0,0.0,0.0,0.0,0.0,0.0,0.0,0.0,0.0,0.0,0.0,0.0,0.0,0.0,0.0,0.0,0.0,0.0,0.0,0.0,0.0,-0.6162,-0.9517,-1.0333,-0.9744,-1.0672,-0.9222,-0.693,-0.626,-0.601,-0.5864,-0.5508,-0.6321,-0.7232,0.0,0.0,0.0,0.0,0.0,0.0,0.0,0.0,0.0,0.0,0.0,0.0,0.0,0.0,-2.6853,0.0,0.0,-3.7282,-4.1923,-4.3963,-4.5614,-4.767,-4.7975,-4.9386,-5.3263,-5.3219,-5.3046,-5.3404,-5.2765,-5.2981,-5.4551,-5.368,-5.3831,-5.56,-5.5719,-5.6364,-5.7882,-5.6448,-5.5018,-5.3515,-5.4686,-5.5306,-5.526,-5.5532,-5.5671,-5.5673,-5.4143,-5.3534,-5.3482,-5.3482,-5.3513,-5.3338,-5.0925,-4.9427,-4.8608,-4.7674,-4.7235,-4.7,-4.6218,-4.4985,-4.3778,0.0,0.0,0.0,0.0,0.0,0.0,0.0,0.0,0.0,0.0,0.0,0.0,0.0,0.0,0.0,0.0,0.0,0.0,0.0,0.0,0.0,0.0,0.0,0.0,0.0,0.0,0.0,0.0,0.0,0.0,0.0,0.0,0.0,0.0,0.0,0.0,0.0,0.0,0.0,0.0,0.0,0.0,0.5767,0.1394,-0.1114,-0.2041,-0.0455,0.0186,0.0476,0.1627,0.2138,0.2174,0.1585,0.0497,-0.0799,-0.1601,-0.4007,0.0,0.0,0.0,0.0,0.0,0.0,0.0,0.0,0.0,-2.075,-2.4189,-2.6293,-2.9081,-3.4197,-3.5613,-3.7501,-4.1926,-4.2602,-4.314,-4.4454,-4.4566,-4.5305,-4.7615,-4.8678,-4.9544,-5.0448,-4.9306,-4.9388,-5.1407,-5.0264,-5.0685,-5.3387,-5.3528,-5.4614,-5.7003,-5.4171,-5.2817,-5.3207,-5.3833,-5.4345,-5.4652,-5.5094,-5.4635,-5.3533,-5.3533,-5.3515,-5.346,-5.2918,-5.2629,-5.2405,-4.941,-4.8179,-4.7988,-4.5651,-4.4984,-4.5203,-4.5326,-4.4447,-4.315,0.0,0.0,0.0,0.0,0.0,0.0,0.0,0.0,0.0,0.0,0.0,0.0,0.0,0.0,0.0,0.0,0.0,0.0,0.0,0.0,0.0,0.0,0.0,0.0,0.0,0.0,0.0,0.0,0.0,0.0,0.0,0.0,0.0,0.0,0.0,0.0,0.0,0.0,0.0,0.0,0.0,0.0,1.3341,1.3429,0.9438,0.4237,0.7841,0.9199,0.9258,0.966,1.018,1.0062,0.7177,0.6446,0.6098,0.2315,0.0,-0.1275,-0.2784,-0.5615,-0.8758,-1.2067,-1.2756,-1.4159,0.0,0.0,-2.2223,-2.6483,-2.7932,-2.9416,-3.2671,-3.4246,-3.5615,-3.761,-3.8042,-3.8215,-3.8351,-3.7962,-3.7798,-3.8147,-4.1685,-4.4725,-4.6391,-4.4668,-4.4712,-4.7651,-4.9349,-5.119,-5.3352,-5.3533,-5.3669,-5.4005,-5.1061,-5.0359,-5.2151,-5.1831,-5.2317,-5.369,-5.3698,-5.363,-5.3471,-5.3471,-5.3519,-5.3382,-5.0659,-4.9506,-4.9342,-4.7309,-4.6478,-4.6356,-4.5258,-4.3975,-4.2874,-4.3367,-4.3094,-4.2476,0.0,0.0,0.0,0.0,0.0,0.0,0.0,0.0,0.0,0.0,0.0,0.0,0.0,0.0,0.0,0.0,0.0,0.0,0.0,0.0,0.0,0.0,0.0,0.0,0.0,0.0,0.0,0.0,0.0,0.0,0.0,0.0,0.0,0.0,0.0,0.0,0.0,0.0,0.0,0.0,0.0,0.0,1.972,2.0362,1.7899,1.4123,1.3563,1.259,0.0,0.0,1.2666,1.2243,1.1451,1.1052,1.0184,0.7377,0.5551,0.0,-0.0294,-0.403,-0.7346,-0.9733,-1.2128,-1.454,-1.7746,-1.9018,-2.0666,-2.4576,-2.6445,-2.8042,-3.0639,-3.1467,-3.249,0.0,-3.4708,-3.4985,-3.564,-3.5041,-3.4681,-3.5343,-3.6,-3.791,-4.2034,-4.209,-4.3057,-4.5908,-4.7974,-4.9571,-5.0849,-5.0895,-5.1627,-5.3262,-5.2131,-5.1899,-5.2768,-5.2182,-5.2386,-5.3487,-5.2601,-5.1739,-5.0851,-5.0851,-5.0848,-5.0807,-4.9548,-4.8413,-4.7242,-4.5664,-4.4947,-4.4699,-4.333,-4.2395,-4.1878,-4.2521,-4.2357,-4.1788,0.0,0.0,0.0,0.0,0.0,0.0,0.0,0.0,0.0,0.0,0.0,0.0,0.0,0.0,0.0,0.0,0.0,0.0,0.0,0.0,0.0,0.0,0.0,0.0,0.0,0.0,0.0,0.0,0.0,0.0,0.0,0.0,0.0,0.0,0.0,0.0,0.0,0.0,0.0,0.0,0.0,0.0,2.4641,2.4975,2.3955,2.1835,1.7916,1.5218,0.0,0.0,1.4276,1.3812,1.4919,1.4553,1.3393,1.1764,0.981,0.7195,0.2302,-0.0961,-0.3684,-0.6885,-1.0039,-1.2811,-1.4359,-1.6353,-1.8877,-2.2062,-2.3928,-2.5691,-2.7651,-2.8065,-2.8582,-3.0306,-3.0437,-3.0788,-3.1889,-3.1225,-3.1136,-3.2648,-3.1603,-3.2883,-3.8055,-3.94,-4.1298,-4.4669,-4.6208,-4.7563,-4.8951,-4.9711,-5.1098,-5.3157,-5.3281,-5.3173,-5.2978,-5.2442,-5.23,-5.2625,-5.1261,-5.0028,-4.8967,-4.9026,-4.8992,-4.8996,-4.9012,-4.7694,-4.5538,-4.4013,-4.3443,-4.3345,-4.1987,-4.1265,-4.1175,-4.1654,-4.1519,-4.1115,0.0,0.0,0.0,0.0,0.0,0.0,0.0,0.0,0.0,0.0,0.0,0.0,0.0,0.0,0.0,0.0,0.0,0.0,0.0,0.0,0.0,0.0,0.0,0.0,0.0,0.0,0.0,0.0,0.0,0.0,0.0,0.0,0.0,0.0,0.0,0.0,0.0,0.0,0.0,0.0,0.0,0.0,2.7746,2.7762,2.6909,2.5132,2.11,0.0,0.0,0.0,1.63,1.6189,1.7307,1.697,0.0,1.4836,1.2218,0.9011,0.5533,0.4468,0.2716,-0.4234,-0.6316,-0.7541,-1.0874,-1.433,-1.7442,-1.9463,-2.1042,-2.2307,-2.3555,-2.3811,-2.4038,-2.4646,-2.4256,-2.4348,-2.5561,-2.5253,-2.5738,-2.8028,-2.9073,-3.096,0.0,-3.6014,-3.8767,-4.3686,-4.4088,-4.555,-4.8829,-5.1614,-5.3122,-5.3228,-5.3194,-5.2892,-5.2254,-5.1988,-5.137,-5.047,-4.9491,-4.9021,-4.9022,-4.8991,-4.8995,-4.8965,-4.8976,-4.7206,-4.4091,-4.2225,-4.2027,-4.2767,-4.179,-4.0995,-4.0427,-4.0442,-4.0442,-4.0427,0.0,0.0,0.0,0.0,0.0,0.0,0.0,0.0,0.0,0.0,0.0,0.0,0.0,0.0,0.0,0.0,0.0,0.0,0.0,0.0,0.0,0.0,0.0,0.0,0.0,0.0,0.0,0.0,0.0,0.0,0.0,0.0,0.0,0.0,0.0,0.0,0.0,0.0,0.0,0.0,0.0,0.0,3.1411,2.9456,2.8265,2.7031,0.0,0.0,0.0,0.0,0.0,1.7105,1.8258,1.7828,1.6484,1.3853,1.351,1.3385,1.0572,0.9092,0.7298,0.2507,0.0711,-0.1214,-0.642,-0.9482,-1.1918,-1.4635,-1.6332,-1.7424,-1.777,-1.7914,-1.8353,-1.9208,-2.0104,-2.1353,-2.3371,-2.4196,-2.5935,-2.9403,-3.0929,0.0,0.0,0.0,0.0,-4.1033,-4.3936,-4.6464,-4.8422,-4.9435,-5.043,-5.1546,-5.2654,-5.309,-5.2863,-5.2306,-5.1531,-5.0653,-4.9538,-4.9015,-4.8929,-4.6946,-4.7149,-4.8984,-4.8974,-4.595,-4.0974,-4.0324,-4.0508,-4.1152,-4.0379,-3.9664,-3.9065,-3.9065,-3.8796,-3.8542,0.0,0.0,0.0,0.0,0.0,0.0,0.0,0.0,0.0,0.0,0.0,0.0,0.0,0.0,0.0,0.0,0.0,0.0,0.0,0.0,0.0,0.0,0.0,0.0,0.0,0.0,0.0,0.0,0.0,0.0,0.0,0.0,0.0,0.0,0.0,0.0,0.0,0.0,0.0,0.0,0.0,0.0,3.2853,3.0361,2.8833,0.0,0.0,0.0,0.0,0.0,0.0,1.6628,1.7735,1.7341,1.6004,1.3987,1.4539,1.5555,1.4224,1.3363,1.2293,1.0123,0.8011,0.5417,0.1534,-0.2306,-0.5844,-0.8826,-1.1184,-1.2821,-1.3417,-1.3623,-1.4002,-1.4902,-1.597,-1.8032,-2.2051,-2.3535,-2.612,-3.1099,-3.3499,-3.5997,0.0,0.0,0.0,-3.9108,-4.3123,-4.6422,-4.8194,-4.8315,-4.8768,-4.986,-5.132,-5.2169,-5.2334,-5.1876,-5.1348,-5.0796,-4.9538,-4.8411,-4.7359,-4.5463,-4.5606,-4.7442,-4.7445,-4.4483,-3.9598,-3.9446,-3.9444,-3.9511,-3.9077,-3.8642,-3.8237,-3.8078,-3.7778,-3.7524,0.0,0.0,0.0,0.0,0.0,0.0,0.0,0.0,0.0,0.0,0.0,0.0,0.0,0.0,0.0,0.0,0.0,0.0,0.0,0.0,0.0,0.0,0.0,0.0,0.0,0.0,0.0,0.0,0.0,0.0,0.0,0.0,0.0,0.0,0.0,0.0,0.0,0.0,0.0,0.0,0.0,0.0,3.2227,3.0453,0.0,0.0,0.0,0.0,0.0,0.0,1.6531,1.4917,1.5888,1.5512,1.4743,1.5063,1.5385,1.5786,1.6538,1.7271,1.7928,1.8218,1.5454,1.2519,1.2248,0.6777,0.0811,-0.21,-0.535,-0.8298,0.0,0.0,-1.0783,-1.1505,-1.2004,-1.475,-2.152,-2.3459,-2.6596,0.0,0.0,0.0,0.0,0.0,0.0,-3.8597,0.0,-4.5409,-4.8157,-4.8302,-4.8318,-4.8318,-4.9398,-5.0266,-5.0729,-5.0688,-5.07,-5.0681,-4.9398,-4.7317,-4.4589,-4.4566,-4.4447,-4.4131,-4.4113,-4.2476,-3.9803,-3.9457,-3.8835,-3.8099,-3.8069,-3.8039,-3.8008,-3.7533,-3.7261,-3.7231,0.0,0.0,0.0,0.0,0.0,0.0,0.0,0.0,0.0,0.0,0.0,0.0,0.0,0.0,0.0,0.0,0.0,0.0,0.0,0.0,0.0,0.0,0.0,0.0,0.0,0.0,0.0,0.0,0.0,0.0,0.0,0.0,0.0,0.0,0.0,0.0,0.0,0.0,0.0,0.0,0.0,0.0,3.1059,0.0,0.0,0.0,0.0,0.0,0.0,0.0,1.6701,1.4084,1.3454,1.3118,1.2908,1.3027,1.6357,1.9954,1.9979,2.2852,2.5593,2.4397,2.3637,2.2039,1.7715,1.3532,0.9634,0.6186,0.204,-0.1369,0.0,0.0,0.0,-0.7035,-1.2146,0.0,-2.2349,-2.7803,0.0,-3.6973,0.0,-4.2359,-4.4789,-4.6006,0.0,0.0,-4.4726,-4.5409,-4.8157,-4.8286,-4.8304,-4.8304,-4.9407,-4.9958,-4.9903,-4.9404,-4.9251,-4.9397,-4.7771,-4.6163,-4.4598,-4.4626,-4.2109,-3.7806,-3.7833,-3.7757,-3.7615,-3.7855,-3.7968,-3.8054,-3.7404,-3.7135,-3.7076,-3.6843,-3.5955,-3.486,0.0,0.0,0.0,0.0,0.0,0.0,0.0,0.0,0.0,0.0,0.0,0.0,0.0,0.0,0.0,0.0,0.0,0.0,0.0,0.0,0.0,0.0,0.0,0.0,0.0,0.0,0.0,0.0,0.0,0.0,0.0,0.0,0.0,0.0,0.0,0.0,0.0,0.0,0.0,0.0,0.0,0.0,0.0,0.0,0.0,0.0,0.0,0.0,0.0,0.0,0.0,1.2269,1.2062,1.1607,1.1809,1.4992,1.7216,1.9576,2.31,2.592,2.7932,2.8444,2.8844,2.7951,2.3625,1.95,1.5498,1.1492,0.7057,0.3588,0.287,-0.0602,0.0,0.0,0.0,0.0,-2.9863,-3.317,-3.6353,0.0,-4.2784,0.0,-4.6925,-4.7599,-4.8184,0.0,-4.7077,-4.6673,-4.8212,-4.7962,-4.7769,-4.7769,-4.8182,-4.8345,-4.82,-4.7543,-4.74,-4.7771,-4.5891,-4.4136,-4.2702,-4.399,-4.1637,-3.6483,0.0,-3.5768,-3.6255,-3.6444,-3.6703,-3.691,-3.6425,-3.6216,-3.6133,-3.5629,-3.4782,-3.3876,0.0,0.0,0.0,0.0,0.0,0.0,0.0,0.0,0.0,0.0,0.0,0.0,0.0,0.0,0.0,0.0,0.0,0.0,0.0,0.0,0.0,0.0,0.0,0.0,0.0,0.0,0.0,0.0,0.0,0.0,0.0,0.0,0.0,0.0,0.0,0.0,0.0,0.0,0.0,0.0,0.0,0.0,0.0,0.0,0.0,0.0,0.0,0.0,0.0,0.0,0.9828,1.0492,1.2105,1.1369,1.119,1.7943,1.7756,1.7012,2.4801,2.6899,2.7744,3.1322,3.2337,3.178,2.9291,2.4696,1.9553,1.4735,1.0361,0.7163,0.6478,-0.0252,-0.8715,-1.8074,0.0,-2.9249,-3.8521,-3.8328,-3.8791,-4.2995,-4.5112,-4.6784,-4.8164,-4.8136,-4.8438,-4.9447,-4.8674,-4.8172,-4.8172,-4.7391,-4.6924,-4.7021,-4.6593,-4.633,-4.6129,-4.5626,-4.5459,-4.5718,-4.3824,-4.1777,-3.9913,-4.2689,-4.16,-3.7423,0.0,0.0,-3.5522,-3.5503,-3.5504,-3.5504,-3.5504,-3.5424,-3.5184,-3.4312,-3.3808,-3.338,0.0,0.0,0.0,0.0,0.0,0.0,0.0,0.0,0.0,0.0,-1.2704,0.0,0.0,0.0,0.0,0.0,0.0,0.0,0.0,0.0,0.0,0.0,0.0,0.0,0.0,0.0,0.0,0.0,0.0,0.0,0.0,0.0,0.0,0.0,0.0,0.0,0.0,0.0,0.0,0.0,0.0,0.0,0.0,0.0,0.0,0.0,0.0,0.0,0.0,0.0,0.3243,1.098,1.5712,1.3569,1.0362,1.6034,1.6817,1.6741,2.0762,2.5031,2.9497,3.4304,3.6113,3.599,3.3128,2.8762,0.0,1.6526,1.253,0.9419,0.6984,-0.4165,-1.3664,-1.5405,-2.7732,-3.6911,-3.63,-3.9861,-4.3173,0.0,-4.5522,-4.6508,-4.8134,-4.764,0.0,0.0,0.0,-4.7572,-4.7572,-4.6561,-4.6205,-4.6518,-4.646,-4.5892,-4.4742,-4.4642,-4.3854,-4.2345,-4.1959,-4.05,-3.8241,-4.0059,-3.9086,-3.5907,0.0,0.0,-3.5499,-3.5524,-3.5504,-3.5504,-3.5504,-3.4846,-3.3951,-3.3984,-3.3031,-3.1683,0.0,0.0,0.0,0.0,0.0,0.0,0.0,0.0,0.0,-1.3455,-1.3609,-1.3774,0.0,0.0,0.0,0.0,0.0,0.0,0.0,0.0,0.0,0.0,0.0,0.0,0.0,0.0,0.0,0.0,0.0,0.0,0.0,0.0,0.0,0.0,0.0,0.0,0.0,0.0,0.0,0.0,0.0,0.0,0.0,0.0,0.0,0.0,0.0,0.0,0.0,0.0,-0.0261,1.0362,1.1064,1.1835,1.3555,1.902,1.8346,1.6881,2.1859,2.5833,2.9542,3.3687,3.6257,3.6805,3.3234,0.0,0.0,1.7609,1.1877,0.6849,0.3767,-0.5497,-1.3399,-1.5716,-2.6766,-3.5511,-3.6783,-4.0551,-4.3752,-4.5369,-4.5636,-4.6221,0.0,-4.7289,0.0,0.0,0.0,-4.7044,-4.7385,-4.6289,-4.5248,-4.4281,-4.4281,-4.3719,-4.2645,-4.2779,-4.2129,-4.0675,-4.0205,-3.9017,-3.7392,-3.8125,-3.7588,-3.6075,-3.5702,0.0,-3.5504,-3.5504,-3.5504,-3.5439,-3.4905,-3.424,-3.3471,-3.2835,-3.196,-3.1106,0.0,0.0,0.0,0.0,0.0,0.0,0.0,-1.182,-1.2785,-1.3397,-1.4477,-1.5053,-1.4774,-1.4645,-1.4615,0.0,0.0,0.0,0.0,0.0,0.0,0.0,0.0,0.0,0.0,0.0,0.0,-0.6702,0.0,0.0,0.0,0.0,0.0,0.0,0.0,0.0,0.0,0.0,0.0,0.0,0.0,0.0,0.0,0.0,0.0,0.0,0.0,0.0,0.0,0.0,-0.3073,0.8179,0.5061,1.0278,1.8483,2.3246,2.0749,1.7582,2.2947,2.5873,2.8387,3.2445,3.5229,3.6007,3.2272,2.7416,2.2175,1.6701,0.9644,0.329,-0.0609,-0.7498,-1.4033,0.0,-2.5605,-3.244,-3.7249,-4.0509,-4.3167,0.0,-4.5728,0.0,-4.6969,-4.6849,0.0,0.0,0.0,0.0,-4.6518,-4.5578,-4.4101,-4.2085,-4.1993,-4.1548,-4.0555,-4.0793,-4.0352,-3.925,-3.8493,-3.7618,-3.6703,-3.6662,-3.6569,-3.6322,-3.5718,0.0,0.0,-3.5258,-3.5111,-3.5023,-3.4056,-3.3462,-3.2947,-3.1642,-3.1031,-3.0758,0.0,0.0,0.0,0.0,0.0,0.0,0.0,-1.142,-1.1688,-1.2078,-1.4232,-1.5266,-1.4094,-1.459,-1.4469,0.0,0.0,0.0,0.0,0.0,0.0,0.0,0.0,0.0,0.0,0.0,0.0,-0.6702,-0.6763,0.0,0.0,0.0,0.0,0.0,0.0,-0.4648,0.0,0.0,0.0,0.0,0.0,0.0,0.0,0.0,0.0,0.0,0.0,0.0,0.0,0.0,0.0,0.3266,0.2425,1.2158,2.429,2.6361,0.0,0.0,2.0377,2.2386,2.5696,3.2266,3.4276,3.4024,3.1746,0.0,2.366,1.2043,0.6197,0.1383,-0.4405,-1.3002,-2.0283,-2.3514,0.0,-3.242,-3.5576,-3.9518,-4.2742,-4.4577,0.0,0.0,-4.6584,-4.6168,0.0,0.0,0.0,0.0,-4.3739,-4.3571,-4.2747,-4.116,-4.1144,-4.0456,-3.9113,-3.9113,-3.8404,-3.6894,-3.68,-3.6399,-3.5653,-3.5634,-3.5634,-3.5619,0.0,0.0,0.0,-3.4516,-3.3994,-3.3677,-3.3002,-3.2164,-3.1375,-3.1241,-3.062,-2.9934,0.0,0.0,0.0,0.0,0.0,0.0,0.0,-1.1278,-1.1584,-1.217,-1.291,-1.3363,-1.3019,-1.3121,-1.2919,0.0,0.0,0.0,0.0,0.0,0.0,0.0,0.0,0.0,0.0,0.0,-0.6903,-0.7105,-0.6903,0.0,0.0,0.0,0.0,0.0,0.0,-0.9292,-0.9818,0.0,0.0,0.0,0.0,0.0,0.0,0.0,0.0,0.0,0.0,0.0,-1.0139,-1.4613,0.0,0.0,-0.4101,0.7718,0.0,0.0,2.2763,2.1776,2.1983,2.455,2.8396,3.3507,3.3981,3.2407,2.9308,0.0,1.9261,0.9342,0.337,-0.1396,-0.5659,-1.3193,-1.9254,0.0,0.0,0.0,-3.5695,-3.9309,-4.276,-4.5621,-4.6376,0.0,0.0,0.0,0.0,0.0,0.0,0.0,-4.2596,-4.3031,-4.232,-4.0273,-3.9849,-3.9107,-3.8,-3.7241,-3.6743,-3.655,-3.5347,-3.4758,-3.461,-3.4041,-3.3754,-3.3754,0.0,0.0,0.0,-3.3325,-3.3101,-3.2929,-3.2074,-3.1663,-3.1386,-3.0659,-3.0139,-2.9792,0.0,0.0,0.0,0.0,0.0,0.0,-1.1754,-1.1791,-1.1941,-1.2109,-1.2294,-1.2299,-1.1771,-1.1452,-1.117,-1.0779,0.0,0.0,0.0,0.0,0.0,0.0,0.0,0.0,0.0,0.0,-0.7078,-0.737,-0.717,-0.7317,0.0,0.0,-1.0181,-1.079,0.0,0.0,0.0,0.0,0.0,0.0,0.0,0.0,0.0,0.0,0.0,0.0,0.0,0.0,0.0,0.0,0.0,0.0971,0.0,0.0,0.0,0.0,2.4621,2.3979,2.5451,2.7996,3.1132,3.5113,3.3973,3.094,2.7451,0.0,1.4792,0.7169,0.179,-0.2508,-0.5968,-1.1381,-1.6658,0.0,0.0,-3.247,-3.565,-3.9435,-4.2905,-4.565,0.0,-4.6549,0.0,0.0,0.0,0.0,0.0,0.0,0.0,-4.2583,-4.1804,-3.9364,-3.8703,-3.7943,-3.7135,-3.6038,-3.5725,-3.6193,-3.4495,-3.3839,-3.3959,-3.3031,-3.2593,-3.2593,0.0,0.0,0.0,-3.2263,-3.2033,-3.1683,-3.1044,-3.0898,-3.1065,-3.0113,-2.9792,-2.9792,0.0,0.0,0.0,0.0,0.0,0.0,0.0,-1.295,-1.2751,-1.167,-1.2852,-1.2909,-1.0293,-0.9998,-0.9509,-0.8137,0.0,0.0,0.0,0.0,0.0,0.0,0.0,0.0,0.0,0.0,-0.7204,-0.737,-0.739,-0.8022,-0.9259,-0.9434,-1.0058,-1.1122,0.0,0.0,0.0,0.0,0.0,0.0,0.0,0.0,0.0,0.0,0.0,0.0,0.0,0.0,0.0,0.0,0.0,0.0,0.0,0.0,0.0,0.0,3.0234,2.5678,3.0746,3.1936,3.2816,3.7027,3.4167,2.9566,2.6747,1.9372,1.1391,0.539,0.189,-0.1336,-0.5531,-0.7958,-1.3466,-2.6245,0.0,0.0,-3.4964,-3.9836,-4.3099,0.0,0.0,-4.6666,0.0,0.0,0.0,0.0,0.0,0.0,0.0,-4.1997,-4.0899,-3.8477,-3.7749,-3.7105,-3.6507,-3.5848,-3.5504,-3.5519,-3.4476,-3.4027,-3.3959,-3.3031,-3.2593,0.0,0.0,0.0,0.0,-3.1307,-3.0696,-2.9869,-2.9792,-2.9792,-2.9792,-2.9792,-2.9792,-2.9792,0.0,0.0,0.0,0.0,0.0,0.0,0.0,-1.2798,-1.2823,-1.2774,-1.2514,-1.205,-1.1346,-1.1268,-1.1165,-1.0681,0.0,0.0,0.0,0.0,0.0,0.0,0.0,0.0,0.0,0.0,-0.7336,-0.7529,-0.8133,-0.882,-0.9631,-1.1313,-1.2683,-1.4022,-1.4843,-1.5567,0.0,0.0,0.0,0.0,0.0,0.0,0.0,0.0,0.0,0.0,0.0,0.0,0.0,0.0,0.0,0.0,0.0,0.0,0.0,0.0,0.0,0.0,3.0327,3.3299,3.4923,3.6752,3.3384,2.8493,2.4204,1.6911,1.0107,0.6565,0.2726,-0.0812,-0.3345,-0.7856,-1.3714,-2.1715,-2.8287,0.0,0.0,0.0,0.0,-4.6129,-4.767,-4.8044,0.0,0.0,0.0,0.0,0.0,0.0,0.0,-4.1412,-4.0461,-3.9095,-3.8437,-3.7764,-3.712,-3.6492,-3.5644,-3.4461,-3.3533,-3.2749,-3.2033,-3.1119,0.0,0.0,0.0,0.0,0.0,-3.0305,-3.0075,-2.9792,-2.9792,-2.9792,-2.9792,-2.9792,-2.9792,-2.9792,0.0,0.0,0.0,0.0,0.0,0.0,0.0,-1.3012,-1.3331,-1.3291,-1.2675,-1.2162,-1.192,-1.1945,-1.1945,-1.1945,0.0,0.0,0.0,0.0,0.0,0.0,0.0,0.0,0.0,-0.7614,-0.7584,-0.7678,-0.8221,-0.9158,-1.0364,-1.1989,-1.3558,-1.5261,-1.612,-1.6817,0.0,0.0,0.0,0.0,0.0,0.0,-1.2603,0.0,0.0,0.0,0.0,0.0,0.0,0.0,0.0,0.0,0.0,0.0,0.0,0.0,0.1225,1.3603,2.5585,3.1866,3.5081,3.5349,3.1746,0.0,2.1678,1.5692,0.993,0.5696,0.0812,-0.363,-0.6763,-1.2244,-1.8452,-2.4956,-3.0711,0.0,0.0,0.0,0.0,-4.781,0.0,0.0,0.0,0.0,0.0,0.0,0.0,0.0,0.0,0.0,-4.0309,-3.9424,-3.8751,-3.8197,-3.7778,-3.6926,-3.5821,-3.4373,-3.3143,-3.2105,-3.118,-3.0203,0.0,0.0,0.0,0.0,0.0,-2.9792,-2.9792,-2.9792,-2.9792,-2.9792,-2.9792,-2.9792,-2.9792,-2.9792,0.0,0.0,0.0,0.0,0.0,0.0,0.0,0.0,0.0,0.0,-1.3314,-1.3191,-1.2308,-1.2139,-1.2139,0.0,0.0,0.0,0.0,0.0,0.0,0.0,0.0,0.0,-0.8038,-0.7892,-0.7814,-0.7811,-0.7887,-0.9029,-1.1288,-1.1787,-1.3091,-1.5176,-1.5454,-1.544,0.0,0.0,0.0,0.0,-1.4361,-1.407,0.0,0.0,0.0,0.0,0.0,0.0,0.0,0.0,0.0,0.0,0.0,0.0,0.0,0.0,0.0,0.0,0.0,2.6875,3.2888,3.2409,2.9395,2.4965,1.9252,1.4812,0.0,0.2738,-0.3451,-0.9082,-1.4208,-2.0117,-2.6626,-3.3787,-3.4269,0.0,0.0,-4.441,0.0,0.0,-4.8434,0.0,0.0,0.0,0.0,0.0,0.0,0.0,0.0,0.0,-4.0255,-3.9424,-3.8796,-3.8437,-3.8392,-3.7165,-3.599,-3.4879,-3.3325,-3.2105,-3.1031,-3.0216,0.0,0.0,0.0,0.0,0.0,-2.9792,-2.9792,-2.9792,-2.9792,-2.9792,-2.9792,-2.9792,-2.9792,-2.9792,0.0,0.0,0.0,0.0,0.0,0.0,0.0,0.0,0.0,0.0,-1.4553,-1.4694,-1.4899,-1.4854,-1.4854,0.0,0.0,0.0,0.0,0.0,0.0,0.0,0.0,0.0,-0.7962,-0.8017,-0.7928,-0.7811,-0.8505,-0.9609,-1.1283,-1.2207,-1.4032,-1.6704,-1.6777,-1.6916,0.0,0.0,0.0,0.0,-1.5412,-1.5343,0.0,0.0,0.0,0.0,-1.5698,-1.6259,0.0,0.0,0.0,0.0,0.0,0.0,0.0,0.0,-2.0764,-1.5773,-0.4405,0.0,2.4133,2.4256,2.6948,2.684,0.0,0.8791,0.2389,-0.2973,-0.7757,-1.2176,-1.6308,-2.5413,-3.2425,-3.2741,0.0,0.0,-4.2625,0.0,0.0,-5.0564,0.0,0.0,0.0,0.0,0.0,0.0,0.0,0.0,0.0,0.0,-3.961,-3.9424,-3.926,-3.8931,-3.8392,-3.7584,-3.6113,-3.3926,-3.304,-3.1756,-3.0139,-2.9934,0.0,0.0,0.0,0.0,-2.9792,-2.9792,-2.9792,-2.9792,-2.9792,-2.9792,-2.9792,-2.9792,-2.9792,-2.9792,0.0,0.0,0.0,0.0,0.0,0.0,0.0,0.0,0.0,0.0,0.0,0.0,0.0,0.0,0.0,0.0,0.0,0.0,0.0,0.0,0.0,0.0,0.0,-0.7473,-0.6842,-0.7579,-0.7929,-0.7916,-0.8981,-1.0468,-1.2221,-1.2969,-1.4695,-1.7161,-1.6784,-1.6292,-1.5974,-1.5974,-1.5216,-1.4082,-1.4657,0.0,0.0,0.0,0.0,0.0,-1.8303,-1.9242,0.0,-2.1558,-2.2625,-2.3604,0.0,0.0,0.0,0.0,-2.4386,-2.2021,-1.5982,-0.2273,1.0766,1.2699,1.5774,1.6136,0.7766,0.1369,-0.4138,-0.8751,-1.542,-2.0823,-2.2232,-2.9658,0.0,0.0,-3.9155,0.0,0.0,0.0,-5.0489,0.0,0.0,0.0,0.0,0.0,0.0,0.0,0.0,0.0,0.0,0.0,-3.9424,-3.9424,-3.9424,-3.9245,-3.8871,-3.7898,-3.6266,-3.4067,-3.3107,-3.1623,-2.9792,-2.9792,0.0,0.0,0.0,0.0,-2.9792,-2.9792,-2.9792,-2.9792,-2.9792,-2.9792,-2.9792,-2.9792,-2.9792,-2.9792,0.0,0.0,0.0,0.0,0.0,0.0,0.0,0.0,0.0,0.0,0.0,0.0,0.0,0.0,0.0,0.0,0.0,0.0,0.0,0.0,0.0,0.0,0.0,-0.7338,-0.5827,-0.7534,-0.834,-0.8333,-0.9763,-1.1647,-1.3835,-1.4002,-1.4958,-1.6617,-1.5859,-1.4758,-1.3584,-1.3584,-1.3102,-1.2334,-1.3392,0.0,0.0,0.0,0.0,0.0,0.0,0.0,0.0,-2.4652,-2.5839,-2.7023,-2.7186,0.0,0.0,0.0,0.0,0.0,-2.2344,-1.3957,-0.4777,-0.0569,0.0406,-0.0653,-0.4533,0.0,0.0,0.0,0.0,0.0,0.0,-3.3981,0.0,0.0,0.0,0.0,-5.0325,-5.0879,0.0,0.0,0.0,0.0,0.0,0.0,0.0,0.0,0.0,0.0,0.0,0.0,0.0,-3.9424,-3.9424,-3.9364,-3.926,-3.8033,-3.6456,-3.458,-3.3259,-3.1623,-2.9792,-2.9792,-2.9792,0.0,0.0,0.0,-2.9792,-2.9792,-2.9792,-2.9792,-2.9792,-2.9792,-2.9792,-2.9624,-2.9624,-2.9792,0.0,0.0,0.0,0.0,0.0,0.0,0.0,0.0,0.0,0.0,0.0,0.0,0.0,0.0,0.0,0.0,0.0,0.0,0.0,0.0,0.0,0.0,-0.7214,-0.7875,-0.7563,-0.9359,-1.004,-0.9706,-1.1883,-1.4124,-1.6371,-1.539,-1.4566,-1.3957,-1.4141,-1.3494,-1.2237,-1.2237,-1.2721,-1.359,-1.3776,0.0,0.0,0.0,0.0,0.0,0.0,0.0,0.0,-2.7999,-2.8823,-2.9232,-3.0139,0.0,0.0,0.0,0.0,0.0,-2.5975,-2.3345,-1.9608,-1.3918,-1.4241,-1.6421,-1.8421,-2.1279,0.0,0.0,0.0,0.0,0.0,-4.0293,-4.2325,0.0,0.0,0.0,0.0,0.0,0.0,0.0,0.0,0.0,0.0,0.0,0.0,0.0,0.0,0.0,0.0,0.0,0.0,-3.9439,-3.9424,-3.914,-3.8556,-3.7793,-3.6456,-3.458,-3.3259,-3.1623,-2.9792,-2.9792,-2.9792,0.0,0.0,-2.9792,-2.9792,-2.9792,-2.9792,-2.9792,-2.9792,-2.9792,-2.9702,-2.8688,-2.8937,-2.9792,0.0,0.0,0.0,0.0,0.0,0.0,0.0,0.0,0.0,0.0,0.0,0.0,0.0,0.0,0.0,0.0,0.0,0.0,0.0,0.0,0.0,-0.8137,-0.8978,-0.9375,-0.9367,-1.0596,-1.1531,-1.2088,-1.5086,-1.7108,-1.8229,-1.7725,-1.6887,-1.5678,-1.5171,-1.4172,-1.3006,-1.3657,-1.3927,-1.3915,0.0,0.0,0.0,0.0,0.0,0.0,0.0,0.0,0.0,0.0,-3.0852,-3.0517,-3.1005,0.0,0.0,0.0,0.0,0.0,-2.7522,-2.6417,-2.4979,-2.2785,-2.1759,-2.1968,-2.4724,-2.7256,-2.9896,0.0,0.0,0.0,0.0,0.0,-4.5975,-4.9784,0.0,0.0,0.0,0.0,0.0,0.0,0.0,0.0,0.0,0.0,0.0,0.0,0.0,0.0,0.0,0.0,0.0,0.0,-3.905,-3.8706,-3.8392,-3.7404,-3.5945,-3.4067,-3.3107,-3.1623,-2.9792,-2.9792,-2.9792,-2.9792,0.0,-2.9792,-2.9792,-2.9792,-2.9792,-2.9792,-2.9792,-2.9792,-2.9714,-2.9197,-2.9365,-2.9792,0.0,0.0,0.0,0.0,0.0,0.0,0.0,0.0,0.0,0.0,0.0,0.0,0.0,0.0,0.0,0.0,0.0,0.0,0.0,0.0,-0.9291,-1.0277,-1.0706,-1.0941,-1.0941,-1.2098,-1.3194,-1.4266,-1.8162,-2.0179,-2.0266,-1.9966,-1.8915,-1.7196,-1.6347,-1.5389,-1.4561,-1.567,-1.6041,-1.5954,0.0,0.0,0.0,0.0,0.0,0.0,0.0,0.0,0.0,0.0,0.0,0.0,0.0,0.0,0.0,-2.9792,-2.9197,-2.8426,-2.8176,-2.7627,-2.7383,-2.8349,-2.6279,-2.5118,-2.9307,-3.1701,-3.4134,0.0,0.0,0.0,0.0,-4.6529,0.0,0.0,0.0,0.0,0.0,0.0,0.0,0.0,0.0,0.0,0.0,0.0,0.0,0.0,0.0,0.0,0.0,0.0,0.0,0.0,-3.8751,-3.8317,-3.8167,-3.7045,-3.5659,-3.3926,-3.304,-3.1756,-3.0139,-2.9934,-2.9792,-2.9792,-2.9792,-2.9792,-2.9792,-2.9792,-2.9792,-2.9792,-2.9792,-2.9624,-2.9365,-2.9365,-2.9365,-2.9443,0.0,0.0,0.0,0.0,0.0,0.0,0.0,0.0,0.0,0.0,0.0,0.0,0.0,0.0,0.0,0.0,0.0,0.0,0.0,0.0,-1.0087,-1.0184,-1.1283,-1.1858,-1.1858,-1.4208,-1.5429,-1.553,-2.0338,-2.2708,-2.2708,-2.1511,-1.9159,-1.5833,-1.6204,-1.6224,-1.615,-1.7276,-1.939,-2.1888,-2.1536,0.0,0.0,0.0,0.0,0.0,0.0,0.0,0.0,0.0,0.0,0.0,0.0,0.0,-2.9792,-2.9792,-2.9714,-2.9456,-2.8426,-2.8645,-2.9367,-3.0091,-2.8887,-2.9088,-3.5072,-3.7002,-3.9301,-4.5666,0.0,0.0,0.0,-5.0291,0.0,0.0,0.0,0.0,0.0,0.0,0.0,0.0,0.0,0.0,0.0,0.0,0.0,0.0,0.0,0.0,0.0,0.0,0.0,0.0,0.0,-3.8093,-3.7479,-3.6821,-3.5961,-3.4879,-3.3325,-3.2105,-3.1031,-3.0216,-2.9792,-2.9792,-2.9792,-2.9792,-2.9792,-2.9792,-2.9792,-2.9792,-2.9792,-2.9118,-2.8255,-2.8255,-2.8255,-2.8347,0.0,0.0,0.0,0.0,0.0,0.0,0.0,0.0,0.0,0.0,0.0,0.0,0.0,0.0,0.0,0.0,0.0,0.0,0.0,0.0,-1.0791,-1.1367,-1.2546,-1.3866,-1.5481,-1.6362,-1.7194,-1.8072,-2.1444,-2.375,-2.5167,-2.2742,-2.0889,-1.9616,-2.0083,-2.0041,-1.9878,-2.2171,-2.3592,-2.4442,-2.5321,-2.6497,0.0,0.0,0.0,0.0,0.0,0.0,0.0,0.0,-3.2678,0.0,0.0,0.0,-2.9792,-2.9792,-2.9792,-2.9702,-2.9275,-3.0733,-3.247,-3.3018,-3.3967,0.0,0.0,-4.1701,-4.3962,-4.7599,-4.9057,0.0,0.0,0.0,0.0,0.0,0.0,0.0,0.0,0.0,0.0,0.0,0.0,0.0,0.0,0.0,0.0,0.0,0.0,0.0,0.0,0.0,0.0,0.0,0.0,-3.7659,-3.7404,-3.579,-3.4743,-3.4373,-3.3143,-3.1829,-3.0355,-2.9934,-2.9792,-2.9792,-2.9792,-2.9792,-2.9792,-2.9792,-2.9792,-2.9792,-2.9792,-2.9534,-2.9197,-2.9197,-2.9197,-2.9197,0.0,0.0,0.0,0.0,0.0,0.0,0.0,0.0,0.0,0.0,0.0,0.0,0.0,0.0,0.0,0.0,0.0,0.0,-0.8813,-1.061,-1.1994,-1.2657,-1.3876,-1.5317,-1.7037,-1.7787,-1.8784,-2.0034,-2.2129,-2.4059,-2.5891,-2.3428,-2.2342,-2.2351,-2.3085,-2.3728,-2.4364,-2.6453,-2.7749,-2.8487,-2.9165,-2.9604,0.0,0.0,0.0,0.0,0.0,0.0,0.0,0.0,0.0,0.0,0.0,0.0,0.0,0.0,-3.003,-3.0294,-3.0294,-3.2134,-3.426,-3.5304,0.0,0.0,-4.3425,-4.5294,-4.7119,-5.0085,-5.0664,-5.0123,-4.8214,0.0,0.0,0.0,0.0,0.0,0.0,0.0,0.0,0.0,0.0,0.0,0.0,0.0,0.0,0.0,0.0,0.0,0.0,0.0,0.0,0.0,0.0,-3.7315,-3.712,-3.5054,-3.3876,-3.3518,-3.2593,-3.1476,-3.0203,-2.9934,-2.9792,-2.9792,-2.9792,-2.9792,-2.9792,-2.9792,-2.9792,-2.9792,-2.9365,-2.9456,-2.9792,-2.9365,-2.9456,-2.9792,0.0,0.0,0.0,0.0,0.0,0.0,0.0,0.0,0.0,0.0,0.0,0.0,0.0,0.0,0.0,0.0,0.0,0.0,-0.9998,-1.242,-1.3878,-1.3878,-1.5146,-1.5825,-1.5825,-1.8303,-2.0124,-2.1293,-2.2492,-2.3714,-2.4787,-2.3614,-2.2988,-2.3095,-2.4681,-2.6934,-2.951,-2.963,-3.1605,-3.4528,-3.2835,-3.2227,-3.2215,0.0,0.0,0.0,0.0,0.0,0.0,0.0,-3.118,0.0,0.0,0.0,0.0,0.0,-3.0557,-3.1399,-3.1386,-3.2568,-3.438,-3.6686,0.0,0.0,-4.6821,-4.748,-4.8528,-5.3917,-5.2572,-5.0189,-4.9393,-4.8781,0.0,0.0,0.0,0.0,0.0,0.0,0.0,0.0,0.0,0.0,0.0,0.0,0.0,0.0,0.0,0.0,0.0,0.0,0.0,0.0,0.0,0.0,-3.6492,-3.4864,-3.3518,-3.2593,-3.1683,-3.118,-3.118,-3.0203,-2.9792,-2.9792,-2.9792,-2.9792,-2.9792,-2.9792,-2.9792,-2.9702,-2.8597,-2.8767,-2.9624,-2.8518,-2.8858,-2.9792,0.0,0.0,0.0,0.0,0.0,0.0,0.0,0.0,0.0,0.0,0.0,0.0,0.0,0.0,0.0,0.0,0.0,0.0,-1.1365,-1.2909,-1.3878,-1.3878,-1.5146,-1.6655,-1.8395,-2.1128,-2.2936,-2.374,-2.328,-2.3714,-2.4798,-2.4681,-2.4651,-2.4759,-2.7253,-2.8827,-2.9642,-3.0893,-3.2043,-3.2957,-3.2887,-3.2579,-3.2215,0.0,0.0,0.0,0.0,0.0,0.0,0.0,0.0,0.0,0.0,0.0,0.0,-3.0018,-3.0834,-3.1953,-3.194,-3.4473,0.0,-3.8837,0.0,0.0,0.0,-4.9237,0.0,0.0,-5.0652,-4.8802,-4.7436,0.0,0.0,0.0,0.0,0.0,0.0,0.0,0.0,0.0,0.0,0.0,0.0,0.0,0.0,0.0,0.0,0.0,0.0,0.0,0.0,0.0,0.0,0.0,-3.6492,-3.4206,-3.289,-3.2593,-3.0983,-3.0216,-3.0216,-2.9934,-2.9792,-2.9792,-2.9792,-2.9792,-2.9792,-2.9792,-2.9792,-2.9792,-2.9443,-2.9534,-2.9792,-2.9456,-2.9534,-2.9792,0.0,0.0,0.0,0.0,0.0,0.0,0.0,0.0,0.0,0.0,-1.4045,0.0,0.0,0.0,0.0,0.0,0.0,0.0,0.0,-1.462,-1.5582,-1.6129,-1.7022,-1.8473,-2.0668,-2.2401,-2.4037,-2.5419,-2.4492,-2.441,-2.507,-2.601,-2.6576,-2.686,-2.9047,-3.0318,-3.1009,-3.1868,-3.244,-3.288,-3.3,-3.2867,-3.2554,0.0,0.0,0.0,0.0,0.0,0.0,0.0,0.0,0.0,0.0,0.0,0.0,-3.0821,-3.2066,-3.3624,-3.4133,-3.6962,0.0,-4.1497,-4.431,-4.7197,-4.9225,0.0,0.0,0.0,-4.9173,-4.7882,-4.6871,0.0,0.0,0.0,0.0,0.0,0.0,0.0,0.0,0.0,0.0,0.0,0.0,0.0,0.0,0.0,0.0,0.0,0.0,0.0,0.0,0.0,0.0,0.0,-3.5495,-3.3213,-3.2033,-3.2033,-3.0495,-2.9792,-2.9792,-2.9792,-2.9792,-2.9792,-2.9792,-2.9792,-2.9792,-2.9792,-2.9792,-2.9767,-2.9541,-2.9591,-2.9767,-2.9528,-2.9591,-2.9792,0.0,0.0,0.0,0.0,0.0,0.0,0.0,0.0,0.0,0.0,-1.4908,-1.3974,0.0,0.0,0.0,0.0,0.0,0.0,0.0,0.0,-1.8334,-1.9538,-2.0095,-2.1165,-2.2939,-2.3043,-2.4336,-2.6631,-2.5914,-2.5543,-2.5577,-2.7438,-2.8464,-2.8951,-3.014,-3.1506,-3.2909,-3.239,-3.2784,-3.3736,-3.3255,-3.3081,-3.3081,-3.3081,0.0,0.0,0.0,0.0,0.0,0.0,0.0,0.0,0.0,0.0,-3.1009,-3.1876,-3.372,-3.5838,-3.7103,-3.9418,0.0,-4.4167,-4.6152,0.0,-4.9,-5.051,-5.1102,-4.9478,0.0,-4.7369,0.0,0.0,0.0,0.0,0.0,0.0,0.0,0.0,0.0,0.0,0.0,0.0,0.0,0.0,0.0,0.0,0.0,0.0,0.0,0.0,0.0,0.0,0.0,0.0,-3.3891,-3.2105,-3.118,0.0,-3.0279,-2.9792,-2.9792,-2.9792,-2.9792,-2.9792,-2.9741,-2.9664,-2.9624,-2.9624,-2.9624,-2.9574,-2.9049,-2.9213,-2.9654,-2.9176,-2.9302,-2.9729,0.0,0.0,0.0,0.0,0.0,0.0,0.0,0.0,0.0,0.0,0.0,0.0,0.0,0.0,0.0,0.0,0.0,0.0,0.0,0.0,-1.9345,-1.9986,-2.1691,-2.3625,-2.5674,-2.6627,-2.7883,-2.9387,-2.7147,-2.6365,-2.6967,-2.8605,-2.9261,-2.8974,-3.0511,-3.1675,-3.2358,-3.2248,-3.2634,-3.3221,-3.3104,-3.3081,-3.3081,-3.3081,-3.3006,0.0,0.0,0.0,0.0,0.0,0.0,0.0,-3.1311,-3.1913,-3.2416,-3.1763,-3.3139,-3.5249,-3.6944,-3.8838,0.0,0.0,-4.7404,-4.8925,-4.9194,-4.9223,-4.8844,-4.795,-4.7923,0.0,0.0,0.0,0.0,0.0,0.0,0.0,0.0,0.0,0.0,0.0,0.0,0.0,0.0,0.0,0.0,0.0,0.0,0.0,0.0,0.0,0.0,0.0,0.0,-3.3799,-3.289,-3.1742,-3.118,0.0,-3.0279,-2.9792,-2.9792,-2.9792,-2.9792,-2.9767,-2.9315,-2.8867,-2.8426,-2.8426,-2.8426,-2.8414,-2.8294,-2.8648,-2.9151,-2.9478,-2.9402,-2.9176,0.0,0.0,0.0,0.0,0.0,0.0,0.0,0.0,0.0,0.0,0.0,0.0,0.0,0.0,0.0,0.0,0.0,0.0,0.0,0.0,0.0,-2.3683,-2.483,-2.6436,-2.8665,-2.9322,-3.0097,-3.109,-2.9738,-2.8967,-2.8769,-3.0001,-3.0514,-3.0501,-3.139,-3.1938,-3.2227,-3.2503,-3.2641,-3.2692,-3.2968,-3.3081,-3.3081,-3.3081,-3.3081,-3.3081,-3.3081,0.0,0.0,0.0,0.0,0.0,0.0,0.0,-3.3495,-3.3714,-3.4959,-3.6611,-3.7885,0.0,0.0,-4.469,0.0,-4.6922,-4.703,-4.6431,-4.5898,-4.5566,0.0,0.0,0.0,0.0,0.0,0.0,0.0,0.0,0.0,0.0,0.0,0.0,0.0,0.0,0.0,0.0,0.0,0.0,0.0,0.0,0.0,0.0,0.0,0.0,-3.3057,-3.2393,-3.196,-3.097,-3.0558,-3.0558,-2.9707,-2.8986,-2.8255,-2.9011,-2.9135,-2.87,-2.8047,-2.7416,-2.672,-2.672,-2.6956,-2.7389,-2.7061,-2.76,-2.8574,-2.8875,-2.8963,-2.9013,0.0,0.0,0.0,0.0,0.0,0.0,0.0,0.0,0.0,0.0,0.0,0.0,0.0,0.0,0.0,0.0,0.0,0.0,0.0,0.0,0.0,-2.7966,-2.8199,-2.9347,-3.1496,-3.1524,-3.1808,-3.2539,-3.2454,-3.1997,-3.1105,-3.1645,-3.2014,-3.2365,-3.2794,-3.2685,-3.2403,-3.3212,-3.3051,-3.2403,-3.288,-3.3081,-3.3081,-3.3081,-3.3081,-3.3081,-3.3081,-3.2767,-3.2441,-3.3262,0.0,0.0,0.0,0.0,-3.4574,-3.597,-3.6976,-3.7835,-3.8762,0.0,-4.2371,-4.3972,-4.4318,0.0,-4.436,-4.3863,-4.3476,0.0,0.0,0.0,0.0,0.0,0.0,0.0,0.0,0.0,0.0,0.0,0.0,0.0,0.0,0.0,0.0,0.0,0.0,0.0,0.0,0.0,0.0,0.0,-3.3903,-3.2407,-3.1609,-3.1106,-3.097,-3.0216,-2.9741,-2.9641,-2.89,-2.7814,-2.6602,-2.7677,-2.7746,-2.7091,-2.647,-2.5685,-2.4937,-2.4937,-2.5458,-2.6252,-2.5828,-2.6627,-2.7971,-2.8072,-2.8398,-2.885,0.0,0.0,0.0,0.0,0.0,0.0,0.0,0.0,0.0,0.0,-1.5832,-1.6197,0.0,0.0,0.0,0.0,0.0,0.0,-2.1025,0.0,0.0,-2.978,-3.027,-3.153,-3.3953,-3.3408,-3.3597,-3.4329,-3.3856,-3.3794,-3.4093,-3.3734,-3.3357,-3.3091,-3.5016,-3.4839,-3.3079,-3.4601,-3.4353,-3.2968,-3.3043,-3.3081,-3.3081,-3.3081,-3.3081,-3.3081,-3.3081,-3.3031,-3.3202,-3.4738,-3.5142,0.0,0.0,0.0,-3.6161,-3.6399,-3.6158,-3.6184,0.0,0.0,-4.3377,0.0,-4.4015,-4.436,0.0,0.0,0.0,0.0,0.0,0.0,0.0,0.0,0.0,0.0,0.0,0.0,0.0,0.0,0.0,0.0,0.0,0.0,0.0,0.0,0.0,0.0,0.0,0.0,0.0,-3.3223,-3.2475,-3.1389,-3.1241,-3.0833,-2.9998,-2.9856,-2.9541,-2.9038,-2.759,-2.6824,-2.6578,-2.5449,-2.515,-2.5472,-2.4873,-2.4282,-2.3732,-2.3732,-2.4277,-2.5226,-2.5147,-2.6056,-2.7444,-2.7934,-2.816,-2.8235,0.0,0.0,0.0,0.0,0.0,0.0,0.0,0.0,0.0,0.0,0.0,-1.6298,0.0,0.0,0.0,-1.9405,-2.0576,-2.21,-2.3999,-2.6009,-2.8533,-3.1623,-3.1914,-3.2972,-3.501,-3.4789,-3.4687,-3.4726,-3.4173,-3.45,-3.5629,-3.5077,-3.4688,-3.4462,-3.5891,-3.5609,-3.4073,-3.5148,-3.4821,-3.3508,-3.3206,-3.3081,-3.3081,-3.3081,-3.3081,-3.3081,-3.3081,-3.3269,-3.3732,-3.5116,-3.5817,-3.6463,-3.8459,0.0,0.0,0.0,-3.714,-3.6663,-3.7861,-3.9511,-4.0985,0.0,-4.1839,-4.2115,-4.155,0.0,0.0,0.0,0.0,0.0,0.0,0.0,0.0,0.0,0.0,0.0,0.0,0.0,0.0,0.0,0.0,0.0,0.0,0.0,0.0,0.0,0.0,0.0,-3.232,-3.1963,-3.1402,-3.0419,-3.0419,-3.0203,-2.9792,-2.9465,-2.8549,-2.7127,-2.6502,-2.5401,-2.3969,-2.3056,-2.3113,-2.3874,-2.3297,-2.2453,-2.1531,-2.2309,-2.3102,-2.3868,-2.4671,-2.5769,-2.6892,-2.7444,-2.7645,-2.7682,0.0,0.0,0.0,0.0,0.0,0.0,0.0,0.0,0.0,0.0,0.0,0.0,0.0,0.0,0.0,0.0,-2.1706,-2.3693,-2.6986,-2.804,-3.0032,-3.3208,-3.3385,-3.4083,-3.573,-3.5479,-3.514,-3.4726,-3.4173,-3.4738,-3.6358,-3.5956,-3.5906,-3.6144,-3.6792,-3.6132,-3.4577,-3.5461,-3.5094,-3.3847,-3.3307,-3.2993,-3.288,-3.3169,-3.3106,-3.2893,-3.3181,-3.3707,-3.4497,-3.5862,-3.6868,-3.7891,-3.9715,-3.9445,0.0,0.0,0.0,-3.7091,0.0,0.0,-3.8605,-3.9308,-3.9798,-4.0023,0.0,0.0,0.0,0.0,0.0,0.0,0.0,0.0,0.0,0.0,0.0,0.0,0.0,0.0,0.0,0.0,0.0,0.0,0.0,0.0,0.0,0.0,0.0,0.0,-3.096,-3.0833,-3.0558,-2.9792,-2.9534,-2.9365,-2.9365,-2.843,-2.6986,-2.5248,-2.4888,-2.3604,-2.1681,-2.1125,-2.128,-2.1987,-2.1597,-2.0868,-2.0007,-2.1275,-2.2239,-2.2973,-2.4296,-2.5387,-2.6314,-2.6866,-2.7155,-2.7318,0.0,0.0,0.0,0.0,0.0,0.0,0.0,0.0,0.0,0.0,0.0,0.0,-1.9719,-2.0305,-2.1328,-2.3409,-2.4601,-2.6433,-2.9388,-3.0141,-3.168,-3.4457,-3.4635,0.0,-3.6295,-3.529,-3.4751,-3.4726,-3.4173,-3.4738,-3.6358,-3.6358,-3.691,-3.7852,-3.8467,-3.7027,-3.406,-3.5709,-3.5457,-3.3847,-3.3307,-3.2754,-3.2378,-3.3445,-3.3194,-3.2403,-3.347,-3.4606,-3.577,-3.7482,-3.9154,-4.0709,-4.1299,-4.0732,-3.9628,0.0,0.0,0.0,0.0,-3.7249,0.0,-3.8642,0.0,0.0,0.0,0.0,0.0,0.0,0.0,0.0,0.0,0.0,0.0,0.0,0.0,0.0,0.0,0.0,0.0,0.0,0.0,0.0,0.0,0.0,0.0,0.0,0.0,0.0,-2.9894,-2.9856,-2.9869,-2.9792,-2.8767,-2.8176,-2.8176,-2.6219,-2.4698,-2.379,-2.2291,-2.1333,-2.0828,-1.9815,-1.9419,-1.9478,-1.986,-2.0007,-1.9987,-2.0872,-2.1792,-2.2786,-2.3828,-2.4815,-2.5711,-2.6289,-2.6829,-2.7205,0.0,0.0,0.0,0.0,0.0,0.0,0.0,0.0,0.0,0.0,0.0,0.0,0.0,-2.0763,-2.2419,-2.472,-2.6964,-2.912,-3.1192,-3.1857,-3.3146,-3.5086,-3.5253,-3.5441,-3.583,-3.5454,-3.5077,-3.4726,-3.4173,-3.4562,-3.583,-3.5855,-3.6056,-3.6445,-3.8104,-3.7609,-3.5533,-3.6204,-3.5691,-3.4349,-3.3432,-3.2955,-3.2805,-3.3219,-3.3345,-3.3431,-3.4564,-3.5751,-3.7004,-3.9144,-4.0066,-4.0365,-4.1349,-4.029,-3.8482,-3.7335,-3.6709,-3.6408,0.0,0.0,0.0,0.0,0.0,0.0,0.0,0.0,0.0,0.0,0.0,0.0,0.0,0.0,0.0,0.0,0.0,0.0,0.0,0.0,0.0,0.0,0.0,0.0,0.0,0.0,0.0,0.0,0.0,0.0,-2.9829,-2.9106,-2.8688,-2.8688,-2.7614,-2.6726,-2.6152,-2.485,-2.3494,-2.2174,-2.1434,-2.0637,-1.9837,-1.9137,-1.8867,-1.8877,-1.9023,-1.9092,-1.9183,-2.0991,-2.1768,-2.2015,-2.3869,-2.5033,-2.5624,-2.5824,-2.6264,-2.6798,0.0,0.0,0.0,0.0,0.0,0.0,0.0,0.0,0.0,-1.6821,0.0,0.0,0.0,0.0,-2.4624,-2.7546,-2.9106,-3.0726,-3.2616,-3.2889,-3.3727,-3.5399,-3.573,-3.583,-3.5818,-3.5818,-3.5454,-3.4726,-3.4349,-3.455,-3.5278,-3.5454,-3.5542,-3.5579,-3.7086,-3.7134,-3.6125,-3.6161,-3.5558,-3.4638,-3.3721,-3.3357,-3.3395,-3.3771,-3.4135,-3.4641,-3.5992,-3.6893,-3.7856,-3.9606,-4.0055,-3.9986,-4.029,-3.8932,-3.7,-3.6122,-3.5943,-3.6044,-3.5855,0.0,0.0,0.0,0.0,0.0,0.0,0.0,0.0,0.0,0.0,0.0,0.0,0.0,0.0,0.0,0.0,0.0,0.0,0.0,0.0,0.0,0.0,0.0,0.0,0.0,0.0,0.0,0.0,0.0,-2.8724,-2.7947,-2.736,-2.7012,-2.614,-2.5185,-2.4003,-2.3123,-2.1967,-2.0699,-2.0247,-1.9616,-1.8848,-1.8555,-1.8428,-1.8428,-1.8428,-1.8506,-1.8793,-2.0849,-2.1543,-2.1563,-2.3912,-2.5034,-2.5385,-2.5749,-2.6138,-2.6533,0.0,0.0,0.0,0.0,0.0,0.0,0.0,0.0,-1.9152,-1.8814,0.0,0.0,0.0,0.0,0.0,-3.1828,-3.1055,-3.1413,-3.3808,-3.3223,-3.3627,-3.5449,-3.6107,-3.6395,-3.6358,-3.6358,-3.5818,-3.4726,-3.4726,-3.47,-3.4688,-3.524,-3.5491,-3.5491,-3.5516,-3.5516,-3.5516,-3.5504,-3.5203,-3.47,-3.4123,-3.3922,-3.406,-3.5115,-3.5542,-3.5722,-3.7456,-3.8121,-3.8249,-3.8851,-3.9402,-3.9664,-3.8469,-3.6856,-3.5466,-3.4914,-3.514,-3.5441,0.0,0.0,0.0,0.0,0.0,0.0,0.0,0.0,0.0,0.0,0.0,0.0,0.0,0.0,0.0,0.0,0.0,0.0,0.0,0.0,0.0,0.0,0.0,0.0,0.0,0.0,0.0,0.0,0.0,-2.7614,-2.6565,-2.6483,-2.588,-2.4766,-2.4336,-2.3402,-2.1875,-2.0977,-2.0117,-1.9277,-1.8828,-1.8408,-1.8008,-1.8008,-1.8008,-1.8008,-1.8008,-1.8242,-1.8754,-2.0482,-2.1152,-2.1396,-2.3823,-2.4808,-2.4958,-2.6038,-2.6508,-2.6533,0.0,0.0,0.0,0.0,0.0,0.0,-1.9707,-2.0732,-2.1477,0.0,0.0,0.0,-2.4488,-2.8143,-3.1255,-3.2761,-3.3589,-3.425,-3.4631,-3.4695,-3.5171,-3.6107,-3.6295,-3.637,-3.6358,0.0,0.0,0.0,0.0,0.0,0.0,0.0,0.0,-3.4374,-3.4776,-3.4951,-3.4926,-3.4525,-3.4726,-3.524,-3.4286,-3.4374,-3.5077,-3.4989,-3.5441,-3.6281,-3.7143,-3.8305,-3.9322,-3.9557,-3.9421,-3.8937,-3.7371,-3.6514,-3.6031,-3.5479,-3.5705,-3.5843,-3.4487,0.0,0.0,0.0,0.0,0.0,0.0,0.0,0.0,0.0,0.0,0.0,0.0,0.0,0.0,0.0,0.0,0.0,0.0,0.0,0.0,0.0,0.0,0.0,0.0,0.0,0.0,0.0,-2.7649,-2.6801,-2.6483,-2.5724,-2.4651,-2.3178,-2.2758,-2.2165,-2.1416,-2.0234,-1.9521,-1.9277,-1.8535,-1.8125,-1.8008,-1.8008,-1.8008,-1.8008,-1.8008,-1.8076,-1.8311,-2.0074,-2.0792,-2.0967,-2.3338,-2.4469,-2.4908,-2.5586,-2.6101,-2.6533,0.0,0.0,0.0,0.0,0.0,0.0,-2.1715,-2.2736,-2.3505,0.0,0.0,0.0,-2.7907,-3.102,-3.3024,-3.3387,-3.4,-3.459,-3.4999,-3.5078,-3.5441,-3.6345,-3.6584,-3.6709,-3.6709,0.0,0.0,0.0,0.0,0.0,0.0,0.0,0.0,-3.3909,0.0,-3.3968,-3.3248,-3.3496,-3.4198,0.0,-3.45,0.0,0.0,-3.5529,-3.6094,0.0,0.0,-3.8423,-3.9051,-3.9154,-3.8618,-3.7629,-3.637,-3.6019,-3.5868,-3.509,-3.524,-3.5366,-3.3935,-3.4123,-3.4587,-3.4035,0.0,0.0,-3.465,-3.4964,0.0,0.0,0.0,0.0,0.0,0.0,0.0,0.0,0.0,0.0,0.0,0.0,0.0,0.0,0.0,0.0,0.0,0.0,0.0,0.0,-2.6601,-2.5557,-2.5147,-2.4467,-2.3599,-2.2519,-2.21,-2.168,-2.124,-1.9941,-1.9287,-1.9277,-1.8418,-1.8008,-1.8008,-1.8008,-1.8008,-1.8008,-1.8008,-1.8202,-1.8654,-2.0009,-2.059,-2.085,-2.3362,-2.4544,-2.4921,-2.5674,-2.6163,-2.6559,0.0,0.0,0.0,0.0,0.0,0.0,-2.3695,-2.4748,-2.5404,0.0,-2.767,-3.0013,-3.2059,-3.3305,-3.3937,-3.3849,-3.3518,-3.3971,-3.5112,-3.4936,-3.5357,-3.6546,-3.701,-3.7274,-3.7274,-3.7211,0.0,0.0,0.0,0.0,0.0,0.0,0.0,0.0,0.0,0.0,-3.15,0.0,0.0,-3.4726,-3.4726,-3.5416,0.0,0.0,-3.701,-3.7925,-3.8454,-3.8389,-3.8035,-3.7948,-3.7294,-3.6282,-3.5793,-3.5642,-3.5429,-3.4387,-3.4474,-3.4663,-3.3558,-3.4022,-3.4663,-3.406,-3.4311,0.0,-3.4487,-3.4537,-3.4914,0.0,0.0,0.0,0.0,0.0,0.0,0.0,0.0,0.0,0.0,0.0,0.0,0.0,0.0,0.0,0.0,0.0,-2.8523,-2.6366,-2.5194,-2.4125,-2.3135,-2.3135,-2.2949,-2.2519,-2.21,-2.168,-2.124,-1.9941,-1.9287,-1.9277,-1.8418,-1.8008,-1.8008,-1.8008,-1.8008,-1.8008,-1.8008,-1.8462,-1.9365,-2.0268,-2.0688,-2.1092,-2.3729,-2.4858,-2.5034,-2.6076,-2.6533,-2.6609,-2.7451,0.0,0.0,0.0,0.0,0.0,0.0,-2.725,-2.8327,-2.8674,-2.9682,-3.0947,-3.2187,-3.3178,-3.4017,-3.493,-3.5617,-3.606,-3.6383,-3.6944,-3.7381,-3.7688,-3.7789,-3.7839,-3.7839,-3.7412,0.0,0.0,0.0,0.0,0.0,0.0,0.0,0.0,0.0,0.0,0.0,0.0,0.0,-3.4726,-3.4726,0.0,-3.6973,-3.6533,-3.6772,-3.7274,-3.6982,-3.7341,-3.7902,-3.7513,-3.69,-3.6345,-3.6232,-3.6194,-3.6069,-3.5416,-3.5617,-3.5805,-3.47,-3.4876,-3.514,-3.4148,-3.4311,0.0,-3.3006,-3.3407,-3.4123,0.0,0.0,0.0,0.0,0.0,0.0,0.0,0.0,0.0,0.0,0.0,0.0,0.0,0.0,0.0,0.0,0.0,-2.6635,-2.5812,-2.4267,-2.3299,-2.3135,-2.3135,-2.2949,-2.2519,-2.21,-2.168,-2.124,-1.9941,-1.9287,-1.9277,-1.8418,-1.8008,-1.8008,-1.8008,-1.8008,-1.8008,-1.8008,-1.8462,-1.9365,-2.0268,-2.1277,-2.2438,-2.4147,-2.5071,-2.5523,-2.6214,-2.6533,-2.6609,-2.7383,-2.7295,0.0,0.0,0.0,0.0,0.0,-2.8295,-2.8838,-2.9482,-3.1044,-3.2342,-3.3323,-3.4207,-3.5008,-3.5266,-3.6131,-3.6692,-3.6692,-3.7565,-3.7889,-3.7613,-3.76,-3.7726,-3.8002,-3.7199,-3.691,0.0,0.0,0.0,0.0,0.0,0.0,0.0,0.0,0.0,0.0,0.0,-3.3344,-3.3857,-3.4441,0.0,-3.6734,-3.6471,-3.6533,-3.6734,-3.6458,-3.6722,-3.7186,-3.7186,-3.681,0.0,-3.6358,-3.6358,-3.6257,-3.5705,-3.573,-3.5717,-3.4613,-3.4713,-3.4939,-3.411,-3.411,0.0,0.0,-3.3282,-3.3646,0.0,0.0,0.0,0.0,0.0,0.0,0.0,0.0,0.0,0.0,0.0,0.0,0.0,0.0,0.0,0.0,0.0,-2.58,-2.4425,-2.3593,-2.3135,-2.3135,-2.3135,-2.2949,-2.2519,-2.21,-2.168,-2.124,-1.9941,-1.9287,-1.9277,-1.8418,-1.8008,-1.8008,-1.8008,-1.8008,-1.8008,-1.8008,-1.8721,-2.0031,-2.0729,-2.2104,-2.3818,-2.4514,-2.5146,-2.5699,-2.6553,-2.6866,-2.6979,-2.7197,-2.7764,0.0,0.0,0.0,0.0,0.0,0.0,-2.8691,-2.9473,-3.1533,-3.3198,-3.4197,-3.5013,-3.5725,-3.618,-3.6612,-3.7035,-3.7553,-3.8049,-3.809,-3.7525,-3.7613,-3.7776,-3.8002,-3.7136,-3.7061,0.0,0.0,0.0,0.0,0.0,0.0,0.0,0.0,0.0,-3.0783,0.0,0.0,-3.2629,0.0,-3.4978,-3.6358,-3.6061,-3.5966,-3.5966,-3.575,-3.575,-3.6123,-3.6475,-3.653,-3.6358,-3.6358,-3.6358,0.0,0.0,0.0,-3.5479,-3.4487,-3.4537,0.0,0.0,0.0,-3.3972,0.0,0.0,0.0,0.0,0.0,0.0,0.0,0.0,0.0,0.0,0.0,0.0,0.0,0.0,0.0,0.0,0.0,0.0,0.0,0.0,-2.5102,-2.3281,-2.3135,-2.3135,-2.3135,-2.3135,-2.2988,-2.2646,-2.2148,-2.1719,-2.1367,-2.0059,-1.9365,-1.9277,-1.8506,-1.8086,-1.8008,-1.8008,-1.8008,-1.8008,-1.8008,-1.8911,-2.0377,-2.0919,-2.2488,-2.4561,-2.466,-2.5021,-2.5592,-2.6499,-2.6834,-2.7055,-2.7529,-2.7969,-2.8291,0.0,0.0,0.0,0.0,0.0,-2.9023,-2.9502,-3.0561,-3.1898,-3.379,-3.3671,-3.5084,-3.9101,-3.8226,-3.8333,-4.0645,-3.9969,-3.9258,-3.8705,-3.9145,-3.8969,-3.8027,-3.7889,-3.7651,-3.7274,0.0,0.0,0.0,0.0,0.0,0.0,-3.3205,0.0,0.0,0.0,-3.0654,0.0,-3.1637,-3.373,0.0,-3.5078,-3.4581,-3.4471,-3.3243,-3.3552,-3.4593,0.0,-3.5428,-3.6358,0.0,-3.6358,-3.6358,-3.6282,0.0,0.0,0.0,0.0,0.0,0.0,-3.4274,0.0,0.0,0.0,-3.3558,-3.2679,0.0,0.0,0.0,0.0,0.0,0.0,0.0,0.0,0.0,0.0,0.0,0.0,0.0,0.0,0.0,0.0,0.0,-2.3174,-2.3135,-2.3135,-2.3135,-2.3135,-2.3115,-2.3066,-2.2305,-2.1865,-2.1816,-2.0498,-1.9658,-1.9277,-1.8799,-1.8369,-1.8008,-1.8008,-1.8008,-1.8008,-1.8008,-1.8529,-1.9462,-1.9927,-2.1464,-2.3694,-2.4106,-2.4608,-2.5075,-2.5194,-2.5242,-2.554,-2.7305,-2.7832,-2.8291,-2.8291,0.0,0.0,0.0,0.0,-3.0225,-2.9648,-3.1542,-3.3713,-3.5889,-3.642,-3.7966,-4.1457,-4.0771,-4.036,-4.0771,-4.0425,-3.9923,-3.9371,-3.927,-3.8994,-3.8517,-3.7864,-3.7412,-3.7186,-3.6634,0.0,0.0,0.0,0.0,0.0,-3.1562,0.0,-3.08,0.0,-3.0477,0.0,0.0,0.0,0.0,-3.3353,-3.3155,-3.3254,-3.3464,-3.3871,-3.4483,0.0,-3.5966,0.0,0.0,0.0,0.0,-3.6358,0.0,0.0,0.0,0.0,0.0,0.0,0.0,0.0,-3.3357,0.0,-3.3382,0.0,0.0,0.0,0.0,0.0,0.0,0.0,-3.0543,0.0,0.0,0.0,0.0,0.0,0.0,0.0,0.0,0.0,0.0,0.0,0.0,-2.3135,-2.3135,-2.3135,-2.3135,-2.3135,-2.2559,-2.2129,-2.1885,-2.082,-1.9951,-1.9277,-1.8848,-1.8418,-1.8008,-1.8008,-1.8008,-1.8008,-1.8008,-1.8462,-1.9362,-2.0086,-2.1319,-2.2708,-2.381,-2.4562,-2.5016,-2.5008,-2.5366,-2.6113,-2.7256,-2.7793,-2.8291,-2.8291,0.0,0.0,0.0,0.0,-3.0927,-3.0406,-3.2601,-3.5338,-3.8307,-3.9224,-4.0761,-4.3864,-4.3187,-4.2271,-4.1467,-4.099,-4.0362,-3.9509,-3.9233,-3.8944,-3.8642,-3.7826,-3.713,-3.6663,0.0,0.0,0.0,0.0,0.0,0.0,0.0,-2.9343,-2.9683,0.0,-2.9796,-3.0421,-3.0421,-3.0651,-3.0857,-3.1381,-3.1258,-3.1037,-3.2347,-3.3238,-3.3856,-3.5135,-3.5936,0.0,-3.6358,0.0,0.0,0.0,0.0,0.0,-3.4914,0.0,0.0,0.0,0.0,0.0,0.0,0.0,0.0,0.0,0.0,0.0,0.0,0.0,-2.9449,-2.9398,0.0,-2.7687,0.0,0.0,0.0,0.0,0.0,0.0,0.0,0.0,0.0,0.0,-2.3203,0.0,-2.3135,-2.3135,-2.3135,-2.3135,-2.2734,-2.2314,-2.1894,-2.1133,-2.0312,-1.9453,-1.9023,-1.8594,-1.8174,-1.8057,-1.8008,-1.8008,-1.8008,-1.8397,-1.9157,-2.0009,-2.096,-2.1963,-2.3356,-2.4265,-2.4807,-2.4921,-2.5458,-2.6265,-2.7646,-2.7998,-2.8291,-2.8291,0.0,0.0,0.0,0.0,0.0,-3.2142,-3.3296,-3.5681,-4.0183,-4.0695,-4.245,-4.6631,-4.5008,-4.3727,-4.3702,-4.2195,-4.0588,-3.8969,-3.9396,-3.9157,-3.8052,-3.8002,-3.7085,-3.5222,0.0,0.0,0.0,0.0,0.0,0.0,-2.9685,-2.8901,-2.8953,-2.8134,-2.7845,-2.7865,-2.7865,-2.7516,-2.7396,0.0,-2.8706,-2.7347,-2.8497,0.0,0.0,-3.3206,-3.482,0.0,0.0,0.0,0.0,0.0,0.0,0.0,0.0,0.0,0.0,-3.337,0.0,0.0,0.0,0.0,-3.1223,0.0,0.0,0.0,0.0,-2.9083,-2.8143,-2.6704,-2.6293,0.0,0.0,0.0,0.0,0.0,0.0,0.0,0.0,0.0,0.0,-2.3799,-2.3379,0.0,-2.3135,-2.3135,-2.3135,-2.3135,-2.2734,-2.2314,-2.1894,-2.1435,-2.0771,-1.9893,-1.9473,-1.9043,-1.8603,-1.8193,-1.8008,-1.8008,-1.8008,-1.8242,-1.8643,-1.9174,-2.0161,-2.1502,-2.2526,-2.3492,-2.4363,-2.4803,-2.4993,-2.515,-2.8086,-2.8193,-2.8291,-2.8291,-2.8291,0.0,0.0,-3.1003,0.0,0.0,-3.7384,0.0,0.0,-4.4549,-4.573,-4.7531,-4.6313,-4.4982,-4.3878,-4.2585,-4.1467,-4.0538,-3.9087,-3.8073,-3.7697,-3.6272,-3.504,-3.3788,0.0,0.0,0.0,0.0,0.0,0.0,0.0,-2.7043,0.0,0.0,0.0,0.0,0.0,-2.7236,-2.6751,0.0,0.0,-2.8356,-2.972,-3.1168,0.0,-3.3837,-3.4736,-3.5278,-3.5278,-3.5278,-3.5341,-3.5717,-3.5567,0.0,0.0,0.0,-3.5002,-3.3897,0.0,0.0,0.0,0.0,0.0,0.0,0.0,0.0,0.0,-2.8379,-2.7281,-2.6757,-2.5521,-2.4396,0.0,0.0,0.0,0.0,0.0,0.0,0.0,0.0,0.0,-2.3408,-2.3223,-2.3135,0.0,-2.3135,-2.3135,-2.3135,-2.2998,-2.2725,-2.2305,-2.1885,-2.1221,-2.0342,-1.9212,-1.8646,-1.8572,-1.8056,-1.8043,-1.8437,-1.873,-1.8936,-1.9121,-1.9844,-2.0878,-2.2083,-2.4026,-2.5464,-2.6352,-2.5735,-2.5565,-2.5474,-2.8516,-2.8398,-2.8291,-2.8291,0.0,0.0,0.0,0.0,0.0,0.0,-4.0117,0.0,-4.6243,0.0,-4.7619,0.0,-4.723,-4.5799,-4.3928,-4.2289,-4.093,-3.9993,-3.7833,-3.6703,-3.6703,-3.5216,-3.3815,-3.2608,0.0,-3.1804,0.0,0.0,0.0,0.0,0.0,-2.6416,-2.6807,-2.6953,-2.7266,0.0,0.0,-2.7219,0.0,0.0,-2.7707,-2.8644,0.0,-3.16,-3.2715,-3.395,-3.4562,-3.4726,-3.4726,-3.4726,-3.4788,-3.5152,-3.5002,-3.4751,-3.4914,-3.4964,0.0,-3.3254,-3.2653,0.0,-3.0828,0.0,0.0,0.0,0.0,0.0,0.0,-2.7243,-2.6392,-2.6064,-2.4906,-2.3906,0.0,-2.332,0.0,0.0,0.0,0.0,0.0,0.0,-2.3965,-2.3408,-2.3223,-2.3135,0.0,0.0,-2.3135,-2.3135,-2.3135,-2.2669,-2.1883,-2.1474,-2.075,-1.9565,-1.8701,-1.8403,-1.8502,-1.8331,-1.8467,-1.8887,-1.9326,-1.96,-1.987,-2.0951,-2.1943,-2.2868,-2.4968,-2.6211,-2.6799,-2.6256,-2.5502,-2.4815,-2.8916,-2.8613,-2.8359,0.0,-2.8672,0.0,0.0,0.0,-3.5982,0.0,-4.1586,-4.4658,-4.7683,-4.7858,-4.8046,-4.8509,-4.7446,-4.591,-4.3737,-4.125,-3.9153,-3.7501,-3.5968,-3.5178,-3.5178,-3.4567,-3.3345,-3.1734,0.0,0.0,0.0,0.0,0.0,0.0,-2.6963,0.0,-2.6387,-2.6807,-2.7226,-2.7568,-2.7251,-2.7241,-2.7589,-2.7767,0.0,-2.8038,-3.0406,-3.1645,-3.237,-3.3481,-3.4211,-3.4638,-3.4638,-3.4638,-3.465,-3.4675,-3.4675,-3.4575,-3.4073,-3.3935,-3.3431,-3.1668,0.0,0.0,0.0,0.0,-2.7494,0.0,0.0,0.0,0.0,0.0,-2.542,-2.4551,-2.4394,-2.4092,-2.3252,-2.3135,0.0,0.0,0.0,0.0,0.0,-2.4014,-2.3779,-2.376,-2.3379,-2.3135,0.0,0.0,0.0,-2.3135,-2.3047,-2.2311,-2.0752,-2.0346,-1.9361,-1.7903,-1.8153,-1.8321,-1.843,-1.8993,-1.9336,-1.9346,-1.9785,-2.0215,-2.0858,-2.2304,-2.3224,-2.3817,-2.5256,-2.5766,-2.5822,-2.6222,-2.5052,-2.3135,-2.8916,-2.9092,-2.9248,0.0,-2.9062,-2.948,0.0,0.0,0.0,0.0,-4.4841,-4.7359,-4.9012,-4.8059,-4.6819,-4.5893,-4.3887,0.0,0.0,0.0,0.0,-3.6962,-3.4775,-3.362,-3.362,-3.2066,-3.1013,-3.0575,0.0,0.0,-2.8271,0.0,0.0,0.0,0.0,0.0,-2.5937,-2.6367,-2.6611,-2.68,-2.7539,-2.7814,0.0,0.0,-3.0316,-3.0406,-3.0944,-3.1862,-3.2922,-3.3195,-3.3382,-3.3495,-3.3495,-3.3495,-3.3583,-3.3985,-3.411,-3.4173,-3.4437,-3.3843,-3.2955,-3.2051,-3.0513,-2.8929,0.0,0.0,0.0,0.0,0.0,0.0,0.0,0.0,0.0,-2.4502,-2.415,-2.376,-2.3213,-2.3135,0.0,-2.3584,0.0,0.0,0.0,-2.3662,-2.3652,-2.333,-2.3203,0.0,0.0,0.0,0.0,-2.3135,-2.2217,-2.1523,-2.1148,-1.978,-1.9229,-1.9454,-1.8402,-1.8452,-1.9459,-1.9198,-1.9354,-1.9795,-2.0566,-2.141,-2.2403,-2.3433,-2.4861,-2.6456,-2.6334,-2.5777,-2.5039,-2.5167,-2.4882,-2.4211,-2.9209,-2.9404,0.0,-2.9814,0.0,0.0,-3.2038,0.0,0.0,-4.0751,-4.4022,0.0,-4.6388,-4.5539,-4.4417,-4.3322,-4.1457,0.0,-3.8916,0.0,0.0,-3.5109,-3.3246,-3.2092,-3.2092,-3.0869,-3.0107,-2.9922,0.0,0.0,-2.7998,0.0,0.0,0.0,0.0,-2.5742,-2.5762,-2.6201,-2.6557,-2.6966,-2.7907,0.0,0.0,-3.0676,-3.1589,-3.2052,-3.2052,-3.2513,-3.3081,-3.3081,-3.3081,-3.2982,-3.2426,-3.2239,-3.2213,-3.1961,-3.1956,-3.2016,-3.2316,-3.1766,-3.0939,-3.0318,-2.8932,-2.7568,-2.6955,-2.6197,-2.5742,0.0,0.0,0.0,0.0,0.0,0.0,-2.4238,-2.3789,-2.3418,-2.3174,0.0,0.0,0.0,-2.3457,0.0,0.0,-2.3359,-2.3408,-2.3154,0.0,0.0,0.0,0.0,0.0,-2.2306,-2.1123,-2.0477,-2.0477,-1.9491,-1.9033,-1.9264,-1.8809,-1.9111,-2.0156,-2.0518,-2.1121,-2.1855,-2.2793,-2.3589,-2.4266,-2.54,-2.637,-2.6978,-2.6113,-2.5052,-2.4049,-2.4049,-2.4049,-2.3963,-2.9648,-2.9707,0.0,0.0,0.0,0.0,0.0,-3.5431,0.0,-3.8423,0.0,-4.3168,-4.2169,-4.1759,-4.1338,-4.0572,0.0,-3.7998,-3.7004,-3.4827,-3.3361,-3.2965,-3.1516,-3.0801,-3.0801,-3.0293,-2.9883,-2.957,0.0,0.0,0.0,0.0,0.0,0.0,0.0,0.0,0.0,-2.633,-2.6926,-2.762,-2.8285,-2.9684,-3.1223,-3.1223,-3.1865,-3.2797,-3.2698,-3.2797,-3.3068,-3.2896,-3.2846,-3.2513,-3.1304,-3.085,-3.0672,-2.967,-2.9317,-2.9317,-2.9317,-2.8869,-2.8331,-2.7575,-2.7003,-2.6362,-2.5661,-2.5566,-2.5566,-2.5566,-2.5615,0.0,0.0,0.0,0.0,-2.3828,-2.3389,0.0,0.0,0.0,0.0,0.0,0.0,0.0,0.0,0.0,0.0,0.0,0.0,0.0,0.0,0.0,0.0,0.0,-2.0305,0.0,-1.9761,0.0,-1.9109,-1.8896,-1.9582,-2.0335,-2.1081,-2.2537,-2.3678,-2.4475,-2.5408,-2.5813,-2.5926,-2.7312,-2.7279,-2.6141,-2.521,-2.4125,-2.3135,-2.3135,-2.3135,-2.3135,-3.0019,0.0,0.0,0.0,0.0,-3.1816,-3.3018,-3.5696,-3.8086,-3.9688,-4.146,-4.2116,-4.1124,-3.9434,-3.7824,-3.6571,-3.4933,0.0,0.0,0.0,0.0,-3.1742,-3.0819,-3.0322,-3.0322,-2.9551,-2.9287,0.0,0.0,0.0,0.0,0.0,0.0,0.0,0.0,0.0,-2.5742,-2.6931,0.0,-2.7778,-2.9852,-3.0847,-3.1223,-3.1223,-3.1311,-3.1412,-3.0418,-3.1323,-3.2982,-3.1865,-3.1312,-3.0865,-2.9616,-2.926,-2.9171,-2.8992,-2.8903,-2.8903,-2.8903,-2.782,-2.6668,-2.6573,-2.5655,-2.4819,-2.4629,-2.4648,-2.4648,-2.4648,-2.4941,-2.4971,-2.4268,0.0,0.0,0.0,0.0,0.0,0.0,0.0,0.0,0.0,0.0,-2.3359,0.0,0.0,0.0,0.0,0.0,0.0,0.0,0.0,0.0,0.0,0.0,0.0,0.0,0.0,0.0,-2.1636,-2.1738,-2.2727,-2.4349,-2.4681,-2.4892,-2.507,-2.5565,-2.5813,-2.5846,-2.6515,-2.613,-2.5041,-2.4872,-2.4125,-2.3135,-2.3135,-2.3135,-2.3135,-3.0469,0.0,0.0,0.0,0.0,0.0,0.0,-3.4362,0.0,-3.654,-3.7738,-3.7859,-3.6431,-3.5531,-3.4797,-3.4146,-3.2851,-3.2051,-3.1846,-3.1201,-3.083,-3.083,-3.0215,-2.9873,-2.9873,-2.9033,-2.8799,-2.9238,0.0,0.0,0.0,0.0,0.0,0.0,0.0,-2.5742,0.0,0.0,0.0,-2.7683,-2.8866,-2.9681,-3.0316,-3.0316,-3.0154,-2.9846,-2.9308,-2.9673,-3.0474,-3.0108,-2.9676,-2.9086,-2.7844,-2.7499,-2.741,-2.6689,-2.6519,-2.6519,-2.6519,-2.5743,-2.5017,-2.5239,-2.4685,-2.415,-2.4365,-2.4414,-2.4414,-2.4414,-2.458,-2.4541,-2.3906,-2.3623,0.0,0.0,0.0,0.0,0.0,0.0,-2.3213,0.0,0.0,0.0,0.0,0.0,0.0,0.0,0.0,0.0,0.0,0.0,0.0,0.0,0.0,0.0,0.0,0.0,0.0,-2.3307,-2.3307,-2.4217,-2.593,-2.6287,-2.6647,-2.7143,-2.7018,-2.6989,-2.6932,-2.603,-2.5294,-2.4702,-2.4125,-2.3551,-2.3135,-2.3135,-2.3135,-2.3135,0.0,-2.9903,0.0,0.0,-3.0736,0.0,-3.1437,-3.2094,-3.2816,-3.3272,-3.4011,-3.3933,-3.2329,-3.2383,-3.2451,-3.2256,-3.1621,-3.1201,-3.1113,-3.0449,-3.0068,-3.0068,-2.9658,-2.9434,-2.9434,-2.8594,-2.8271,0.0,0.0,0.0,0.0,0.0,0.0,0.0,0.0,0.0,0.0,0.0,-2.6668,-2.7589,-2.7861,-2.8588,-2.9396,-2.9009,-2.8652,-2.832,-2.803,-2.759,-2.7239,-2.7623,-2.7668,-2.7348,-2.6114,-2.5768,-2.5599,-2.4542,-2.4287,-2.4287,-2.4287,-2.3975,-2.373,-2.4062,-2.3896,-2.374,-2.4072,-2.4141,-2.4141,-2.4141,-2.4141,-2.4072,-2.3838,-2.3711,0.0,0.0,0.0,0.0,0.0,0.0,0.0,0.0,0.0,0.0,-2.3174,0.0,0.0,0.0,0.0,0.0,0.0,0.0,0.0,0.0,0.0,0.0,-2.1658,0.0,-2.2708,0.0,-2.4676,-2.5596,-2.7276,-2.7787,-2.8224,-2.8721,-2.8246,-2.7844,-2.7267,-2.5284,-2.4457,-2.4382,-2.3464,-2.3135,-2.3135,-2.3135,-2.3135,-2.3047,0.0,0.0,0.0,0.0,0.0,0.0,0.0,-2.8818,-3.0863,-3.3058,-3.3181,-3.275,-3.2217,-3.1855,-3.1309,-3.0508,-3.0371,-3.0156,-2.9775,-2.9678,-2.9629,-2.9629,-2.9209,-2.8984,-2.8984,-2.8154,-2.7549,0.0,0.0,-2.6963,0.0,0.0,0.0,0.0,0.0,0.0,0.0,-2.6945,-2.7494,-2.7683,-2.8773,-2.9315,-2.9259,-2.7742,-2.7101,-2.6925,-2.5339,-2.4554,-2.4197,-2.4247,-2.4989,-2.563,-2.4446,-2.4018,-2.4028,-2.3848,-2.3848,-2.3848,-2.3848,-2.3525,-2.3213,-2.3252,-2.3223,-2.3213,-2.3252,-2.3262,-2.3262,-2.3262,-2.3262,-2.3369,-2.3721,-2.3467,-2.3184,0.0,0.0,0.0,0.0,0.0,-2.3135,-2.3135,0.0,0.0,0.0,0.0,0.0,0.0,0.0,0.0,0.0,0.0,0.0,0.0,0.0,-2.2687,-2.296,-2.295,0.0,-2.624,-2.624,-2.7371,-2.9474,-2.9524,-2.9032,-2.8183,-2.8152,-2.693,-2.5031,-2.38,-2.3222,-2.3222,-2.3135,-2.3135,-2.3135,-2.3135,-2.3135,-2.296,0.0,0.0,0.0,0.0,0.0,0.0,0.0,-2.7081,-2.78,-2.862,-3.0672,-3.1865,-3.1445,-3.0996,-3.0586,-3.0225,-2.9971,-2.9746,-2.958,-2.9326,-2.918,-2.918,-2.8525,-2.8164,-2.8164,-2.7334,-2.6934,0.0,0.0,0.0,0.0,0.0,0.0,0.0,0.0,-2.5742,-2.5732,-2.6197,-2.6476,-2.6476,-2.703,-2.7034,-2.6765,-2.604,-2.547,-2.4987,-2.4274,-2.3769,-2.3398,-2.3398,-2.3731,-2.3974,-2.3565,-2.3398,-2.3398,-2.3398,-2.3398,-2.3398,-2.3398,-2.3271,-2.3135,-2.3135,-2.3135,-2.3135,-2.3135,-2.3135,-2.3135,-2.3135,-2.3135,-2.3193,-2.3369,-2.3262,-2.3135,0.0,0.0,0.0,0.0,0.0,0.0,-2.3135,0.0,-2.3135,0.0,0.0,0.0,0.0,0.0,0.0,0.0,0.0,0.0,-2.0576,0.0,-2.2403,-2.3047,-2.3135,-2.3887,-2.5462,-2.5462,-2.6295,-2.7799,-2.7799,-2.7209,-2.6108,-2.6108,-2.5199,-2.3714,-2.3309,-2.3135,-2.3135,-2.3135,-2.3135,-2.3135,-2.3135,-2.2677,-2.1943,-2.4295,0.0,-2.4421,0.0,-2.4515,-2.4428,-2.4679,-2.4873,-2.498,-2.473,-2.7546,-2.9728,-2.9813,-2.9499,-2.9488,-2.9834,-2.9551,-2.9268,-2.9023,-2.8721,-2.8496,-2.8369,-2.7793,0.0,-2.7471,-2.6758,-2.6475,-2.6641,-2.6162,0.0,0.0,0.0,0.0,0.0,-2.5596,-2.5664,-2.5547,-2.5684,-2.5586,-2.5361,-2.5488,-2.5273,-2.4863,-2.4736,-2.4316,-2.3769,-2.3643,-2.3398,-2.3135,-2.3135,-2.3135,-2.3135,-2.3135,-2.3135,-2.3135,-2.3135,-2.3135,-2.3135,-2.3135,-2.3135,-2.3135,-2.3135,-2.3135,-2.3135,-2.3135,-2.3135,-2.3135,-2.3135,-2.3135,-2.3135,-2.3135,-2.3135,-2.3135,-2.3135,0.0,0.0,0.0,0.0,0.0,0.0,-2.3135,-2.3135,-2.3135,0.0,0.0,0.0,0.0,0.0,0.0,0.0,0.0,0.0,0.0,0.0,0.0,0.0,-2.3844,-2.4787,-2.4787,-2.5378,-2.6483,-2.6141,-2.5546,-2.4787,-2.4457,-2.38,-2.3135,-2.3135,-2.3135,-2.3135,-2.3135,-2.2862,-2.2589,-2.2589,-2.1854,-2.0755,-2.0597,-2.0241,-2.0241,-2.0247,-2.0241,-2.0241,-2.0247,-2.1661,-2.2721,-2.2721,-2.4109,-2.5733,-2.714,-2.7368,-2.778,-2.8855,-2.8926,-2.8574,-2.7744,-2.7685,-2.749,0.0,0.0,-2.7021,-2.7021,-2.6602,-2.6182,-2.5752,0.0,0.0,-2.4453,0.0,0.0,-2.5732,-2.5742,-2.5488,-2.5107,-2.5547,-2.5234,-2.4473,-2.4902,-2.4814,-2.4375,-2.3965,-2.3799,-2.373,-2.3301,-2.3144,-2.3135,-2.3135,-2.3135,-2.3135,-2.3135,-2.3135,-2.3135,-2.3135,-2.3135,-2.3135,-2.3135,-2.3135,-2.3135,-2.3135,-2.3135,-2.3135,-2.3135,-2.3135,-2.3135,-2.3135,-2.3135,-2.3135,-2.3135,-2.3135,-2.3135,-2.3135,0.0,0.0,0.0,0.0,0.0,-2.3135,-2.3135,-2.3135,-2.3135,0.0,0.0,0.0,0.0,0.0,0.0,0.0,0.0,-2.1382,-2.29,0.0,-2.3144,-2.3564,-2.4155,-2.4787,-2.4787,-2.5378,-2.6472,-2.5294,-2.4787,-2.4702,-2.3637,-2.3135,-2.3135,-2.3135,-2.3135,-2.3135,-2.3135,-2.2394,-2.1293,-2.1293,-2.0576,-1.9314,-2.0275,-2.0234,-2.0234,-2.0234,-2.0234,-2.0167,-1.9967,-2.0404,-2.0607,-2.0183,-2.0573,-2.1375,-2.2688,-2.4206,-2.5585,0.0,-2.6509,-2.6522,0.0,-2.7217,-2.7168,-2.7021,-2.6738,-2.6592,-2.6592,-2.6162,-2.5732,-2.5283,0.0,0.0,0.0,-2.5312,-2.5273,-2.4853,-2.5146,-2.5039,-2.4639,-2.4775,-2.4678,-2.4424,-2.457,-2.4365,-2.3975,-2.3838,-2.3603,-2.333,-2.3184,-2.3135,-2.3135,-2.3135,-2.3135,-2.3135,-2.3135,-2.3135,-2.3135,-2.3135,-2.3135,-2.3135,-2.3135,-2.3135,-2.3135,-2.3135,-2.3135,-2.3135,-2.3135,-2.3135,-2.3135,-2.3135,-2.3135,-2.3135,-2.3135,-2.3135,-2.3135,-2.3135,0.0,0.0,0.0,0.0,0.0,-2.3135,-2.2394,-2.2217,0.0,-2.2403,0.0,0.0,0.0,0.0,0.0,0.0,0.0,0.0,-2.3531,0.0,-2.4014,-2.3857,-2.389,-2.4077,-2.3777,-2.38,-2.4145,-2.38,-2.3637,-2.3637,-2.3222,-2.3135,-2.3135,-2.3135,-2.2589,-2.1845,-2.1845,-2.1123,-2.0034,-2.0034,-1.9314,-1.8234,-1.9506,-1.9579,-1.9579,-1.9579,-1.9579,-1.9479,-1.9178,-1.9232,-1.9138,-1.8657,-1.8691,-1.8972,-1.9621,-2.079,0.0,-2.4698,-2.4933,-2.5225,-2.5926,-2.6309,-2.6455,-2.6289,-2.6035,-2.582,-2.5654,0.0,0.0,-2.4824,-2.4941,-2.4941,-2.4824,-2.4951,-2.4795,-2.4424,-2.4697,-2.459,-2.4189,-2.4346,-2.4228,-2.3955,-2.4121,-2.3926,-2.3545,-2.3545,-2.3379,-2.3135,-2.3135,-2.3135,-2.3135,-2.3135,-2.3135,-2.3135,-2.3135,-2.3135,-2.3135,-2.3135,-2.3135,-2.3135,-2.3135,-2.3135,-2.3135,-2.3135,-2.3135,-2.3135,-2.3135,-2.3135,-2.3135,-2.3135,-2.3135,-2.3135,-2.3135,-2.3135,-2.3135,-2.3135,0.0,-2.3135,-2.3135,0.0,0.0,0.0,0.0,0.0,0.0,-2.1756,0.0,0.0,0.0,0.0,0.0,0.0,0.0,-2.3779,-2.4102,0.0,-2.4414,-2.415,-2.3945,-2.3779,-2.335,-2.3135,-2.3135,-2.3135,-2.3135,-2.3135,-2.3135,-2.3135,-2.3047,-2.2589,-2.1943,-2.1293,-2.0845,-1.9852,-1.8864,-1.8864,-1.8041,-1.6943,-1.845,-1.8457,0.0,0.0,-1.847,0.0,-1.8036,-1.8223,-1.829,-1.7989,-1.819,-1.8263,-1.7983,-1.7802,-1.8991,-2.2356,0.0,0.0,0.0,-2.5102,-2.5508,-2.5088,-2.5039,0.0,-2.4424,-2.4814,-2.4824,-2.4414,-2.3994,-2.4004,-2.4414,-2.4014,-2.4033,-2.4375,-2.4375,-2.4141,-2.3769,-2.416,-2.3867,-2.3174,-2.3584,-2.3496,-2.3135,-2.3135,-2.3135,-2.3135,-2.3135,-2.3135,-2.3135,-2.3135,-2.3135,-2.3135,-2.3135,-2.3135,-2.3135,-2.3135,-2.3135,-2.3135,-2.3135,-2.3135,-2.3135,-2.3135,-2.3135,-2.3135,-2.3135,-2.3135,-2.3135,-2.3135,-2.3135,-2.3135,-2.3135,-2.3135,-2.3135,-2.3135,-2.3135,-2.3047,-2.296,0.0,0.0,0.0,0.0,0.0,0.0,-2.1311,-2.1667,0.0,0.0,0.0,0.0,0.0,-2.3789,-2.3789,-2.456,-2.4795,-2.4424,-2.4385,-2.4069,-2.3641,-2.3144,-2.296,-2.2862,-2.2862,-2.2872,-2.296,-2.2872,-2.2862,-2.2862,-2.1667,-2.1114,-2.0935,-1.9852,-1.8588,-1.7598,-1.7598,-1.685,-1.5832,0.0,0.0,-1.8223,-1.845,-1.8303,-1.8043,-1.7736,-1.7562,-1.7361,-1.7061,-1.7081,-1.7101,-1.7034,-1.775,-1.875,-1.9959,-2.1293,-2.2581,-2.3809,-2.4764,-2.5176,-2.5068,-2.4746,-2.4521,-2.4414,-2.4521,-2.4521,-2.4414,-2.3994,-2.4004,-2.4414,-2.4316,-2.415,-2.3935,-2.3935,-2.3701,-2.3301,-2.3398,-2.332,-2.3154,-2.3252,-2.3232,-2.3135,-2.3135,-2.3135,-2.3135,-2.3135,-2.3135,-2.3135,-2.3135,-2.3135,-2.3135,-2.3135,-2.3135,-2.3135,-2.3135,-2.3135,-2.3135,-2.3135,-2.3135,-2.3135,-2.3135,-2.3135,-2.3135,-2.3135,-2.3135,-2.3135,-2.3135,-2.3135,-2.3135,-2.3135,-2.3135,-2.3135,-2.3135,-2.3135,-2.2775,-2.1872,-2.1498,0.0,0.0,-2.0215,-2.0314,-2.2501,-2.1042,-2.0395,0.0,0.0,0.0,0.0,0.0,-2.3789,-2.3789,-2.3984,-2.4199,-2.4414,-2.4102,-2.3252,-2.1894,-2.1802,-2.1212,-2.0314,-2.0314,-2.0854,-2.1667,-2.0764,-2.0854,-2.1667,-2.0395,-1.9405,-1.8503,-1.8234,-1.7404,-1.6292,-1.6292,-1.6015,-1.5832,-1.8163,-1.8743,-1.9008,-1.8569,-1.8359,-1.7936,-1.713,-1.6967,-1.684,-1.6547,-1.711,-1.7237,-1.6619,-1.814,-1.8977,-1.8686,-2.0581,-2.2197,-2.3287,-2.4051,-2.4287,-2.372,-2.34,-2.2907,-2.2144,-2.2317,-2.2317,-2.2144,-2.2479,-2.2759,-2.2975,-2.3548,-2.3711,-2.3496,-2.3496,-2.3359,-2.3135,-2.3135,-2.3135,-2.3135,-2.3135,-2.3135,-2.3135,-2.3135,-2.3135,-2.3135,-2.3135,-2.3135,-2.3135,-2.3135,-2.3135,-2.3135,-2.3135,-2.3135,-2.3096,-2.291,-2.2988,-2.3135,-2.3135,-2.3135,-2.3135,-2.3135,-2.3135,-2.3135,-2.3135,-2.3135,-2.3135,-2.3135,-2.3135,-2.3135,-2.3135,-2.3135,-2.295,-2.2403,-2.2765,-2.2687,-2.1498,-2.1302,0.0,-2.1293,-2.0215,-2.0223,-2.212,-2.0576,-2.0034,-2.1203,0.0,0.0,-2.0486,-2.1329,-2.2469,-2.3789,-2.341,-2.3343,-2.356,-2.2575,-2.1516,-2.0486,-2.0486,-2.0124,-1.9497,-1.9497,-1.9852,-2.0486,-1.9761,-1.9852,-2.0395,-1.9131,-1.8319,-1.7591,-1.7037,-1.6386,-1.5832,-1.5832,-1.5832,-1.5832,-1.8664,-1.9532,-1.9934,-1.8739,-1.852,-1.8011,-1.6501,-1.6446,-1.6486,-1.6239,-1.7476,-1.7923,-1.6614,-1.8642,-1.9694,-1.8727,-2.1037,-2.2623,-2.2874,-2.3279,-2.3047,-2.2025,-2.1778,-2.0933,-1.9497,-1.9785,-1.9794,-1.9497,-2.0486,-2.1114,-2.1293,-2.2306,-2.296,-2.3135,-2.3135,-2.3135,-2.3135,-2.3135,-2.3135,-2.3135,-2.3135,-2.3135,-2.3135,-2.3135,-2.3135,-2.3135,-2.3135,-2.3135,-2.3135,-2.3135,-2.3135,-2.3135,-2.3135,-2.3096,-2.2969,-2.2617,-2.2715,-2.2959,-2.3027,-2.3047,-2.3057,-2.3125,-2.3096,-2.3047,-2.3047,-2.3047,-2.3047,-2.3047,-2.3047,-2.3066,-2.3125,-2.3135,-2.2765,-2.1756,-2.2403,-2.2677,-2.1471,0.0,-2.1293,-2.1293,-2.0215,-1.9943,-2.1203,-2.0034,-1.9761,-2.0935,-1.9943,0.0,0.0,-1.9497,-2.0642,-2.3114,-2.2529,-2.2142,-2.2142,-2.0763,-1.9794,-1.9222,-1.9222,-1.9131,-1.8948,-1.8948,-1.9039,-1.9222,-1.9039,-1.9039,-1.9131,-1.7956,-1.7412,-1.7318,-1.6197,-1.5832,-1.5832,-1.5832,-1.5832,-1.5832,-1.9399,-1.9825,-1.9645,-1.8701,-1.8334,-1.7749,-1.6474,-1.6099,-1.5952,-1.5905,-1.6964,-1.7725,-1.7493,-1.9662,-2.1165,-2.1336,-2.2404,-2.2843,-2.2546,-2.2371,-2.2208,-2.2025,-2.0672,-1.9737,-1.9497,-1.9546,-1.9546,-1.9497,-1.9679,-2.0305,-2.1293,-2.1471,-2.212,-2.3135,-2.3135,-2.3135,-2.3135,-2.3135,-2.3135,-2.3135,-2.3135,-2.3135,-2.3135,-2.3135,-2.3135,-2.3135,-2.3135,-2.3135,-2.3135,-2.3135,-2.3135,-2.3135,-2.3135,-2.2891,-2.2598,-2.2529,-2.2305,-2.2158,-2.251,-2.2607,-2.2695,-2.3047,-2.2871,-2.2607,-2.2607,-2.2607,-2.2607,-2.2607,-2.2607,-2.2715,-2.3076,-2.3135,-2.3047,-2.2862,-2.296,-2.2677,-2.1471,0.0,-2.1293,-2.1293,-2.0215,-1.9943,-2.1203,-1.9314,-1.8503,-1.9679,-1.868,-1.8411,-1.9405,-1.9497,-1.9704,-2.0127,-2.0095,-1.9937,-1.9937,-1.9696,-1.9004,-1.7963,-1.7963,-1.7404,-1.6379,-1.6379,-1.6936,-1.7963,-1.6842,-1.6936,-1.7863,-1.6662,-1.6109,-1.6109,-1.5927,-1.5832,-1.5832,-1.5832,-1.5832,-1.5832,-2.052,-2.121,-2.109,-1.9311,-1.8934,-1.8176,-1.6313,-1.5919,-1.5832,-1.5832,-1.749,-1.8411,-1.7777,-2.0404,-2.2106,-2.1663,-2.2517,-2.2751,-2.1834,-2.169,-2.1318,-2.0672,-1.932,-1.8226,-1.7483,-1.7483,-1.7483,-1.7483,-1.8856,-1.9761,-2.0395,-2.1667,-2.2589,-2.3135,-2.3135,-2.3135,-2.3135,-2.3135,-2.3135,-2.3135,-2.3135,-2.3135,-2.3135,-2.3135,-2.3135,-2.3135,-2.3135,-2.3135,-2.3135,-2.3135,-2.2988,-2.2803,-2.2803,-2.251,-2.2129,-2.1894,-2.2012,-2.2217,-2.2187,-2.2344,-2.251,-2.2471,-2.2314,-2.2178,-2.2178,-2.2178,-2.2236,-2.2471,-2.251,-2.2646,-2.3057,-2.3135,-2.2862,-2.2217,-2.2677,0.0,0.0,-2.0935,-2.1025,-2.0395,-1.9852,-1.9761,-2.0305,-1.8772,-1.7956,-1.8503,-1.7404,-1.6936,-1.7483,-1.7483,-1.7483,-1.7483,-1.8133,-1.8218,-1.7475,-1.7483,-1.721,-1.6669,-1.6669,-1.6386,-1.5832,-1.5832,-1.6103,-1.6662,-1.6015,-1.6109,-1.6669,-1.6015,-1.5832,-1.5832,-1.5832,-1.5832,-1.5832,-1.5832,-1.5832,-1.5832,-2.1658,-2.2217,-2.2041,-1.9852,-1.9314,-1.8311,-1.6103,-1.5832,-1.5927,-1.6197,-1.8126,-1.9222,-1.8596,-2.123,-2.2775,-2.1756,-2.2589,-2.2589,-2.1382,-2.1025,-2.0305,-1.9131,-1.7956,-1.6756,-1.5825,-1.5832,-1.5832,-1.5832,-1.8033,-1.9222,-1.9588,-2.1676,-2.2862,-2.3135,-2.3135,-2.3135,-2.3135,-2.3135,-2.3135,-2.3135,-2.3135,-2.3135,-2.3135,-2.3135,-2.3135,-2.3135,-2.3135,-2.3135,-2.3135,-2.3135,-2.2861,-2.251,-2.251,-2.2158,-2.167,-2.1338,-2.1699,-2.2148,-2.1826,-2.1973,-2.2158,-2.1943,-2.1632,-2.1491,-2.1783,-2.1709,-2.1649,-2.1978,-2.2064,-2.2188,-2.26,-2.2677,-2.2492,-2.1845,0.0,0.0,0.0,-2.0486,-2.0576,-1.9579,-1.9222,-1.9039,-1.9039,-1.7956,-1.7225,-1.7225,-1.6386,-1.5832,-1.5832,-1.5832,-1.5832,-1.5832,-1.6763,-1.6756,-1.5832,-1.5832,-1.5832,-1.5832,-1.5832,-1.5832,-1.5832,-1.5832,-1.5832,-1.5832,-1.5832,-1.5832,-1.5832,-1.5832,-1.5832,-1.5832,-1.5832,-1.5832,-1.5832,-1.5832,-1.5832,-1.5832,-2.2775,-2.2129,-2.1025,-1.9761,-1.8596,-1.7404,-1.6015,-1.5832,-1.6197,-1.7412,-1.868,-1.9852,-2.0935,-2.2306,-2.3047,-2.296,-2.3047,-2.2589,-2.1382,-2.0215,-1.9131,-1.787,-1.6662,-1.592,-1.5832,-1.5832,-1.5832,-1.5832,-1.7131,-1.8411,-1.9497,-2.0845,-2.2031,-2.3135,-2.3135,-2.3135,-2.3135,-2.3135,-2.3135,-2.3135,-2.3135,-2.3135,-2.3135,-2.3135,-2.3135,-2.3135,-2.3135,-2.3135,-2.3135,-2.3135,-2.2861,-2.251,-2.251,-2.1943,-2.1279,-2.125,-2.1279,-2.1318,-2.1289,-2.1309,-2.1416,-2.1787,-2.0806,-2.0099,-2.153,-2.1089,-2.0407,-2.0721,-2.0802,-2.0929,-2.1318,-2.1382,-2.1756,-2.2775,0.0,0.0,-2.1203,-2.0305,-1.9579,-1.9488,-1.8503,-1.787,-1.787,-1.6662,-1.592,-1.592,-1.5825,-1.5832,-1.5832,-1.5832,-1.5832,-1.5832,-1.592,-1.592,-1.5832,-1.5832,-1.5832,-1.5832,-1.5832,-1.5832,-1.5832,-1.5832,-1.5832,-1.5832,-1.5832,-1.5832,-1.5832,-1.5832,-1.5832,-1.5832,-1.5832,-1.5832,-1.5832,-1.5832,-1.5832,-1.5832,-2.1845,-2.1569,-2.0935,-1.967,-1.8503,-1.7225,-1.6015,-1.5832,-1.6298,-1.7505,-1.8772,-1.9943,-2.1203,-2.2403,-2.3135,-2.3135,-2.3135,-2.2227,-2.0305,-1.9761,-1.858,-1.6574,-1.6015,-1.5745,-1.5565,-1.6181,-1.6451,-1.6259,-1.8506,-1.9783,-2.0324,-2.1734,-2.2677,-2.3135,-2.3135,-2.3135,-2.3135,-2.3135,-2.3135,-2.3135,-2.3135,-2.2988,-2.2754,-2.2754,-2.2588,-2.2363,-2.2363,-2.2363,-2.2363,-2.2363,-2.208,-2.1719,-2.1719,-2.1309,-2.082,-2.082,-2.082,-2.082,-2.082,-2.1025,-2.1211,-2.1094,-2.069,-2.0356,-2.0946,-2.0938,-2.0907,-2.1324,-2.0874,-2.0549,-2.0947,-2.0289,-1.9783,-2.0226,0.0,-1.9686,-1.8864,-1.8537,-1.8133,-1.7296,-1.685,-1.648,-1.648,-1.6109,-1.5832,-1.5832,-1.5832,-1.5832,-1.5832,-1.5832,-1.5832,-1.5832,-1.5832,-1.5832,-1.5832,-1.5832,-1.5832,-1.5832,-1.5832,-1.5832,-1.5832,-1.5832,-1.5832,-1.5832,-1.5832,-1.5832,-1.5832,-1.5832,-1.5832,-1.5832,-1.5832,-1.5832,-1.5832,-1.5832,-1.5832,-1.5832,-2.1293,-2.1293,-2.1025,-2.0215,-1.9047,-1.7863,-1.6567,-1.6386,-1.6669,-1.7598,-1.8772,-1.9943,-2.1203,-2.2403,-2.3135,-2.3135,-2.3135,-2.2227,-2.0215,-1.967,-1.858,-1.648,-1.6386,-1.6427,-1.6471,-1.7168,-1.7443,-1.7113,-1.935,-2.044,-2.0535,-2.2111,-2.2939,-2.2949,-2.3076,-2.3135,-2.3135,-2.3135,-2.3066,-2.2939,-2.2939,-2.2685,-2.2314,-2.2314,-2.2139,-2.1885,-2.1885,-2.1885,-2.1885,-2.1885,-2.1592,-2.123,-2.123,-2.068,-2.0001,-1.9678,-1.959,-1.959,-1.959,-2.0052,-2.0541,-2.0557,-2.0323,-2.0117,-2.0241,-2.0259,-2.0172,-2.0318,-1.9697,-1.9247,-1.9505,-1.8746,-1.8156,-1.8501,-1.8447,-1.8112,-1.7319,-1.7103,-1.6649,-1.5913,-1.5832,-1.5832,-1.5832,-1.5832,-1.5832,-1.5832,-1.5832,-1.5832,-1.5832,-1.5832,-1.5832,-1.5832,-1.5832,-1.5832,-1.5832,-1.5832,-1.5832,-1.5832,-1.5832,-1.5832,-1.5832,-1.5832,-1.5832,-1.5832,-1.5832,-1.5832,-1.5832,-1.5832,-1.5832,-1.5832,-1.5832,-1.5832,-1.5832,-1.5832,-1.5832,-1.5832,-2.1293,-2.1293,-2.1293,-2.1293,-2.0305,-1.9131,-1.787,-1.7684,-1.7692,-1.7692,-1.8772,-1.9943,-2.1203,-2.2403,-2.3135,-2.3135,-2.3135,-2.2589,-2.1382,-2.0215,-1.8948,-1.7777,-1.7684,-1.8064,-1.8774,-1.8758,-1.8586,-1.8235,-1.9434,-2.0027,-2.0036,-2.1684,-2.251,-2.2519,-2.2939,-2.3125,-2.3125,-2.3125,-2.2891,-2.251,-2.251,-2.2256,-2.1875,-2.1875,-2.1875,-2.1875,-2.1875,-2.1875,-2.1875,-2.1875,-2.1592,-2.123,-2.115,-2.0184,-1.8798,-1.7658,-1.7342,-1.7342,-1.7334,-1.8149,-1.9283,-2.0323,-1.9756,-1.9145,-1.9525,-1.8794,-1.7809,-1.6949,-1.6843,-1.6755,-1.6755,-1.6755,-1.7185,-1.8399,-1.7541,-1.6868,-1.7101,-1.619,-1.5504,-1.5792,-1.5825,-1.5825,-1.5832,-1.5832,-1.5832,-1.5832,-1.5832,-1.5832,-1.5832,-1.5832,-1.5832,-1.5832,-1.5832,-1.5832,-1.5832,-1.5832,-1.5832,-1.5832,-1.5832,-1.5832,-1.5832,-1.5832,-1.5832,-1.5832,-1.5832,-1.5832,-1.5832,-1.5832,-1.5832,-1.5832,-1.5832,-1.5832,-1.5832,-1.5832,-1.5832,-1.5832,-1.9554,-1.9945,-2.0305,-2.1114,-2.0305,-1.9405,-1.9039,-1.8956,-1.9314,-2.0124,-2.0576,-2.1212,-2.2403,-2.2862,-2.3018,-2.2725,-2.2969,-2.2589,-2.1382,-1.9877,-1.9287,-1.9741,-1.9036,-1.8515,-1.8493,-1.9007,-1.9108,-1.8731,-2.0179,-2.0828,-2.0838,-2.169,-2.207,-2.208,-2.2207,-2.2266,-2.2266,-2.2266,-2.2187,-2.207,-2.207,-2.1816,-2.1426,-2.1426,-2.123,-2.0957,-2.0957,-2.0957,-2.0957,-2.0957,-2.0869,-2.0683,-1.9874,-1.9375,-1.8798,-1.7658,-1.7342,-1.7504,-1.831,-1.8718,-1.9116,-1.9362,-1.9766,-2.0117,-2.0241,-1.9668,-1.9076,-1.884,-1.7512,-1.641,-1.641,-1.5562,-1.5014,-1.534,-1.5275,-1.5182,-1.5272,-1.5218,-1.5204,-1.5491,-1.5524,-1.5605,-1.5812,-1.5832,-1.5832,-1.5832,-1.5832,-1.5832,-1.5832,-1.5832,-1.5832,-1.5832,-1.5832,-1.5832,-1.5832,-1.5832,-1.5832,-1.5832,-1.5832,-1.5832,-1.5832,-1.5832,-1.5832,-1.5832,-1.5832,-1.5832,-1.5832,-1.5832,-1.5832,-1.5832,-1.5832,-1.5832,-1.5832,-1.5832,-1.5832,-1.5832,-1.834,-1.9076,-1.9852,-2.1114,-2.0666,-2.0215,-2.0215,-2.0215,-2.0305,-2.0576,-2.1025,-2.1569,-2.2306,-2.263,-2.2852,-2.2764,-2.2842,-2.2457,-2.1565,-2.0625,-2.0404,-2.1107,-2.0269,-1.9724,-1.9486,-1.9925,-1.9928,-1.9599,-2.0514,-2.0967,-2.0977,-2.1426,-2.1621,-2.1641,-2.1807,-2.1885,-2.1885,-2.1885,-2.1787,-2.1621,-2.1621,-2.1367,-2.0967,-2.0967,-2.0801,-2.0566,-2.0566,-2.0566,-2.0566,-2.0566,-2.0566,-2.0323,-1.8789,-1.831,-1.8069,-1.6527,-1.6041,-1.6198,-1.6854,-1.7658,-1.831,-1.831,-1.9432,-2.0489,-2.0079,-1.9626,-1.9138,-1.8232,-1.6984,-1.5903,-1.5495,-1.4691,-1.4088,-1.4088,-1.4235,-1.4389,-1.4502,-1.4776,-1.507,-1.5357,-1.5498,-1.5638,-1.5812,-1.5832,-1.5832,-1.5832,-1.5832,-1.5832,-1.5832,-1.5718,-1.5658,-1.5658,-1.5545,-1.5538,-1.5658,-1.5658,-1.5718,-1.5832,-1.5832,-1.5832,-1.5832,-1.5832,-1.5832,-1.5832,-1.5832,-1.5832,-1.5832,-1.5832,-1.5832,-1.5832,-1.5832,-1.5832,-1.5832,-1.5832,-1.5439,-1.5045,-1.7579,-1.8564,-1.9761,-2.0935,-2.1114,-2.1203,-2.1293,-2.1293,-2.0935,-1.9943,-2.0755,-2.148,-2.148,-2.2072,-2.2705,-2.3057,-2.2705,-2.2305,-2.1963,-2.1865,-2.1826,-2.1826,-2.1406,-2.1172,-2.1172,-2.1172,-2.0977,-2.0566,-2.0566,-2.0566,-2.0576,-2.0986,-2.1172,-2.1191,-2.1592,-2.1768,-2.1768,-2.1768,-2.1543,-2.1172,-2.1172,-2.0928,-2.0566,-2.0566,-2.0566,-2.0566,-2.0566,-2.0566,-2.0566,-2.0566,-2.0566,-2.0235,-1.8149,-1.7415,-1.6935,-1.4817,-1.4166,-1.4088,-1.425,-1.5636,-1.7172,-1.7261,-1.8789,-2.0079,-1.9362,-1.8957,-1.831,-1.6273,-1.5703,-1.5296,-1.425,-1.4088,-1.4088,-1.4088,-1.4088,-1.4188,-1.4482,-1.475,-1.5044,-1.5357,-1.5631,-1.5798,-1.5825,-1.5832,-1.5832,-1.5832,-1.5832,-1.5818,-1.5792,-1.5538,-1.5384,-1.5357,-1.5104,-1.5104,-1.5391,-1.5398,-1.5538,-1.5832,-1.5832,-1.5832,-1.5832,-1.5832,-1.5832,-1.5832,-1.5832,-1.5832,-1.5832,-1.5832,-1.5832,-1.5825,-1.5635,-1.5635,-1.5635,-1.554,-1.4752,-1.368,-1.7084,-1.7766,-1.8503,-1.967,-1.9852,-2.0215,-2.1203,-2.1293,-2.1569,-2.2227,-2.2589,-2.2677,-2.2677,-2.2872,-2.291,-2.2666,-2.2266,-2.2129,-2.2363,-2.1748,-2.1377,-2.1377,-2.0947,-2.0713,-2.0713,-2.0713,-2.0664,-2.0566,-2.0566,-2.0566,-2.0566,-2.0664,-2.0713,-2.0713,-2.081,-2.085,-2.085,-2.085,-2.0801,-2.0713,-2.0713,-2.0654,-2.0566,-2.0566,-2.0566,-2.0566,-2.0566,-2.0566,-2.0566,-2.0566,-2.0566,-2.0401,-1.9036,-1.7989,-1.7017,-1.5703,-1.4734,-1.425,-1.5137,-1.5703,-1.6273,-1.709,-1.7666,-1.8381,-1.9923,-1.8948,-1.7496,-1.7009,-1.5636,-1.4412,-1.4173,-1.4088,-1.4088,-1.4088,-1.4088,-1.4188,-1.4482,-1.4576,-1.481,-1.5337,-1.5451,-1.5578,-1.5805,-1.5832,-1.5832,-1.5832,-1.5832,-1.5732,-1.5504,-1.5431,-1.5291,-1.5064,-1.4997,-1.5104,-1.5391,-1.5398,-1.5538,-1.5832,-1.5832,-1.5832,-1.5832,-1.5832,-1.5832,-1.5832,-1.5832,-1.5832,-1.5832,-1.5832,-1.5832,-1.573,-1.4657,-1.4268,-1.4166,-1.3108,-1.2528,-1.2334,-1.638,-1.6635,-1.7397,-1.9222,-1.9497,-2.0124,-2.1854,-2.2129,-2.2403,-2.3047,-2.3135,-2.3135,-2.3135,-2.2959,-2.2676,-2.2246,-2.2197,-2.2109,-2.1914,-2.1484,-2.1143,-2.0918,-2.0684,-2.0566,-2.0566,-2.0566,-2.0566,-2.0566,-2.0566,-2.0566,-2.0566,-2.0566,-2.0566,-2.0566,-2.0566,-2.0566,-2.0566,-2.0566,-2.0566,-2.0566,-2.0566,-2.0566,-2.0566,-2.0566,-2.0566,-2.0566,-2.0566,-2.0566,-2.0566,-2.0566,-2.0566,-2.0401,-1.9362,-1.855,-1.7819,-1.6191,-1.5296,-1.4894,-1.4894,-1.5296,-1.5861,-1.6437,-1.6927,-1.7577,-1.8789,-1.8141,-1.7172,-1.6601,-1.5628,-1.4734,-1.4166,-1.4088,-1.4088,-1.4088,-1.4088,-1.4188,-1.4482,-1.4643,-1.4897,-1.5344,-1.5518,-1.5665,-1.5812,-1.5578,-1.5471,-1.5611,-1.5491,-1.5351,-1.5197,-1.5057,-1.491,-1.4756,-1.4623,-1.4683,-1.4977,-1.5124,-1.5337,-1.5625,-1.5765,-1.5832,-1.5832,-1.5832,-1.5832,-1.5832,-1.5832,-1.5832,-1.573,-1.514,-1.5242,-1.5635,-1.3686,-1.3295,-1.3782,-1.2431,-1.1556,-1.0877,-1.6425,-1.6473,-1.7117,-1.9123,-1.9497,-2.0223,-2.2501,-2.2775,-2.2862,-2.3047,-2.3135,-2.3135,-2.3135,-2.2822,-2.248,-2.2129,-2.2353,-2.2178,-2.1396,-2.1279,-2.1035,-2.0586,-2.0566,-2.0527,-2.0449,-2.0449,-2.0488,-2.0566,-2.0566,-2.0566,-2.0566,-2.0566,-2.0566,-2.0566,-2.0566,-2.0566,-2.0566,-2.0566,-2.0566,-2.0566,-2.0566,-2.0566,-2.0566,-2.0566,-2.0566,-2.0566,-2.0401,-2.0167,-2.0079,-2.0079,-2.0079,-1.9913,-1.8957,-1.855,-1.806,-1.6273,-1.5538,-1.5213,-1.4328,-1.4734,-1.5462,-1.5462,-1.6116,-1.6772,-1.6772,-1.6854,-1.6764,-1.5861,-1.5538,-1.5151,-1.4318,-1.4162,-1.4175,-1.4229,-1.4235,-1.4335,-1.4629,-1.4883,-1.5144,-1.5438,-1.5678,-1.5832,-1.5832,-1.5351,-1.5137,-1.5378,-1.5124,-1.4943,-1.489,-1.4656,-1.4496,-1.4449,-1.4215,-1.4229,-1.4516,-1.4816,-1.511,-1.5398,-1.5691,-1.5832,-1.5832,-1.5832,-1.5832,-1.5832,-1.5832,-1.5635,-1.5439,-1.4364,-1.4364,-1.4854,-1.2528,-1.2231,-1.3102,-1.175,-1.0583,-0.9509,-1.9023,-1.9039,-1.9131,-1.9405,-1.9497,-1.9943,-2.1302,-2.1569,-2.1943,-2.296,-2.3135,-2.3135,-2.3135,-2.3086,-2.3027,-2.2969,-2.2685,-2.2305,-2.1836,-2.1445,-2.1035,-2.0586,-2.0566,-2.0391,-2.001,-2.0,-2.0185,-2.0566,-2.0566,-2.0566,-2.0566,-2.0566,-2.0566,-2.0566,-2.0566,-2.0566,-2.0566,-2.0566,-2.0566,-2.0566,-2.0566,-2.0566,-2.0566,-2.0566,-2.0566,-2.0479,-1.952,-1.855,-1.7738,-1.7738,-1.7738,-1.7738,-1.7585,-1.6927,-1.6108,-1.5779,-1.5054,-1.425,-1.4173,-1.4166,-1.4328,-1.4328,-1.4412,-1.4496,-1.4496,-1.522,-1.5861,-1.5703,-1.4977,-1.4325,-1.4416,-1.4462,-1.4549,-1.4803,-1.485,-1.495,-1.5237,-1.5311,-1.5444,-1.5732,-1.5805,-1.5832,-1.5832,-1.5531,-1.5351,-1.5391,-1.5124,-1.485,-1.4596,-1.4543,-1.4402,-1.4155,-1.4108,-1.4229,-1.4516,-1.4816,-1.511,-1.5398,-1.5691,-1.5832,-1.5832,-1.5832,-1.5832,-1.5832,-1.5832,-1.514,-1.4166,-1.3974,-1.3301,-1.2237,-1.0877,-1.0386,-1.0386,-0.9019,-0.8432,-0.8237,-1.9497,-1.9331,-1.9371,-2.0084,-1.9991,-2.028,-2.1755,-2.1966,-2.2235,-2.3018,-2.3135,-2.3135,-2.3135,-2.3135,-2.3135,-2.3135,-2.2969,-2.2588,-2.1934,-2.1709,-2.1289,-2.0596,-2.0566,-2.0478,-2.0283,-2.0273,-2.0371,-2.0566,-2.0322,-2.0322,-2.0566,-2.0566,-2.0566,-2.0566,-2.0566,-2.0566,-2.0566,-2.0566,-2.0566,-2.0566,-2.0566,-2.0566,-2.0566,-2.0566,-2.0566,-2.0479,-1.9362,-1.8162,-1.7133,-1.7268,-1.7342,-1.7342,-1.7342,-1.7009,-1.6519,-1.5861,-1.5379,-1.4894,-1.425,-1.4088,-1.4088,-1.4088,-1.4088,-1.4088,-1.4088,-1.462,-1.5021,-1.4853,-1.4412,-1.4175,-1.4469,-1.4522,-1.4616,-1.4917,-1.4963,-1.501,-1.5137,-1.5157,-1.5264,-1.5551,-1.5585,-1.5585,-1.5585,-1.5177,-1.4977,-1.5144,-1.473,-1.4489,-1.4516,-1.4362,-1.4222,-1.4088,-1.4088,-1.4148,-1.4282,-1.4736,-1.503,-1.5157,-1.5611,-1.5832,-1.5832,-1.5832,-1.5832,-1.5832,-1.5832,-1.5045,-1.3878,-1.3102,-1.2431,-1.1653,-0.9706,-0.8864,-0.8683,-0.8105,-0.7913,-0.7923]},{"header":{"parameterUnit":"m.s-1","parameterCategory":1,"la1":30.6,"la2":28.766,"lo1":-90.7593,"lo2":-88.6598,"dy":0.0162,"dx":0.0183,"nx":116,"ny":114,"refTime":"2023-08-10T12:00:00:Z","depth":0,"parameterNumber":3,"parameterNumberName":"V-component_of_WINDS"},"data":[0.0,0.0,0.0,0.0,0.0,0.0,0.0,0.0,0.0,0.0,0.0,0.0,0.0,0.0,0.0,0.0,0.0,0.0,0.0,0.0,0.0,0.0,0.0,0.0,0.0,0.0,0.0,0.0,0.0,0.0,0.0,0.0,0.0,0.0,0.0,0.0,0.0,0.0,0.0,0.0,0.0,0.0,0.0,0.0,0.0,0.0,0.0,0.0,0.0,0.0,0.0,0.0,0.0,0.0,0.0,0.0,0.0,0.0,0.0,0.0,0.0,0.0,0.0,0.0,0.0,0.0,0.0,0.0,0.0,0.0,0.0,0.0,0.0,0.0,0.0,0.0,0.0,0.0,0.0,0.0,0.0,0.0,0.0,0.0,0.0,0.0,0.0,0.0,0.0,0.0,0.0,0.0,0.0,0.0,0.0,0.0,0.0,0.0,0.0,0.0,0.0,0.0,0.0,0.0,0.0,0.0,0.0,0.0,0.0,0.0,0.0,0.0,0.0,0.0,0.0,0.0,0.0,0.0,0.0,0.0,0.0,0.0,0.0,0.0,0.0,0.0,0.0,0.0,0.0,0.0,0.0,0.0,0.0,0.0,0.0,0.0,0.0,0.0,0.0,0.0,0.0,0.0,0.0,0.0,0.0,0.0,0.0,0.0,0.0,0.0,0.0,0.0,0.0,0.0,0.0,0.0,0.0,0.0,0.0,0.0,0.0,0.0,0.0,0.0,0.0,0.0,0.0,0.0,0.0,0.0,0.0,0.0,0.0,0.0,0.0,0.0,0.0,0.0,0.0,0.0,0.0,0.0,0.0,0.0,0.0,0.0,0.0,0.0,0.0,0.0,0.0,0.0,0.0,0.0,0.0,0.0,0.0,0.0,0.0,0.0,0.0,0.0,0.0,0.0,0.0,0.0,0.0,0.0,0.0,0.0,0.0,0.0,0.0,0.0,0.0,0.0,0.0,0.0,0.0,0.0,0.0,0.0,0.0,0.0,0.0,0.0,0.0,0.0,0.0,0.0,0.0,0.0,0.0,0.0,0.0,0.0,0.0,0.0,0.0,0.0,0.0,0.0,0.0,0.0,0.0,0.0,0.0,0.0,0.0,0.0,0.0,0.0,0.0,0.0,0.0,0.0,0.0,0.0,0.0,0.0,0.0,0.0,0.0,0.0,0.0,0.0,0.0,0.0,0.0,0.0,0.0,0.0,0.0,0.0,0.0,0.0,0.0,0.0,0.0,0.0,0.0,0.0,0.0,0.0,0.0,0.0,0.0,0.0,0.0,0.0,0.0,0.0,0.0,0.0,0.0,0.0,0.0,0.0,0.0,0.0,0.0,0.0,0.0,0.0,0.0,0.0,0.0,0.0,0.0,0.0,0.0,0.0,0.0,0.0,0.0,0.0,0.0,0.0,0.0,0.0,0.0,0.0,0.0,0.0,0.0,0.0,0.0,0.0,0.0,0.0,0.0,0.0,0.0,0.0,0.0,0.0,0.0,0.0,0.0,0.0,0.0,0.0,0.0,0.0,0.0,0.0,0.0,0.0,0.0,0.0,0.0,0.0,0.0,0.0,0.0,0.0,0.0,0.0,0.0,0.0,0.0,0.0,0.0,0.0,0.0,0.0,0.0,0.0,0.0,0.0,0.0,0.0,0.0,0.0,0.0,0.0,0.0,0.0,0.0,0.0,0.0,0.0,0.0,0.0,0.0,0.0,0.0,0.0,0.0,0.0,0.0,0.0,0.0,0.0,0.0,0.0,0.0,0.0,0.0,0.0,0.0,0.0,0.0,0.0,0.0,0.0,0.0,0.0,0.0,0.0,0.0,0.0,0.0,0.0,0.0,0.0,0.0,0.0,0.0,0.0,0.0,0.0,0.0,0.0,0.0,0.0,0.0,0.0,0.0,0.0,0.0,0.0,0.0,0.0,0.0,0.0,0.0,0.0,0.0,0.0,0.0,0.0,0.0,0.0,0.0,0.0,0.0,0.0,0.0,0.0,0.0,0.0,0.0,0.0,0.0,0.0,0.0,0.0,0.0,0.0,0.0,0.0,0.0,0.0,0.0,0.0,0.0,0.0,0.0,0.0,0.0,0.0,0.0,0.0,0.0,0.0,0.0,0.0,0.0,0.0,0.0,0.0,0.0,0.0,0.0,0.0,0.0,0.0,0.0,0.0,0.0,0.0,0.0,0.0,0.0,0.0,0.0,0.0,0.0,0.0,0.0,0.0,0.0,0.0,0.0,0.0,0.0,0.0,0.0,0.0,0.0,0.0,0.0,0.0,0.0,0.0,0.0,0.0,0.0,0.0,0.0,0.0,0.0,0.0,0.0,0.0,0.0,0.0,0.0,0.0,0.0,0.0,0.0,0.0,0.0,0.0,0.0,0.0,0.0,0.0,0.0,0.0,0.0,0.0,0.0,0.0,0.0,0.0,0.0,0.0,0.0,0.0,0.0,0.0,0.0,0.0,0.0,0.0,0.0,0.0,0.0,0.0,0.0,0.0,0.0,0.0,0.0,0.0,0.0,0.0,0.0,0.0,0.0,0.0,0.0,0.0,0.0,0.0,0.0,0.0,0.0,0.0,0.0,0.0,0.0,0.0,0.0,0.0,0.0,0.0,0.0,0.0,0.0,0.0,0.0,0.0,0.0,0.0,0.0,0.0,0.0,0.0,0.0,0.0,0.0,0.0,0.0,0.0,0.0,0.0,0.0,0.0,0.0,0.0,0.0,0.0,0.0,0.0,0.0,0.0,0.0,0.0,0.0,0.0,0.0,0.0,0.0,0.0,0.0,0.0,0.0,0.0,0.0,0.0,0.0,0.0,0.0,0.0,0.0,0.0,0.0,0.0,0.0,0.0,0.0,0.0,0.0,0.0,0.0,0.0,0.0,0.0,0.0,0.0,0.0,0.0,0.0,0.0,0.0,0.0,0.0,0.0,0.0,0.0,0.0,0.0,0.0,0.0,0.0,0.0,0.0,0.0,0.0,0.0,0.0,0.0,0.0,0.0,0.0,0.0,0.0,0.0,0.0,0.0,0.0,0.0,0.0,0.0,0.0,0.0,0.0,0.0,0.0,0.0,0.0,0.0,0.0,0.0,0.0,0.0,0.0,0.0,0.0,0.0,0.0,0.0,0.0,0.0,0.0,0.0,0.0,0.0,0.0,0.0,0.0,0.0,0.0,0.0,0.0,0.0,0.0,0.0,0.0,0.0,0.0,0.0,0.0,0.0,0.0,0.0,0.0,0.0,0.0,0.0,0.0,0.0,0.0,0.0,0.0,0.0,0.0,0.0,0.0,0.0,0.0,0.0,0.0,0.0,0.0,0.0,0.0,0.0,0.0,0.0,0.0,0.0,0.0,0.0,0.0,0.0,0.0,0.0,0.0,0.0,0.0,0.0,0.0,0.0,0.0,0.0,0.0,0.0,0.0,0.0,0.0,0.0,0.0,0.0,0.0,0.0,0.0,0.0,0.0,0.0,0.0,0.0,0.0,0.0,0.0,0.0,0.0,0.0,0.0,0.0,0.0,0.0,0.0,0.0,0.0,0.0,0.0,0.0,0.0,0.0,0.0,0.0,0.0,0.0,0.0,0.0,0.0,0.0,0.0,0.0,0.0,0.0,0.0,0.0,0.0,0.0,0.0,0.0,0.0,0.0,0.0,0.0,0.0,0.0,0.0,0.0,0.0,0.0,0.0,0.0,0.0,0.0,0.0,0.0,0.0,0.0,0.0,0.0,0.0,0.0,0.0,0.0,0.0,0.0,0.0,0.0,0.0,0.0,0.0,0.0,0.0,0.0,0.0,0.0,0.0,0.0,0.0,0.0,0.0,0.0,0.0,0.0,0.0,0.0,0.0,0.0,0.0,0.0,0.0,0.0,0.0,0.0,0.0,0.0,0.0,0.0,0.0,0.0,0.0,0.0,0.0,0.0,0.0,0.0,0.0,0.0,0.0,0.0,0.0,0.0,0.0,0.0,0.0,0.0,0.0,0.0,0.0,0.0,0.0,0.0,0.0,0.0,0.0,0.0,0.0,0.0,0.0,0.0,0.0,0.0,0.0,0.0,0.0,0.0,0.0,0.0,0.0,0.0,0.0,0.0,0.0,0.0,0.0,0.0,0.0,0.0,0.0,0.0,0.0,0.0,0.0,0.0,0.0,0.0,0.0,0.0,0.0,0.0,0.0,0.0,0.0,0.0,0.0,0.0,0.0,0.0,0.0,0.0,0.0,0.0,0.0,0.0,0.0,0.0,0.0,0.0,0.0,0.0,0.0,0.0,0.0,0.0,0.0,0.0,0.0,0.0,0.0,0.0,0.0,0.0,0.0,0.0,0.0,0.0,0.0,0.0,0.0,0.0,0.0,0.0,0.0,0.0,0.0,0.0,0.0,0.0,0.0,0.0,0.0,0.0,0.0,0.0,0.0,0.0,0.0,0.0,0.0,0.0,0.0,0.0,0.0,0.0,0.0,0.0,0.0,0.0,0.0,0.0,0.0,0.0,0.0,0.0,0.0,0.0,0.0,0.0,0.0,0.0,0.0,0.0,0.0,0.0,0.0,0.0,0.0,0.0,0.0,0.0,0.0,0.0,0.0,0.0,0.0,0.0,0.0,0.0,0.0,0.0,0.0,0.0,0.0,0.0,0.0,0.0,0.0,0.0,0.0,0.0,0.0,0.0,0.0,0.0,0.0,0.0,0.0,0.0,0.0,0.0,0.0,0.0,0.0,0.0,0.0,0.0,0.0,0.0,0.0,0.0,0.0,0.0,0.0,0.0,0.0,0.0,0.0,0.0,0.0,0.0,0.0,0.0,0.0,0.0,0.0,0.0,0.0,0.0,0.0,0.0,0.0,0.0,0.0,0.0,0.0,0.0,0.0,0.0,0.0,0.0,0.0,0.0,0.0,0.0,0.0,0.0,0.0,0.0,0.0,0.0,0.0,0.0,0.0,0.0,0.0,0.0,0.0,0.0,0.0,0.0,0.0,0.0,0.0,0.0,0.0,0.0,0.0,0.0,0.0,0.0,0.0,0.0,0.0,0.0,0.0,0.0,0.0,0.0,0.0,0.0,0.0,0.0,0.0,0.0,0.0,0.0,0.0,0.0,0.0,0.0,0.0,0.0,0.0,0.0,0.0,0.0,0.0,0.0,0.0,0.0,0.0,0.0,0.0,0.0,0.0,0.0,0.0,0.0,0.0,0.0,0.0,0.0,0.0,0.0,0.0,0.0,0.0,0.0,0.0,0.0,0.0,0.0,0.0,0.0,0.0,0.0,0.0,0.0,0.0,0.0,0.0,0.0,0.0,0.0,0.0,0.0,0.0,0.0,0.0,0.0,0.0,0.0,0.0,0.0,0.0,0.0,0.0,0.0,0.0,0.0,0.0,0.0,0.0,0.0,0.0,0.0,0.0,0.0,0.0,0.0,0.0,0.0,0.0,0.0,0.0,0.0,0.0,0.0,0.0,0.0,0.0,0.0,0.0,0.0,0.0,0.0,0.0,0.0,0.0,0.0,0.0,0.0,0.0,0.0,0.0,0.0,0.0,0.0,0.0,0.0,0.0,0.0,0.0,0.0,0.0,0.0,0.0,0.0,0.0,0.0,0.0,0.0,0.0,0.0,0.0,0.0,0.0,0.0,0.0,0.0,0.0,0.0,0.0,0.0,0.0,0.0,0.0,0.0,0.0,0.0,0.0,0.0,0.0,0.0,0.0,0.0,0.0,0.0,0.0,0.0,0.0,0.0,0.0,0.0,0.0,0.0,0.0,0.0,0.0,0.0,0.0,0.0,0.0,0.0,0.0,0.0,0.0,0.0,0.0,0.0,0.0,0.0,0.0,0.0,0.0,0.0,0.0,0.0,0.0,0.0,0.0,0.0,0.0,0.0,0.0,0.0,0.0,0.0,0.0,0.0,0.0,0.0,0.0,0.0,0.0,0.0,0.0,0.0,0.0,0.0,0.0,0.0,0.0,0.0,0.0,0.0,0.0,0.0,0.0,0.0,0.0,0.0,0.0,0.0,0.0,0.0,0.0,0.0,0.0,0.0,0.0,0.0,0.0,0.0,0.0,0.0,0.0,0.0,0.0,0.0,0.0,0.0,0.0,0.0,0.0,0.0,0.0,0.0,-2.8215,0.0,0.0,0.0,0.0,0.0,0.0,0.0,0.0,0.0,0.0,0.0,0.0,0.0,0.0,0.0,0.0,0.0,0.0,0.0,0.0,0.0,0.0,0.0,0.0,0.0,0.0,0.0,0.0,0.0,0.0,0.0,0.0,0.0,0.0,0.0,0.0,0.0,0.0,0.0,0.0,0.0,0.0,0.0,0.0,0.0,0.0,0.0,0.0,0.0,0.0,0.0,0.0,0.0,0.0,0.0,0.0,0.0,0.0,0.0,0.0,0.0,0.0,0.0,0.0,0.0,0.0,0.0,0.0,0.0,0.0,0.0,0.0,0.0,0.0,0.0,0.0,0.0,0.0,0.0,0.0,0.0,0.0,0.0,0.0,0.0,0.0,0.0,0.0,0.0,0.0,0.0,0.0,0.0,0.0,0.0,0.0,0.0,0.0,0.0,0.0,0.0,0.0,0.0,0.0,0.0,0.0,0.0,0.0,0.0,0.0,0.0,0.0,0.0,0.0,0.0,0.0,-2.8534,0.0,0.0,0.0,0.0,0.0,0.0,0.0,0.0,0.0,0.0,0.0,0.0,0.0,0.0,0.0,0.0,0.0,0.0,0.0,0.0,0.0,0.0,0.0,0.0,0.0,0.0,0.0,0.0,0.0,0.0,0.0,0.0,0.0,0.0,0.0,0.0,0.0,0.0,0.0,0.0,0.0,0.0,0.0,0.0,0.0,0.0,0.0,0.0,0.0,0.0,0.0,0.0,0.0,0.0,0.0,0.0,0.0,0.0,0.0,0.0,0.0,0.0,0.0,0.0,0.0,0.0,0.0,0.0,0.0,0.0,0.0,0.0,0.0,0.0,0.0,0.0,0.0,0.0,0.0,0.0,0.0,0.0,0.0,0.0,0.0,0.0,0.0,0.0,0.0,0.0,0.0,0.0,0.0,0.0,0.0,0.0,0.0,0.0,0.0,0.0,0.0,0.0,0.0,0.0,0.0,0.0,0.0,0.0,-3.1491,-3.1855,-3.1543,-3.2225,-3.2116,-3.1372,-3.0256,-2.9724,-2.97,0.0,0.0,0.0,0.0,0.0,0.0,0.0,0.0,0.0,0.0,0.0,0.0,0.0,0.0,0.0,0.0,0.0,0.0,0.0,0.0,0.0,0.0,0.0,0.0,0.0,0.0,0.0,0.0,0.0,0.0,0.0,0.0,0.0,0.0,0.0,0.0,0.0,0.0,0.0,-1.1911,-1.3292,-1.4772,-1.6454,0.0,0.0,0.0,0.0,0.0,0.0,0.0,0.0,0.0,0.0,0.0,0.0,0.0,0.0,0.0,0.0,0.0,0.0,0.0,0.0,0.0,0.0,0.0,0.0,0.0,0.0,0.0,0.0,0.0,0.0,0.0,0.0,0.0,0.0,0.0,0.0,0.0,0.0,0.0,0.0,0.0,0.0,0.0,0.0,-3.6406,-3.5002,0.0,0.0,0.0,0.0,0.0,0.0,0.0,0.0,0.0,0.0,0.0,0.0,0.0,0.0,-3.0644,-3.1918,-3.2438,-3.2428,-3.3688,-3.4081,-3.3732,-3.3796,-3.3775,-3.3671,-3.3506,0.0,-3.0171,-3.009,0.0,0.0,0.0,0.0,0.0,0.0,0.0,0.0,0.0,0.0,0.0,0.0,0.0,0.0,0.0,0.0,0.0,0.0,0.0,0.0,0.0,0.0,0.0,0.0,0.0,0.0,0.0,0.0,0.0,0.0,0.0,0.0,0.0,0.0,0.0,0.0,0.0,-1.2932,-0.9427,-1.0871,-1.2167,-1.3584,-1.7919,-2.1186,-2.3437,-2.6378,0.0,0.0,0.0,0.0,0.0,0.0,0.0,0.0,0.0,0.0,0.0,0.0,0.0,0.0,0.0,0.0,0.0,0.0,0.0,0.0,0.0,0.0,0.0,0.0,0.0,0.0,0.0,0.0,0.0,0.0,0.0,0.0,0.0,0.0,0.0,0.0,0.0,0.0,0.0,-3.7125,-3.4582,-3.0528,-2.9828,-2.8556,0.0,0.0,0.0,0.0,0.0,0.0,0.0,0.0,0.0,-3.0276,-3.1021,-3.193,-3.2983,-3.3841,-3.4532,-3.5063,-3.5539,-3.568,-3.5613,-3.5624,-3.5132,-3.4388,-3.4498,-3.3501,-3.2001,-3.1539,-3.1299,-3.1136,0.0,0.0,0.0,0.0,0.0,-3.6107,0.0,0.0,0.0,0.0,0.0,0.0,0.0,0.0,0.0,0.0,0.0,0.0,0.0,0.0,0.0,0.0,0.0,0.0,0.0,0.0,0.0,0.0,0.0,0.0,0.0,0.0,0.0,0.0,0.0,0.0,-0.8699,0.0,0.0,0.0,0.0,-1.9136,-2.2381,-2.4753,-2.7195,0.0,0.0,0.0,0.0,0.0,0.0,0.0,0.0,0.0,0.0,0.0,0.0,0.0,0.0,0.0,0.0,0.0,0.0,0.0,0.0,0.0,0.0,0.0,0.0,0.0,0.0,0.0,0.0,0.0,0.0,0.0,0.0,0.0,0.0,0.0,0.0,0.0,0.0,-3.6143,-3.3406,-2.7561,-2.8631,-2.8223,0.0,0.0,0.0,0.0,0.0,0.0,-2.9351,-3.011,-3.1113,-3.2445,-3.3404,-3.4252,-3.5316,-3.572,-3.6147,-3.6867,-3.6809,-3.6722,-3.6737,-3.6415,-3.584,-3.491,-3.4681,-3.4289,-3.3509,-3.263,-3.2215,-3.1898,-3.1147,-3.1892,-3.365,-3.4426,-3.5481,-3.6736,0.0,0.0,0.0,0.0,0.0,0.0,0.0,0.0,0.0,0.0,0.0,0.0,0.0,0.0,0.0,0.0,0.0,0.0,0.0,0.0,0.0,0.0,0.0,0.0,0.0,0.0,0.0,0.0,0.0,0.0,0.0,0.0,0.0,0.0,0.0,0.0,0.0,0.0,0.0,0.0,0.0,0.0,0.0,0.0,0.0,0.0,0.0,0.0,0.0,0.0,0.0,0.0,0.0,0.0,0.0,0.0,0.0,0.0,0.0,0.0,0.0,0.0,0.0,0.0,0.0,0.0,0.0,0.0,0.0,0.0,0.0,0.0,0.0,0.0,0.0,0.0,0.0,0.0,0.0,-2.9353,-2.9673,0.0,0.0,0.0,0.0,-2.9388,-2.9584,-3.0276,-3.1919,-3.2758,-3.3781,-3.522,-3.5996,-3.6747,-3.7129,-3.7236,-3.7276,-3.7286,-3.6821,-3.6722,-3.6737,-3.584,-3.5471,-3.5384,-3.4953,-3.4425,-3.4043,-3.3126,-3.2248,-3.1513,-3.1015,-3.1287,-3.1867,-3.3354,-3.5109,-3.68,0.0,0.0,0.0,0.0,0.0,0.0,0.0,0.0,0.0,0.0,0.0,0.0,0.0,0.0,0.0,0.0,0.0,0.0,0.0,0.0,0.0,0.0,0.0,0.0,0.0,0.0,0.0,0.0,0.0,0.0,0.0,0.0,0.0,0.0,0.0,0.0,0.0,0.0,0.0,0.0,0.0,0.0,0.0,0.0,0.0,0.0,0.0,0.0,0.0,0.0,0.0,0.0,0.0,0.0,0.0,0.0,0.0,0.0,0.0,0.0,0.0,0.0,0.0,0.0,0.0,0.0,0.0,0.0,0.0,0.0,0.0,0.0,0.0,0.0,0.0,0.0,0.0,0.0,0.0,-2.9432,-3.0645,0.0,-2.7713,-2.9489,-3.0791,-3.082,-3.1899,-3.2871,-3.3747,-3.438,-3.5144,-3.6152,-3.6533,-3.7074,-3.7666,-3.748,-3.741,-3.7613,-3.7071,-3.6601,-3.621,-3.5665,-3.5065,-3.4505,-3.4044,-3.3613,-3.3223,-3.2669,-3.226,-3.1939,-3.177,-3.2054,-3.2685,-3.4218,-3.5845,-3.7367,0.0,0.0,0.0,0.0,0.0,0.0,0.0,0.0,0.0,0.0,0.0,0.0,0.0,0.0,0.0,0.0,0.0,0.0,0.0,0.0,0.0,0.0,0.0,0.0,0.0,0.0,0.0,0.0,0.0,0.0,0.0,0.0,0.0,0.0,0.0,0.0,0.0,0.0,0.0,0.0,0.0,0.0,-3.6473,0.0,0.0,0.0,0.0,0.0,0.0,0.0,0.0,0.0,0.0,0.0,0.0,0.0,0.0,0.0,0.0,0.0,0.0,0.0,0.0,0.0,0.0,0.0,0.0,0.0,0.0,0.0,0.0,0.0,0.0,0.0,0.0,0.0,0.0,0.0,-3.3966,-2.9391,-3.1533,-3.2248,-2.9314,-3.155,-3.3135,-3.2851,-3.4064,-3.4831,-3.5054,-3.5571,-3.6082,-3.6707,-3.6903,-3.7207,-3.7623,-3.741,-3.7335,-3.7504,-3.6759,-3.621,-3.5811,-3.5237,-3.4681,-3.41,-3.3437,-3.3096,-3.2711,-3.2423,-3.2066,-3.1907,-3.1978,-3.2173,-3.2644,-3.4515,-3.5945,-3.7002,0.0,0.0,0.0,0.0,0.0,0.0,0.0,0.0,0.0,0.0,0.0,0.0,0.0,0.0,0.0,0.0,0.0,0.0,0.0,0.0,0.0,0.0,0.0,0.0,0.0,0.0,0.0,0.0,0.0,0.0,0.0,0.0,0.0,0.0,0.0,0.0,0.0,0.0,0.0,0.0,0.0,0.0,-3.6489,0.0,0.0,0.0,0.0,0.0,0.0,0.0,0.0,0.0,0.0,0.0,0.0,0.0,0.0,0.0,0.0,0.0,0.0,0.0,0.0,0.0,0.0,0.0,0.0,0.0,0.0,0.0,0.0,0.0,0.0,0.0,0.0,0.0,-3.4542,-3.4051,-3.2691,-2.9411,-3.2363,-3.3666,-3.0742,-3.3484,-3.541,-3.541,-3.5791,-3.6016,-3.6016,-3.6396,-3.6737,-3.6737,-3.7064,-3.7315,-3.7315,-3.7276,-3.7026,-3.6668,-3.6181,-3.5802,-3.5336,-3.4516,-3.409,-3.3954,-3.3097,-3.2785,-3.2768,-3.2286,-3.1826,-3.1533,-3.1515,-3.126,-3.1218,-3.4191,-3.5398,-3.5734,0.0,0.0,0.0,0.0,0.0,0.0,0.0,0.0,0.0,0.0,0.0,0.0,0.0,0.0,0.0,0.0,0.0,0.0,0.0,0.0,0.0,0.0,0.0,0.0,0.0,0.0,0.0,0.0,0.0,0.0,0.0,0.0,0.0,0.0,0.0,0.0,0.0,0.0,0.0,0.0,0.0,0.0,-3.5895,0.0,0.0,0.0,0.0,0.0,0.0,0.0,0.0,0.0,0.0,0.0,0.0,0.0,0.0,0.0,0.0,0.0,0.0,0.0,0.0,0.0,0.0,0.0,0.0,0.0,0.0,0.0,0.0,0.0,0.0,0.0,0.0,-3.5479,-3.5325,-3.4863,-3.417,-3.3237,-3.4336,-3.4994,-3.4412,-3.522,-3.585,-3.585,-3.5957,-3.6016,-3.6016,-3.6191,-3.6376,-3.6737,-3.6838,-3.6897,-3.6897,-3.6549,-3.6183,-3.5729,-3.5247,-3.4662,-3.3953,-3.3662,-3.3262,-3.2738,-3.21,-3.1825,-3.1786,-3.1097,-3.0908,-3.1084,-3.1367,-3.126,-3.1218,-3.4191,-3.6375,-3.7873,0.0,0.0,0.0,0.0,0.0,0.0,0.0,0.0,0.0,0.0,0.0,0.0,0.0,0.0,0.0,0.0,0.0,0.0,0.0,0.0,0.0,0.0,0.0,0.0,0.0,0.0,0.0,0.0,0.0,0.0,0.0,0.0,0.0,0.0,0.0,0.0,0.0,0.0,0.0,0.0,0.0,0.0,-3.6747,-3.8471,-4.0018,-4.135,-4.1831,-4.2589,-4.3403,-4.355,0.0,0.0,0.0,0.0,0.0,0.0,0.0,0.0,0.0,0.0,0.0,0.0,0.0,0.0,0.0,0.0,0.0,0.0,0.0,0.0,0.0,0.0,0.0,0.0,-3.4675,-3.4804,-3.4838,-3.437,-3.4037,-3.4436,-3.4834,-3.5205,-3.5439,-3.6276,-3.6693,-3.6535,-3.6602,-3.6602,-3.6425,-3.584,-3.5646,-3.585,-3.585,-3.5857,-3.5838,-3.5645,-3.5295,-3.4815,-3.4434,-3.3743,-3.3091,-3.3005,-3.2676,0.0,-3.1709,-3.1488,-3.1463,-3.0784,-3.0571,0.0,0.0,0.0,0.0,0.0,-3.6496,-3.8379,0.0,0.0,0.0,0.0,0.0,0.0,0.0,0.0,0.0,0.0,0.0,0.0,0.0,0.0,0.0,0.0,0.0,0.0,0.0,0.0,0.0,0.0,0.0,0.0,0.0,0.0,0.0,0.0,0.0,0.0,0.0,0.0,0.0,0.0,0.0,0.0,0.0,0.0,0.0,0.0,0.0,0.0,-3.8131,-3.9041,-3.9999,-4.0971,-4.1995,-4.2814,-4.3457,-4.3732,0.0,0.0,0.0,0.0,0.0,0.0,0.0,0.0,0.0,0.0,0.0,0.0,0.0,0.0,0.0,0.0,0.0,0.0,0.0,0.0,0.0,0.0,0.0,0.0,-3.4835,-3.469,-3.3745,-3.3173,-3.3213,-3.3809,-3.4377,-3.4733,-3.4733,-3.665,-3.767,-3.7186,-3.7375,-3.74,-3.6889,0.0,0.0,0.0,0.0,-3.4561,-3.4503,-3.4438,-3.4293,-3.3942,-3.3456,-3.3056,-3.2599,-3.2322,-3.2129,-3.2003,-3.1659,-3.1366,-3.1347,-3.0927,-3.0535,-3.028,-3.0295,-3.0705,-3.1461,-3.3693,-3.5895,0.0,0.0,0.0,0.0,0.0,0.0,0.0,0.0,0.0,0.0,0.0,0.0,0.0,0.0,0.0,0.0,0.0,0.0,0.0,0.0,0.0,0.0,0.0,0.0,0.0,0.0,0.0,0.0,0.0,0.0,0.0,0.0,0.0,0.0,0.0,0.0,0.0,0.0,0.0,0.0,0.0,0.0,0.0,-3.729,-3.8706,-4.0486,-4.2285,-4.258,-4.3522,-4.4589,-4.4643,-4.4742,-4.4952,-4.5545,0.0,0.0,0.0,0.0,0.0,0.0,0.0,0.0,0.0,0.0,0.0,0.0,0.0,0.0,0.0,0.0,0.0,0.0,0.0,0.0,-3.4414,-3.463,-3.4818,-3.4239,-3.4119,-3.3758,-3.309,-3.4195,-3.4964,-3.4964,-3.6678,-3.7765,-3.7695,-3.6634,-3.5988,-3.5845,-3.4803,0.0,-3.3611,-3.4083,-3.3928,-3.316,-3.3195,-3.2917,-3.2574,0.0,0.0,-3.1767,-3.1728,-3.1503,-3.1191,-3.1044,-3.0752,-3.0383,-2.9974,-3.0198,-3.0874,-3.1247,-3.2089,-3.3405,-3.4486,-3.5885,-3.7262,0.0,0.0,0.0,0.0,0.0,0.0,0.0,0.0,0.0,0.0,0.0,0.0,0.0,0.0,0.0,0.0,0.0,0.0,0.0,0.0,0.0,0.0,0.0,0.0,0.0,0.0,0.0,0.0,0.0,0.0,0.0,0.0,0.0,0.0,0.0,0.0,0.0,0.0,0.0,0.0,0.0,0.0,-3.6337,-3.8529,-4.0318,-4.1789,-4.2408,-4.3386,-4.4384,-4.4543,-4.4892,-4.5306,-4.5685,-4.5698,-4.5661,0.0,0.0,0.0,0.0,0.0,0.0,0.0,0.0,0.0,0.0,0.0,0.0,0.0,0.0,-3.835,0.0,0.0,-3.5846,-3.3949,-3.3887,-3.3907,-3.3224,-3.3127,-3.3311,-3.3769,-3.4561,-3.511,-3.5348,-3.6946,-3.7791,-3.7317,-3.6549,-3.5799,-3.5081,-3.3811,-3.3036,-3.2748,-3.3085,-3.2895,-3.2474,-3.2535,-3.2253,-3.1904,-3.19,-3.1658,-3.1178,-3.126,-3.0908,-3.0568,-3.0568,-3.0276,-2.9871,-3.0147,-3.0586,-3.1116,-3.246,-3.3537,-3.4462,-3.4828,-3.5782,-3.6734,0.0,0.0,0.0,0.0,0.0,0.0,0.0,0.0,0.0,0.0,0.0,0.0,0.0,0.0,0.0,0.0,0.0,0.0,0.0,0.0,0.0,0.0,0.0,0.0,0.0,0.0,0.0,0.0,0.0,0.0,0.0,0.0,0.0,0.0,0.0,0.0,0.0,0.0,0.0,0.0,0.0,0.0,-3.5412,-3.7572,-3.9261,-4.0632,-4.1716,-4.2714,-4.3591,-4.3856,-4.4519,-4.526,-4.5402,-4.5564,-4.5755,-4.5851,-4.5802,0.0,0.0,0.0,0.0,0.0,0.0,0.0,0.0,0.0,-4.1618,-3.8523,-3.8617,-3.8418,-3.5723,-3.5925,-3.5899,-3.4255,-3.4039,-3.3705,-3.3045,-3.2827,-3.3372,-3.4913,-3.5043,-3.5176,-3.5488,-3.7155,-3.7726,-3.6668,-3.6351,-3.549,-3.4011,-3.2641,-3.185,-3.176,-3.1909,-3.1893,-3.1812,-3.1868,-3.1535,-3.1078,-3.1171,-3.1069,-3.0597,-3.0597,-3.0432,-3.0092,-2.994,-2.9776,-2.9498,-3.0427,-3.099,-3.1463,-3.3626,-3.4674,-3.5158,-3.5254,-3.5673,-3.6207,0.0,0.0,0.0,0.0,0.0,0.0,0.0,0.0,0.0,0.0,0.0,0.0,0.0,0.0,0.0,0.0,0.0,0.0,0.0,0.0,0.0,0.0,0.0,0.0,0.0,0.0,0.0,0.0,0.0,0.0,0.0,0.0,0.0,0.0,0.0,0.0,0.0,0.0,0.0,0.0,0.0,0.0,-3.4754,-3.4532,-3.6495,-3.948,-4.0339,-4.1492,-4.2639,-4.269,-4.3232,-4.4021,-4.4681,-4.5148,-4.5551,-4.6094,0.0,-4.4943,-4.552,-4.5731,-4.6129,-4.7515,-4.6788,-4.5954,0.0,0.0,-4.3851,-4.0393,-4.0264,-3.9753,-3.6445,-3.6725,-3.7367,-3.6798,-3.6577,-3.6424,-3.6394,-3.5868,-3.5557,-3.5728,-3.576,-3.5576,-3.5117,-3.7315,-3.8019,-3.6235,-3.4877,-3.3561,-3.2216,-3.1376,-3.083,-3.0399,-3.0833,-3.086,-3.0413,-3.0379,-3.0205,-2.9761,-3.0227,-3.0188,-2.9792,-2.9792,-2.9666,-2.959,-2.9248,-2.9016,-2.9064,-2.9994,-3.1055,-3.2308,-3.3796,-3.4823,-3.55,-3.6068,-3.6,-3.5642,0.0,0.0,0.0,0.0,0.0,0.0,0.0,0.0,0.0,0.0,0.0,0.0,0.0,0.0,0.0,0.0,0.0,0.0,0.0,0.0,0.0,0.0,0.0,0.0,0.0,0.0,0.0,0.0,0.0,0.0,0.0,0.0,0.0,0.0,0.0,0.0,0.0,0.0,0.0,0.0,0.0,0.0,-3.1712,-3.2116,-3.3662,-3.5854,-3.7776,-3.963,0.0,0.0,-4.1427,-4.2348,-4.2366,-4.2735,-4.3251,-4.35,-4.3633,0.0,-4.4901,-4.4937,-4.5109,-4.6791,-4.6895,-4.647,-4.5929,-4.5353,-4.4067,-4.1104,-4.0721,-4.0235,-3.7667,-3.7668,-3.7541,0.0,-3.6099,-3.5913,-3.5485,-3.5502,-3.5446,-3.5036,-3.5843,-3.6291,-3.5742,-3.5948,-3.5494,-3.397,-3.2818,-3.1277,-2.8916,-2.8795,-2.8324,-2.7285,-2.7428,-2.745,-2.7177,-2.8039,-2.8443,-2.829,-2.9307,-2.9721,-2.9656,-2.9656,-2.9505,-2.9186,-2.8751,-2.8946,-2.9807,-3.0656,-3.1765,-3.3075,-3.4159,-3.4792,-3.514,-3.568,-3.5542,-3.5064,0.0,0.0,0.0,0.0,0.0,0.0,0.0,0.0,0.0,0.0,0.0,0.0,0.0,0.0,0.0,0.0,0.0,0.0,0.0,0.0,0.0,0.0,0.0,0.0,0.0,0.0,0.0,0.0,0.0,0.0,0.0,0.0,0.0,0.0,0.0,0.0,0.0,0.0,0.0,0.0,0.0,0.0,-2.9627,-3.0567,-3.1789,-3.3304,-3.5545,-3.7667,0.0,0.0,-3.9491,-4.0688,-4.017,-4.0533,-4.1219,-4.1367,-4.2074,-4.2996,-4.3924,-4.4052,-4.4339,-4.607,-4.6727,-4.6591,-4.5196,-4.4929,-4.4204,-4.1712,-4.1236,-4.0717,-3.9125,-3.8806,-3.8451,-3.7258,-3.6923,-3.6529,-3.5886,-3.6079,-3.5976,-3.5011,-3.5878,-3.6043,-3.5024,-3.4401,-3.3293,-3.1278,-3.0295,-2.8579,-2.5754,-2.6154,-2.5895,-2.4787,-2.4845,-2.4937,-2.4986,-2.6004,-2.6505,-2.6381,-2.7977,-2.8739,-2.87,-2.9023,-2.9003,-2.8573,-2.8583,-2.9227,-3.0141,-3.1394,-3.244,-3.341,-3.4304,-3.4625,-3.455,-3.4951,-3.4839,-3.45,0.0,0.0,0.0,0.0,0.0,0.0,0.0,0.0,0.0,0.0,0.0,0.0,0.0,0.0,0.0,0.0,0.0,0.0,0.0,0.0,0.0,0.0,0.0,0.0,0.0,0.0,0.0,0.0,0.0,0.0,0.0,0.0,0.0,0.0,0.0,0.0,0.0,0.0,0.0,0.0,0.0,0.0,-2.9754,-3.0033,-3.1367,-3.3201,-3.4097,0.0,0.0,0.0,-3.7488,-3.9084,-3.8645,-3.9263,0.0,-4.0763,-4.1582,-4.2393,-4.2749,-4.3423,-4.4409,-4.6075,-4.6408,-4.6304,-4.6178,-4.5799,-4.4853,-4.2708,-4.1974,-4.1515,-4.0594,-4.0422,-4.0606,-4.1221,-4.0771,-4.0124,-3.9549,-3.8887,-3.7979,-3.6692,-3.5743,-3.4385,0.0,-3.3001,-3.21,-2.837,-2.715,-2.5509,-2.316,-2.3658,-2.4069,-2.3977,-2.4382,-2.4524,-2.4505,-2.4519,-2.4365,-2.3938,-2.5901,-2.6616,-2.6203,-2.7718,-2.8145,-2.7844,-2.8993,-2.9497,-2.974,-3.1819,-3.2687,-3.2816,-3.4144,-3.4399,-3.3922,-3.3935,-3.3935,-3.3922,0.0,0.0,0.0,0.0,0.0,0.0,0.0,0.0,0.0,0.0,0.0,0.0,0.0,0.0,0.0,0.0,0.0,0.0,0.0,0.0,0.0,0.0,0.0,0.0,0.0,0.0,0.0,0.0,0.0,0.0,0.0,0.0,0.0,0.0,0.0,0.0,0.0,0.0,0.0,0.0,0.0,0.0,-2.8657,-2.9073,-3.0178,-3.1649,0.0,0.0,0.0,0.0,0.0,-3.7751,-3.7229,-3.7588,-3.8367,-3.9393,-3.9801,-4.0296,-4.201,-4.2775,-4.3612,-4.5928,-4.6537,-4.6371,-4.5684,-4.5587,-4.487,-4.2202,-4.1197,-4.0556,-3.9679,-4.0,-4.0273,-4.0046,-4.0543,-4.0585,-3.948,-3.8911,-3.756,-3.4887,-3.3753,0.0,0.0,0.0,0.0,-2.6141,-2.5111,-2.3547,-2.118,-2.1495,-2.1406,-2.0435,-2.0608,-2.0779,-2.0823,-2.1934,-2.2406,-2.2025,-2.4429,-2.5925,-2.6705,-2.7241,-2.7359,-2.7292,-2.7708,-2.8853,-3.0458,-3.0802,-3.1934,-3.3473,-3.3583,-3.3282,-3.278,-3.278,-3.2554,-3.234,0.0,0.0,0.0,0.0,0.0,0.0,0.0,0.0,0.0,0.0,0.0,0.0,0.0,0.0,0.0,0.0,0.0,0.0,0.0,0.0,0.0,0.0,0.0,0.0,0.0,0.0,0.0,0.0,0.0,0.0,0.0,0.0,0.0,0.0,0.0,0.0,0.0,0.0,0.0,0.0,0.0,0.0,-2.7936,-2.8811,-2.9989,0.0,0.0,0.0,0.0,0.0,0.0,-3.6487,-3.5962,-3.6154,-3.6808,-3.7912,-3.8123,-3.85,-4.0732,-4.1126,-4.1499,-4.3847,-4.4301,-4.4122,-4.3918,-4.4002,-4.3653,-4.1973,-4.1022,-4.0356,-3.9811,-4.0422,-4.0665,-3.9593,-4.0542,-4.0739,-3.8778,-3.7481,-3.5461,-3.2064,-3.0163,-2.7746,0.0,0.0,0.0,-2.3499,-2.2568,-2.1156,-1.935,-1.952,-1.9333,-1.8394,-1.8552,-1.8731,-1.879,-1.9913,-2.0876,-2.1693,-2.3894,-2.5605,-2.6795,-2.6913,-2.6864,-2.6569,-2.7393,-2.8612,-3.0111,-3.0405,-3.1516,-3.3007,-3.2644,-3.2281,-3.1943,-3.1951,-3.17,-3.1486,0.0,0.0,0.0,0.0,0.0,0.0,0.0,0.0,0.0,0.0,0.0,0.0,0.0,0.0,0.0,0.0,0.0,0.0,0.0,0.0,0.0,0.0,0.0,0.0,0.0,0.0,0.0,0.0,0.0,0.0,0.0,0.0,0.0,0.0,0.0,0.0,0.0,0.0,0.0,0.0,0.0,0.0,-2.7646,-2.928,0.0,0.0,0.0,0.0,0.0,0.0,-3.4853,-3.5573,-3.5065,-3.5254,-3.5814,-3.6591,-3.669,-3.6966,-3.8726,-3.834,-3.78,-3.9518,-3.9486,-3.9407,-4.0697,-4.1046,-4.1281,-4.1822,-4.1335,-4.0785,0.0,0.0,-4.1695,-4.0121,-4.0851,-4.0524,-3.7462,-3.4616,-3.1556,0.0,0.0,0.0,0.0,0.0,0.0,-2.0307,0.0,-1.8577,-1.7647,-1.782,-1.7945,-1.7945,-1.8347,-1.842,-1.8464,-1.8574,-1.9971,-2.283,-2.4093,-2.5291,-2.6396,-2.6778,-2.6443,-2.5866,-2.8103,-2.8921,-2.8786,-3.0551,-3.1308,-3.1406,-3.1381,-3.1357,-3.1332,-3.1354,-3.1405,-3.1379,0.0,0.0,0.0,0.0,0.0,0.0,0.0,0.0,0.0,0.0,0.0,0.0,0.0,0.0,0.0,0.0,0.0,0.0,0.0,0.0,0.0,0.0,0.0,0.0,0.0,0.0,0.0,0.0,0.0,0.0,0.0,0.0,0.0,0.0,0.0,0.0,0.0,0.0,0.0,0.0,0.0,0.0,-2.9862,0.0,0.0,0.0,0.0,0.0,0.0,0.0,-3.6647,-3.7668,-3.7732,-3.7829,-3.8025,-3.8376,-3.6738,-3.4735,-3.4088,-3.2185,-3.0231,-2.9728,-3.0804,-3.2369,-3.3671,-3.6435,-3.8641,-3.851,-3.8931,-3.9214,0.0,0.0,0.0,-4.0943,-3.9728,0.0,-3.4088,-2.9298,0.0,-2.0918,0.0,-1.6899,-1.5641,-1.6066,0.0,0.0,-1.8184,-1.8577,-1.7647,-1.7694,-1.7701,-1.7701,-1.7983,-1.8183,-1.8163,-1.9212,-2.1033,-2.3693,-2.3948,-2.4675,-2.5879,-2.5635,-2.5931,-2.6472,-2.6738,-2.7812,-2.9388,-2.9842,-3.0609,-3.1369,-3.1386,-3.116,-3.0835,-3.0778,-3.0981,-3.125,0.0,0.0,0.0,0.0,0.0,0.0,0.0,0.0,0.0,0.0,0.0,0.0,0.0,0.0,0.0,0.0,0.0,0.0,0.0,0.0,0.0,0.0,0.0,0.0,0.0,0.0,0.0,0.0,0.0,0.0,0.0,0.0,0.0,0.0,0.0,0.0,0.0,0.0,0.0,0.0,0.0,0.0,0.0,0.0,0.0,0.0,0.0,0.0,0.0,0.0,0.0,-3.8912,-3.8548,-3.8565,-3.8626,-3.8303,-3.3072,-2.6576,-2.3,-1.98,-1.7624,-1.7947,-2.0574,-2.3872,-2.6821,-3.0905,-3.4405,-3.5634,-3.7168,-3.8132,-3.7507,-3.9429,0.0,0.0,0.0,0.0,-2.4508,-1.9344,-1.5431,0.0,-1.2066,0.0,-1.0941,-1.2977,-1.4273,0.0,-1.6902,-1.815,-1.7667,-1.8171,-1.8457,-1.8457,-1.9223,-1.9655,-1.9596,-2.1043,-2.2482,-2.3948,-2.4145,-2.4717,-2.5405,-2.5526,-2.5766,-2.6143,0.0,-2.7945,-2.8968,-2.9512,-3.0121,-3.0698,-3.07,-3.0524,-3.0319,-3.07,-3.1044,-3.1315,0.0,0.0,0.0,0.0,0.0,0.0,0.0,0.0,0.0,0.0,0.0,0.0,0.0,0.0,0.0,0.0,0.0,0.0,0.0,0.0,0.0,0.0,0.0,0.0,0.0,0.0,0.0,0.0,0.0,0.0,0.0,0.0,0.0,0.0,0.0,0.0,0.0,0.0,0.0,0.0,0.0,0.0,0.0,0.0,0.0,0.0,0.0,0.0,0.0,0.0,-4.0545,-3.9853,-3.8391,-3.7187,-3.6037,-3.4653,-2.5358,-1.4274,-0.854,-0.4803,-0.3038,-0.5242,-0.9732,-1.4988,-2.0037,-2.5241,-2.9966,-3.3291,-3.5837,-3.7287,-3.6738,-3.8476,-3.6654,-2.6421,0.0,-2.1446,-1.2146,-0.7537,-0.5365,-0.6043,-0.5839,-0.5848,-0.6448,-1.0451,-1.3092,-1.3249,-1.6168,-1.7891,-1.7891,-1.9147,-1.9918,-1.9838,-2.1111,-2.1727,-2.1879,-2.2997,-2.3791,-2.4054,-2.4794,-2.5351,-2.5427,-2.6032,-2.6121,-2.5962,0.0,0.0,-2.8382,-2.9397,-2.9792,-2.9792,-2.9792,-2.9856,-3.005,-3.0895,-3.1389,-3.1815,0.0,0.0,0.0,0.0,0.0,0.0,0.0,0.0,0.0,0.0,-4.0291,0.0,0.0,0.0,0.0,0.0,0.0,0.0,0.0,0.0,0.0,0.0,0.0,0.0,0.0,0.0,0.0,0.0,0.0,0.0,0.0,0.0,0.0,0.0,0.0,0.0,0.0,0.0,0.0,0.0,0.0,0.0,0.0,0.0,0.0,0.0,0.0,0.0,0.0,0.0,-4.1201,-4.1704,-3.8647,-3.1775,-2.4118,-2.0338,-0.9856,0.1097,0.3942,0.6009,0.715,0.6435,0.0,-0.7568,-1.3049,-2.1186,0.0,-3.2088,-3.466,-3.6419,-3.6784,-3.3925,-2.9639,-2.395,-1.7245,-1.015,-0.2777,0.0435,0.1602,0.0,-0.149,-0.3762,-0.623,-1.0344,0.0,0.0,0.0,-1.922,-1.922,-2.0609,-2.1301,-2.1322,-2.1541,-2.2012,-2.2797,-2.2992,-2.3935,-2.5695,-2.5839,-2.6427,-2.7277,-2.702,-2.7368,-2.818,0.0,0.0,-2.9524,-2.9677,-2.9792,-2.9792,-2.9792,-3.0291,-3.0974,-3.114,-3.2177,-3.3533,0.0,0.0,0.0,0.0,0.0,0.0,0.0,0.0,0.0,-4.2675,-4.1271,-4.0288,0.0,0.0,0.0,0.0,0.0,0.0,0.0,0.0,0.0,0.0,0.0,0.0,0.0,0.0,0.0,0.0,0.0,0.0,0.0,0.0,0.0,0.0,0.0,0.0,0.0,0.0,0.0,0.0,0.0,0.0,0.0,0.0,0.0,0.0,0.0,0.0,0.0,0.0,-3.9862,-4.0431,-3.2133,-2.191,-1.1374,-0.314,0.4959,1.2778,2.003,2.0641,1.855,1.5888,0.672,-0.3301,-1.0002,0.0,0.0,-3.1283,-3.4249,-3.6074,-3.5838,-3.0782,-2.4172,-1.6562,-0.7486,0.1085,0.8155,0.9549,0.8703,0.5671,0.1594,-0.2119,0.0,-0.9836,0.0,0.0,0.0,-2.0333,-1.9627,-2.1585,-2.318,-2.4294,-2.4294,-2.4861,-2.5878,-2.5959,-2.6453,-2.7435,-2.7119,-2.7193,-2.7417,-2.7573,-2.7941,-2.844,-2.8782,0.0,-2.9792,-2.9792,-2.9792,-2.9869,-3.0343,-3.083,-3.1349,-3.2266,-3.3241,-3.4095,0.0,0.0,0.0,0.0,0.0,0.0,0.0,-4.0884,-4.1493,-4.3818,-4.2649,-4.164,-4.1719,-4.079,-4.0428,0.0,0.0,0.0,0.0,0.0,0.0,0.0,0.0,0.0,0.0,0.0,0.0,-3.8007,0.0,0.0,0.0,0.0,0.0,0.0,0.0,0.0,0.0,0.0,0.0,0.0,0.0,0.0,0.0,0.0,0.0,0.0,0.0,0.0,0.0,0.0,-3.6982,-3.4734,-2.4602,-1.3037,-0.109,0.9867,1.6802,2.3018,3.262,3.1951,2.7174,2.1577,1.0352,-0.1415,-0.933,-1.9108,-2.7507,-3.1246,-3.4193,-3.5806,-3.4897,-2.7269,-1.7961,0.0,0.224,1.1488,1.7767,1.6883,1.3714,0.0,0.3198,0.0,-0.473,-0.9745,0.0,0.0,0.0,0.0,-2.1322,-2.3349,-2.5333,-2.707,-2.714,-2.75,-2.8265,-2.8299,-2.8386,-2.8517,-2.8096,-2.7836,-2.7658,-2.8259,-2.8443,-2.8505,-2.9443,0.0,0.0,-3.0113,-3.0254,-3.0445,-3.1206,-3.1616,-3.1956,-3.349,-3.4163,-3.4461,0.0,0.0,0.0,0.0,0.0,0.0,0.0,-4.1889,-4.2504,-4.4301,-4.3801,-4.341,-4.3701,-4.2073,-4.1143,0.0,0.0,0.0,0.0,0.0,0.0,0.0,0.0,0.0,0.0,0.0,0.0,-3.8007,-3.8849,0.0,0.0,0.0,0.0,0.0,0.0,-4.0791,0.0,0.0,0.0,0.0,0.0,0.0,0.0,0.0,0.0,0.0,0.0,0.0,0.0,0.0,0.0,-2.1531,-1.9754,-0.9627,0.3144,1.1326,0.0,0.0,3.4421,3.2724,2.8664,2.0854,0.9345,-0.2305,-1.1164,0.0,-2.9745,-3.2426,-3.4268,-3.5207,-3.4623,-2.1854,-0.9137,-0.2368,0.0,2.0062,2.3214,1.9488,1.3888,0.6961,0.0,0.0,-0.7274,-1.0659,0.0,0.0,0.0,0.0,-2.6672,-2.7094,-2.7628,-2.8421,-2.841,-2.8066,-2.726,-2.726,-2.752,-2.8182,-2.8111,-2.8566,-2.9521,-2.9636,-2.9636,-2.9624,0.0,0.0,0.0,-3.1078,-3.1562,-3.238,-3.2431,-3.3017,-3.3794,-3.3945,-3.461,-3.5359,0.0,0.0,0.0,0.0,0.0,0.0,0.0,-4.2089,-4.2857,-4.5025,-4.4655,-4.44,-4.5031,-4.3942,-4.3269,0.0,0.0,0.0,0.0,0.0,0.0,0.0,0.0,0.0,0.0,0.0,-3.9657,-4.0296,-3.9657,0.0,0.0,0.0,0.0,0.0,0.0,-4.0651,-4.0125,0.0,0.0,0.0,0.0,0.0,0.0,0.0,0.0,0.0,0.0,0.0,-3.9561,-3.9347,0.0,0.0,-2.3869,-1.6551,0.0,0.0,2.3469,3.1982,3.3371,3.1282,2.6596,1.7816,0.5686,-0.6373,-1.5014,0.0,-3.1742,-3.3973,-3.4994,-3.5539,-3.5726,-2.0123,-0.6349,0.0,0.0,0.0,2.285,1.8018,1.2362,0.6716,0.1012,0.0,0.0,0.0,0.0,0.0,0.0,0.0,-2.8462,-2.7945,-2.8278,-2.9665,-2.9352,-2.9335,-2.9689,-2.9359,-2.9358,-2.9598,-3.0189,-3.0482,-3.062,-3.1193,-3.1476,-3.1476,0.0,0.0,0.0,-3.2042,-3.2245,-3.2643,-3.3213,-3.3659,-3.4103,-3.4654,-3.5133,-3.5504,0.0,0.0,0.0,0.0,0.0,0.0,-4.133,-4.1807,-4.2697,-4.4799,-4.4708,-4.4726,-4.5514,-4.5092,-4.48,-4.4896,0.0,0.0,0.0,0.0,0.0,0.0,0.0,0.0,0.0,0.0,-4.0658,-4.1797,-4.0662,-4.0973,0.0,0.0,-4.1604,-4.135,0.0,0.0,0.0,0.0,0.0,0.0,0.0,0.0,0.0,0.0,0.0,0.0,0.0,0.0,0.0,0.0,0.0,-3.7097,0.0,0.0,0.0,0.0,1.9497,2.6399,3.0197,2.9761,2.5549,1.4187,0.1855,-0.9755,-1.8955,0.0,-3.3223,-3.5235,-3.5639,-3.5869,-3.6646,-2.1863,-0.9186,0.0,0.0,1.6723,1.6624,1.2813,0.8146,0.3192,0.0,-0.6438,0.0,0.0,0.0,0.0,0.0,0.0,0.0,-2.8588,-2.9001,-3.0893,-3.0375,-3.0453,-3.116,-3.0643,-3.0378,-3.0369,-3.1333,-3.1556,-3.1254,-3.2177,-3.2593,-3.2593,0.0,0.0,0.0,-3.2975,-3.3171,-3.3533,-3.4177,-3.4467,-3.4501,-3.5258,-3.5504,-3.5504,0.0,0.0,0.0,0.0,0.0,0.0,0.0,-4.1073,-4.2034,-4.3177,-4.3737,-4.429,-4.503,-4.5096,-4.5222,-4.5568,0.0,0.0,0.0,0.0,0.0,0.0,0.0,0.0,0.0,0.0,-4.1925,-4.1797,-4.1912,-4.1756,-4.1339,-4.212,-4.1895,-4.0796,0.0,0.0,0.0,0.0,0.0,0.0,0.0,0.0,0.0,0.0,0.0,0.0,0.0,0.0,0.0,0.0,0.0,0.0,0.0,0.0,0.0,0.0,0.997,1.6437,2.4566,2.863,2.6574,1.0095,-0.1492,-1.1646,-2.2543,-2.9407,-3.4043,-3.6064,-3.6064,-3.601,-3.7011,-2.7525,-1.8365,-1.4773,0.0,0.0,0.3675,0.3398,0.0752,0.0,0.0,-0.886,0.0,0.0,0.0,0.0,0.0,0.0,0.0,-2.9407,-3.0264,-3.2143,-3.1675,-3.1135,-3.0633,-3.008,-2.9792,-2.9804,-3.0771,-3.118,-3.1254,-3.2177,-3.2593,0.0,0.0,0.0,0.0,-3.4016,-3.4543,-3.5439,-3.5504,-3.5504,-3.5504,-3.5504,-3.5504,-3.5504,0.0,0.0,0.0,0.0,0.0,0.0,0.0,-4.0589,-4.1297,-4.2782,-4.3286,-4.3823,-4.4675,-4.4776,-4.4781,-4.4919,0.0,0.0,0.0,0.0,0.0,0.0,0.0,0.0,0.0,0.0,-4.214,-4.2701,-4.1356,-4.1495,-4.2997,-4.2221,-4.181,-4.1607,-4.1342,-4.0552,0.0,0.0,0.0,0.0,0.0,0.0,0.0,0.0,0.0,0.0,0.0,0.0,0.0,0.0,0.0,0.0,0.0,0.0,0.0,0.0,0.0,0.0,1.1793,1.5705,1.5915,0.3458,-0.6565,-1.5875,-2.5173,-3.0509,-3.412,-3.6306,-3.6676,-3.7198,-3.9213,-2.9317,-2.0622,-1.9898,-1.0226,0.0,0.0,0.0,0.0,-0.8967,-1.2328,-1.5959,0.0,0.0,0.0,0.0,0.0,0.0,0.0,-3.0226,-3.1328,-3.2805,-3.2252,-3.1687,-3.1148,-3.062,-3.0443,-3.0758,-3.1683,-3.2464,-3.3171,-3.4109,0.0,0.0,0.0,0.0,0.0,-3.5016,-3.5213,-3.5504,-3.5504,-3.5504,-3.5504,-3.5504,-3.5504,-3.5504,0.0,0.0,0.0,0.0,0.0,0.0,0.0,-4.0048,-4.0725,-4.2153,-4.2791,-4.3487,-4.4485,-4.458,-4.458,-4.458,0.0,0.0,0.0,0.0,0.0,0.0,0.0,0.0,0.0,-4.3181,-4.3008,-4.3547,-4.2294,-4.2181,-4.3168,-4.2867,-4.2355,-4.1647,-4.1721,-4.1107,0.0,0.0,0.0,0.0,0.0,0.0,-4.4317,0.0,0.0,0.0,0.0,0.0,0.0,0.0,0.0,0.0,0.0,0.0,0.0,0.0,-1.869,-0.5222,0.0223,0.5978,0.7617,-0.4262,-1.4551,0.0,-2.8638,-3.2352,-3.5208,-3.7006,-3.7198,-3.7697,-3.988,-3.2747,-2.623,-2.5396,-1.8362,0.0,0.0,0.0,0.0,-1.4503,0.0,0.0,0.0,0.0,0.0,0.0,0.0,0.0,0.0,0.0,-3.1777,-3.3081,-3.2516,-3.2051,-3.17,-3.0984,-3.0866,-3.1497,-3.2286,-3.3101,-3.4027,-3.5052,0.0,0.0,0.0,0.0,0.0,-3.5504,-3.5504,-3.5504,-3.5504,-3.5504,-3.5504,-3.5504,-3.5504,-3.5504,0.0,0.0,0.0,0.0,0.0,0.0,0.0,0.0,0.0,0.0,-4.2228,-4.3146,-4.438,-4.4527,-4.4527,0.0,0.0,0.0,0.0,0.0,0.0,0.0,0.0,0.0,-4.5586,-4.4759,-4.4316,-4.4297,-4.4165,-4.3407,-4.2127,-4.3611,-4.3156,-4.1137,-4.1889,-4.1852,0.0,0.0,0.0,0.0,-4.3553,-4.3955,0.0,0.0,0.0,0.0,0.0,0.0,0.0,0.0,0.0,0.0,0.0,0.0,0.0,0.0,0.0,0.0,0.0,-0.2056,0.0431,-1.2848,-2.4124,-3.2098,-3.2522,-3.4684,0.0,-3.7968,-3.7557,-3.747,-3.9038,-3.686,-3.3775,-3.069,-2.8375,0.0,0.0,-2.0945,0.0,0.0,-2.3754,0.0,0.0,0.0,0.0,0.0,0.0,0.0,0.0,0.0,-3.1877,-3.3081,-3.2554,-3.2252,-3.2215,-3.1185,-3.1148,-3.2101,-3.2464,-3.3101,-3.4163,-3.5067,0.0,0.0,0.0,0.0,0.0,-3.5504,-3.5504,-3.5504,-3.5504,-3.5504,-3.5504,-3.5504,-3.5504,-3.5504,0.0,0.0,0.0,0.0,0.0,0.0,0.0,0.0,0.0,0.0,-4.1383,-4.2078,-4.3578,-4.3758,-4.3758,0.0,0.0,0.0,0.0,0.0,0.0,0.0,0.0,0.0,-4.5738,-4.4895,-4.4395,-4.4297,-4.2756,-4.2041,-4.2108,-4.1544,-4.1336,-4.1343,-4.1524,-4.1868,0.0,0.0,0.0,0.0,-4.3523,-4.3631,0.0,0.0,0.0,0.0,-4.1986,-4.1541,0.0,0.0,0.0,0.0,0.0,0.0,0.0,0.0,-3.6701,-3.4215,-2.9477,0.0,-1.508,-2.1366,-2.6831,-3.1426,0.0,-3.559,-3.6445,-3.7774,-3.6889,-3.6128,-3.6845,-3.4818,-3.2567,-3.107,0.0,0.0,-2.6249,0.0,0.0,-2.5348,0.0,0.0,0.0,0.0,0.0,0.0,0.0,0.0,0.0,0.0,-3.2797,-3.3081,-3.2943,-3.2667,-3.2215,-3.1537,-3.181,-3.305,-3.2753,-3.3463,-3.5133,-3.5359,0.0,0.0,0.0,0.0,-3.5504,-3.5504,-3.5504,-3.5504,-3.5504,-3.5504,-3.5504,-3.5504,-3.5504,-3.5504,0.0,0.0,0.0,0.0,0.0,0.0,0.0,0.0,0.0,0.0,0.0,0.0,0.0,0.0,0.0,0.0,0.0,0.0,0.0,0.0,0.0,0.0,0.0,-4.5266,-4.5781,-4.5288,-4.497,-4.4893,-4.3656,-4.2781,-4.2273,-4.209,-4.1788,-4.143,-4.2068,-4.2721,-4.33,-4.33,-4.3572,-4.3992,-4.3804,0.0,0.0,0.0,0.0,0.0,-4.1109,-4.057,0.0,-3.8495,-3.8219,-3.8519,0.0,0.0,0.0,0.0,-3.7912,-3.8142,-3.72,-3.2499,-2.8231,-2.9916,-3.1812,-3.3829,-3.6148,-3.6889,-3.7035,-3.6806,-3.5677,-3.4655,-3.4398,-3.2508,0.0,0.0,-2.8448,0.0,0.0,0.0,-2.7556,0.0,0.0,0.0,0.0,0.0,0.0,0.0,0.0,0.0,0.0,0.0,-3.3081,-3.3081,-3.3081,-3.293,-3.2616,-3.18,-3.2227,-3.3771,-3.2963,-3.3616,-3.5504,-3.5504,0.0,0.0,0.0,0.0,-3.5504,-3.5504,-3.5504,-3.5504,-3.5504,-3.5504,-3.5504,-3.5504,-3.5504,-3.5504,0.0,0.0,0.0,0.0,0.0,0.0,0.0,0.0,0.0,0.0,0.0,0.0,0.0,0.0,0.0,0.0,0.0,0.0,0.0,0.0,0.0,0.0,0.0,-4.5684,-4.5803,-4.5632,-4.5551,-4.5513,-4.4968,-4.3851,-4.2266,-4.3095,-4.2834,-4.1651,-4.2988,-4.3791,-4.4087,-4.4087,-4.4233,-4.4474,-4.4146,0.0,0.0,0.0,0.0,0.0,0.0,0.0,0.0,-3.76,-3.7247,-3.7365,-3.7247,0.0,0.0,0.0,0.0,0.0,-3.87,-3.8609,-3.8218,-3.7261,-3.7205,-3.7436,-3.7599,0.0,0.0,0.0,0.0,0.0,0.0,-3.0064,0.0,0.0,0.0,0.0,-2.9202,-2.9375,0.0,0.0,0.0,0.0,0.0,0.0,0.0,0.0,0.0,0.0,0.0,0.0,0.0,-3.3081,-3.3081,-3.3031,-3.2943,-3.1913,-3.2395,-3.4279,-3.3115,-3.3616,-3.5504,-3.5504,-3.5504,0.0,0.0,0.0,-3.5504,-3.5504,-3.5504,-3.5504,-3.5504,-3.5504,-3.5504,-3.5619,-3.5619,-3.5504,0.0,0.0,0.0,0.0,0.0,0.0,0.0,0.0,0.0,0.0,0.0,0.0,0.0,0.0,0.0,0.0,0.0,0.0,0.0,0.0,0.0,0.0,-4.6198,-4.5832,-4.5806,-4.5492,-4.5287,-4.518,-4.3585,-4.2211,-4.1034,-4.1162,-4.1709,-4.2637,-4.3522,-4.4136,-4.4501,-4.4501,-4.4364,-4.4106,-4.4028,0.0,0.0,0.0,0.0,0.0,0.0,0.0,0.0,-3.5999,-3.5594,-3.5461,-3.4824,0.0,0.0,0.0,0.0,0.0,-3.7794,-3.9631,-4.111,-4.0136,-3.9939,-3.9644,-3.8192,-3.742,0.0,0.0,0.0,0.0,0.0,-2.7822,-2.7094,0.0,0.0,0.0,0.0,0.0,0.0,0.0,0.0,0.0,0.0,0.0,0.0,0.0,0.0,0.0,0.0,0.0,0.0,-3.3093,-3.3081,-3.2842,-3.2353,-3.1712,-3.2395,-3.4279,-3.3115,-3.3616,-3.5504,-3.5504,-3.5504,0.0,0.0,-3.5504,-3.5504,-3.5504,-3.5504,-3.5504,-3.5504,-3.5504,-3.5554,-3.6228,-3.6054,-3.5504,0.0,0.0,0.0,0.0,0.0,0.0,0.0,0.0,0.0,0.0,0.0,0.0,0.0,0.0,0.0,0.0,0.0,0.0,0.0,0.0,0.0,-4.7353,-4.6186,-4.5569,-4.5531,-4.5,-4.4588,-4.4339,-4.2603,-4.1558,-4.1185,-4.1256,-4.1796,-4.2784,-4.3443,-4.3943,-4.4261,-4.3983,-4.3837,-4.38,0.0,0.0,0.0,0.0,0.0,0.0,0.0,0.0,0.0,0.0,-3.4114,-3.4493,-3.4134,0.0,0.0,0.0,0.0,0.0,-3.7024,-3.8438,-3.9781,-4.0068,-4.0922,-4.1099,-3.8809,-3.7172,-3.5314,0.0,0.0,0.0,0.0,0.0,-2.7352,-2.8888,0.0,0.0,0.0,0.0,0.0,0.0,0.0,0.0,0.0,0.0,0.0,0.0,0.0,0.0,0.0,0.0,0.0,0.0,-3.2767,-3.2478,-3.2215,-3.1386,-3.1941,-3.3771,-3.2963,-3.3616,-3.5504,-3.5504,-3.5504,-3.5504,0.0,-3.5504,-3.5504,-3.5504,-3.5504,-3.5504,-3.5504,-3.5504,-3.5569,-3.5894,-3.5782,-3.5504,0.0,0.0,0.0,0.0,0.0,0.0,0.0,0.0,0.0,0.0,0.0,0.0,0.0,0.0,0.0,0.0,0.0,0.0,0.0,0.0,-4.7797,-4.7335,-4.5917,-4.5138,-4.5138,-4.4376,-4.3839,-4.3584,-4.1769,-4.092,-4.1095,-4.1393,-4.1991,-4.2829,-4.3432,-4.376,-4.3836,-4.3348,-4.3191,-4.3245,0.0,0.0,0.0,0.0,0.0,0.0,0.0,0.0,0.0,0.0,0.0,0.0,0.0,0.0,0.0,-3.5504,-3.5894,-3.6384,-3.6554,-3.7335,-3.8213,-3.884,-4.0083,-4.0591,-3.8541,-3.6468,-3.4284,0.0,0.0,0.0,0.0,-2.7682,0.0,0.0,0.0,0.0,0.0,0.0,0.0,0.0,0.0,0.0,0.0,0.0,0.0,0.0,0.0,0.0,0.0,0.0,0.0,0.0,-3.2516,-3.2152,-3.2026,-3.1085,-3.141,-3.305,-3.2753,-3.3463,-3.5133,-3.5359,-3.5504,-3.5504,-3.5504,-3.5504,-3.5504,-3.5504,-3.5504,-3.5504,-3.5504,-3.5619,-3.5782,-3.5782,-3.5782,-3.5718,0.0,0.0,0.0,0.0,0.0,0.0,0.0,0.0,0.0,0.0,0.0,0.0,0.0,0.0,0.0,0.0,0.0,0.0,0.0,0.0,-4.6457,-4.6415,-4.5255,-4.4643,-4.4643,-4.3726,-4.3269,-4.3254,-4.1016,-3.9932,-3.9932,-4.0457,-4.1558,-4.3206,-4.3923,-4.3978,-4.3484,-4.3029,-4.2548,-4.2046,-4.1371,0.0,0.0,0.0,0.0,0.0,0.0,0.0,0.0,0.0,0.0,0.0,0.0,0.0,-3.5504,-3.5504,-3.5569,-3.5733,-3.6384,-3.767,-3.8446,-3.6829,-3.6643,-3.6733,-3.6318,-3.4808,-3.2832,-3.0513,0.0,0.0,0.0,-2.9182,0.0,0.0,0.0,0.0,0.0,0.0,0.0,0.0,0.0,0.0,0.0,0.0,0.0,0.0,0.0,0.0,0.0,0.0,0.0,0.0,0.0,-3.1964,-3.1449,-3.0896,-3.1123,-3.2101,-3.2464,-3.3101,-3.4163,-3.5067,-3.5504,-3.5504,-3.5504,-3.5504,-3.5504,-3.5504,-3.5504,-3.5504,-3.5504,-3.5958,-3.6492,-3.6492,-3.6492,-3.6446,0.0,0.0,0.0,0.0,0.0,0.0,0.0,0.0,0.0,0.0,0.0,0.0,0.0,0.0,0.0,0.0,0.0,0.0,0.0,0.0,-4.6278,-4.6019,-4.486,-4.3979,-4.3416,-4.2904,-4.2556,-4.2318,-4.0758,-3.9527,-3.857,-4.0608,-4.1898,-4.2551,-4.3067,-4.2979,-4.2387,-4.1698,-4.1069,-4.0478,-4.0326,-3.9469,0.0,0.0,0.0,0.0,0.0,0.0,0.0,0.0,-3.2536,0.0,0.0,0.0,-3.5504,-3.5504,-3.5504,-3.5554,-3.5831,-3.6626,-3.7352,-3.7156,-3.6425,0.0,0.0,-3.4529,-3.3278,-3.1059,-3.1103,0.0,0.0,0.0,0.0,0.0,0.0,0.0,0.0,0.0,0.0,0.0,0.0,0.0,0.0,0.0,0.0,0.0,0.0,0.0,0.0,0.0,0.0,0.0,0.0,-3.1599,-3.1386,-3.1111,-3.1146,-3.1497,-3.2286,-3.3394,-3.492,-3.5359,-3.5504,-3.5504,-3.5504,-3.5504,-3.5504,-3.5504,-3.5504,-3.5504,-3.5504,-3.5668,-3.5894,-3.5894,-3.5894,-3.5894,0.0,0.0,0.0,0.0,0.0,0.0,0.0,0.0,0.0,0.0,0.0,0.0,0.0,0.0,0.0,0.0,0.0,0.0,-4.6417,-4.5959,-4.5557,-4.5255,-4.4345,-4.3557,-4.2976,-4.2418,-4.1943,-4.1534,-4.0546,-3.9454,-3.8206,-4.0375,-4.1363,-4.1381,-4.1647,-4.1306,-4.0548,-4.0156,-3.963,-3.903,-3.9234,-3.8756,0.0,0.0,0.0,0.0,0.0,0.0,0.0,0.0,0.0,0.0,0.0,0.0,0.0,0.0,-3.5789,-3.6103,-3.6103,-3.6321,-3.6739,-3.7366,0.0,0.0,-3.5322,-3.4912,-3.4234,-3.2681,-3.2902,-3.3333,-3.3604,0.0,0.0,0.0,0.0,0.0,0.0,0.0,0.0,0.0,0.0,0.0,0.0,0.0,0.0,0.0,0.0,0.0,0.0,0.0,0.0,0.0,0.0,-3.1311,-3.1148,-3.115,-3.1315,-3.1669,-3.2593,-3.3754,-3.5052,-3.5359,-3.5504,-3.5504,-3.5504,-3.5504,-3.5504,-3.5504,-3.5504,-3.5504,-3.5782,-3.5733,-3.5504,-3.5782,-3.5733,-3.5504,0.0,0.0,0.0,0.0,0.0,0.0,0.0,0.0,0.0,0.0,0.0,0.0,0.0,0.0,0.0,0.0,0.0,0.0,-4.5096,-4.4409,-4.4016,-4.4016,-4.3679,-4.3479,-4.3479,-4.2346,-4.149,-4.0903,-4.0368,-3.9662,-3.8908,-3.9495,-3.9817,-3.98,-3.969,-3.9007,-3.7941,-3.8441,-3.834,-3.7846,-3.8275,-3.8407,-3.8392,0.0,0.0,0.0,0.0,0.0,0.0,0.0,-3.4027,0.0,0.0,0.0,0.0,0.0,-3.6417,-3.7419,-3.7404,-3.7137,-3.6868,-3.7007,0.0,0.0,-3.6417,-3.6105,-3.5582,-3.535,-3.5294,-3.5143,-3.4746,-3.4157,0.0,0.0,0.0,0.0,0.0,0.0,0.0,0.0,0.0,0.0,0.0,0.0,0.0,0.0,0.0,0.0,0.0,0.0,0.0,0.0,0.0,0.0,-3.062,-3.0981,-3.1669,-3.2593,-3.3533,-3.4027,-3.4027,-3.5052,-3.5504,-3.5504,-3.5504,-3.5504,-3.5504,-3.5504,-3.5504,-3.5554,-3.6275,-3.6165,-3.5619,-3.6337,-3.6117,-3.5504,0.0,0.0,0.0,0.0,0.0,0.0,0.0,0.0,0.0,0.0,0.0,0.0,0.0,0.0,0.0,0.0,0.0,0.0,-4.4751,-4.429,-4.4016,-4.4016,-4.3679,-4.3105,-4.2306,-4.169,-4.0746,-3.951,-3.9919,-3.9662,-3.8924,-3.969,-4.003,-4.001,-3.9285,-3.878,-3.8456,-3.8491,-3.8357,-3.8248,-3.8847,-3.8826,-3.8392,0.0,0.0,0.0,0.0,0.0,0.0,0.0,0.0,0.0,0.0,0.0,0.0,-3.5774,-3.6746,-3.7744,-3.6102,-3.6486,0.0,-3.6534,0.0,0.0,0.0,-3.7441,0.0,0.0,-3.731,-3.711,-3.7564,0.0,0.0,0.0,0.0,0.0,0.0,0.0,0.0,0.0,0.0,0.0,0.0,0.0,0.0,0.0,0.0,0.0,0.0,0.0,0.0,0.0,0.0,0.0,-3.062,-3.162,-3.2321,-3.2593,-3.4259,-3.5067,-3.5067,-3.5359,-3.5504,-3.5504,-3.5504,-3.5504,-3.5504,-3.5504,-3.5504,-3.5504,-3.5718,-3.5668,-3.5504,-3.5733,-3.5668,-3.5504,0.0,0.0,0.0,0.0,0.0,0.0,0.0,0.0,0.0,0.0,-4.4209,0.0,0.0,0.0,0.0,0.0,0.0,0.0,0.0,-4.3693,-4.3401,-4.3138,-4.3213,-4.2996,-4.2377,-4.213,-4.1218,-3.9709,-3.9967,-3.9834,-3.9353,-3.8926,-3.885,-3.9082,-3.8199,-3.7776,-3.7617,-3.8147,-3.815,-3.7824,-3.8981,-3.917,-3.8796,0.0,0.0,0.0,0.0,0.0,0.0,0.0,0.0,0.0,0.0,0.0,0.0,-3.6731,-3.7545,-3.8341,-3.7414,-3.7449,0.0,-3.7859,-3.8518,-3.9253,-3.9331,0.0,0.0,0.0,-3.9114,-3.8601,-3.9155,0.0,0.0,0.0,0.0,0.0,0.0,0.0,0.0,0.0,0.0,0.0,0.0,0.0,0.0,0.0,0.0,0.0,0.0,0.0,0.0,0.0,0.0,0.0,-3.0855,-3.2355,-3.3171,-3.3171,-3.4773,-3.5504,-3.5504,-3.5504,-3.5504,-3.5504,-3.5504,-3.5504,-3.5504,-3.5504,-3.5504,-3.5474,-3.5205,-3.5265,-3.5474,-3.519,-3.5265,-3.5504,0.0,0.0,0.0,0.0,0.0,0.0,0.0,0.0,0.0,0.0,-4.4235,-4.3986,0.0,0.0,0.0,0.0,0.0,0.0,0.0,0.0,-4.2418,-4.1899,-4.2608,-4.3156,-4.337,-4.3337,-4.2579,-4.1205,-4.0482,-4.0094,-3.9956,-3.7765,-3.7095,-3.7559,-3.6889,-3.6404,-3.623,-3.7757,-3.7881,-3.7141,-3.8765,-3.9424,-3.9424,-3.9424,0.0,0.0,0.0,0.0,0.0,0.0,0.0,0.0,0.0,0.0,-3.6956,-3.7988,-3.862,-3.911,-3.9963,-3.9247,0.0,-4.0119,-4.0119,0.0,-4.1116,-4.0538,-4.0105,-4.0969,0.0,-3.9747,0.0,0.0,0.0,0.0,0.0,0.0,0.0,0.0,0.0,0.0,0.0,0.0,0.0,0.0,0.0,0.0,0.0,0.0,0.0,0.0,0.0,0.0,0.0,0.0,-3.1328,-3.3101,-3.4027,0.0,-3.4986,-3.5504,-3.5504,-3.5504,-3.5504,-3.5504,-3.5444,-3.5509,-3.5619,-3.5619,-3.5619,-3.5559,-3.4928,-3.497,-3.534,-3.4771,-3.4921,-3.5429,0.0,0.0,0.0,0.0,0.0,0.0,0.0,0.0,0.0,0.0,0.0,0.0,0.0,0.0,0.0,0.0,0.0,0.0,0.0,0.0,-4.2203,-4.2617,-4.3506,-4.4199,-4.4694,-4.4315,-4.3558,-4.2559,-4.1406,-4.0214,-3.9055,-3.8482,-3.7961,-3.759,-3.7343,-3.7416,-3.7887,-3.8262,-3.8549,-3.8896,-3.9277,-3.9424,-3.9424,-3.9424,-3.9334,0.0,0.0,0.0,0.0,0.0,0.0,0.0,-3.7315,-3.8033,-3.8631,-3.7853,-3.9145,-4.0371,-3.8257,-3.8501,0.0,0.0,-4.013,-4.1053,-4.1279,-4.0757,-4.0264,-4.0057,-4.0212,0.0,0.0,0.0,0.0,0.0,0.0,0.0,0.0,0.0,0.0,0.0,0.0,0.0,0.0,0.0,0.0,0.0,0.0,0.0,0.0,0.0,0.0,0.0,0.0,-3.1656,-3.2321,-3.3449,-3.4027,0.0,-3.4986,-3.5504,-3.5504,-3.5504,-3.5504,-3.5474,-3.4936,-3.5332,-3.6384,-3.6384,-3.6384,-3.6368,-3.6215,-3.5535,-3.4741,-3.513,-3.504,-3.4771,0.0,0.0,0.0,0.0,0.0,0.0,0.0,0.0,0.0,0.0,0.0,0.0,0.0,0.0,0.0,0.0,0.0,0.0,0.0,0.0,0.0,-4.2946,-4.3444,-4.3997,-4.4565,-4.43,-4.3587,-4.2401,-4.1692,-4.061,-3.9235,-3.84,-3.8019,-3.8004,-3.791,-3.8063,-3.8407,-3.8736,-3.8901,-3.896,-3.929,-3.9424,-3.9424,-3.9424,-3.9424,-3.9424,-3.9424,0.0,0.0,0.0,0.0,0.0,0.0,0.0,-3.8194,-3.8444,-3.9168,-3.9779,-3.9575,0.0,0.0,-4.1311,0.0,-4.2808,-4.2719,-4.2361,-4.1874,-4.1571,0.0,0.0,0.0,0.0,0.0,0.0,0.0,0.0,0.0,0.0,0.0,0.0,0.0,0.0,0.0,0.0,0.0,0.0,0.0,0.0,0.0,0.0,0.0,0.0,-3.2485,-3.282,-3.3241,-3.4245,-3.4691,-3.4691,-3.4937,-3.5007,-3.5048,-3.5037,-3.5187,-3.5442,-3.479,-3.5091,-3.6111,-3.6111,-3.5935,-3.5533,-3.5267,-3.4698,-3.4053,-3.4412,-3.4517,-3.4577,0.0,0.0,0.0,0.0,0.0,0.0,0.0,0.0,0.0,0.0,0.0,0.0,0.0,0.0,0.0,0.0,0.0,0.0,0.0,0.0,0.0,-4.3064,-4.3215,-4.3508,-4.4156,-4.3992,-4.3183,-4.1648,-4.154,-4.0955,-3.9992,-3.856,-3.8153,-3.8571,-3.8567,-3.8609,-3.8616,-3.9058,-3.9041,-3.8616,-3.9185,-3.9424,-3.9424,-3.9424,-3.9424,-3.9424,-3.9424,-3.905,-3.8661,-3.9118,0.0,0.0,0.0,0.0,-3.7566,-3.9254,-3.9306,-3.9351,-4.1567,0.0,-4.2371,-4.3781,-4.4318,0.0,-4.4166,-4.3863,-4.3476,0.0,0.0,0.0,0.0,0.0,0.0,0.0,0.0,0.0,0.0,0.0,0.0,0.0,0.0,0.0,0.0,0.0,0.0,0.0,0.0,0.0,0.0,0.0,-3.2314,-3.2834,-3.3602,-3.4095,-3.4245,-3.5067,-3.5444,-3.5325,-3.4748,-3.4501,-3.4512,-3.4485,-3.4881,-3.5466,-3.4809,-3.503,-3.578,-3.578,-3.5364,-3.468,-3.412,-3.3625,-3.3335,-3.3455,-3.3844,-3.4382,0.0,0.0,0.0,0.0,0.0,0.0,0.0,0.0,0.0,0.0,-4.3497,-4.3321,0.0,0.0,0.0,0.0,0.0,0.0,-4.1041,0.0,0.0,-4.2928,-4.3634,-4.4204,-4.4651,-4.4133,-4.3002,-4.146,-4.0889,-4.0813,-4.1174,-4.0381,-3.9753,-3.9262,-3.9405,-3.9379,-3.9247,-3.8938,-3.9,-3.929,-3.9379,-3.9424,-3.9424,-3.9424,-3.9424,-3.9424,-3.9424,-3.9364,-3.922,-3.892,-3.8688,0.0,0.0,0.0,-3.9291,-3.9549,-4.0689,-4.1809,0.0,0.0,-4.3188,0.0,-4.4015,-4.4166,0.0,0.0,0.0,0.0,0.0,0.0,0.0,0.0,0.0,0.0,0.0,0.0,0.0,0.0,0.0,0.0,0.0,0.0,0.0,0.0,0.0,0.0,0.0,0.0,0.0,-3.2791,-3.2903,-3.3808,-3.3945,-3.4394,-3.5279,-3.5424,-3.5205,-3.4607,-3.453,-3.4488,-3.4481,-3.4549,-3.4936,-3.5546,-3.487,-3.5331,-3.6544,-3.6544,-3.6161,-3.5529,-3.5418,-3.4265,-3.2706,-3.329,-3.3559,-3.3649,0.0,0.0,0.0,0.0,0.0,0.0,0.0,0.0,0.0,0.0,0.0,-4.3304,0.0,0.0,0.0,-4.1853,-4.1268,-4.0917,-4.0946,-4.063,-4.113,-4.2736,-4.3129,-4.336,-4.3427,-4.3153,-4.2455,-4.1384,-4.0726,-4.1115,-4.2462,-4.1803,-4.1339,-4.107,-4.0037,-3.9896,-4.0427,-3.9208,-3.9186,-3.9933,-3.9574,-3.9424,-3.9424,-3.9424,-3.9424,-3.9424,-3.9424,-3.9649,-3.9846,-3.9,-3.8917,-3.8931,-3.7465,0.0,0.0,0.0,-4.0354,-4.1806,-4.3172,-4.4268,-4.5121,0.0,-4.6061,-4.6365,-4.5743,0.0,0.0,0.0,0.0,0.0,0.0,0.0,0.0,0.0,0.0,0.0,0.0,0.0,0.0,0.0,0.0,0.0,0.0,0.0,0.0,0.0,0.0,0.0,-3.3762,-3.3536,-3.3822,-3.4839,-3.4839,-3.5052,-3.5504,-3.5115,-3.4633,-3.3951,-3.3921,-3.4171,-3.4551,-3.4182,-3.459,-3.5561,-3.4866,-3.4906,-3.5482,-3.553,-3.4903,-3.393,-3.3957,-3.3131,-3.2048,-3.2706,-3.2946,-3.2991,0.0,0.0,0.0,0.0,0.0,0.0,0.0,0.0,0.0,0.0,0.0,0.0,0.0,0.0,0.0,0.0,-4.1039,-4.0627,-4.0388,-4.0046,-4.0585,-4.2314,-4.2349,-4.2467,-4.2581,-4.2282,-4.1878,-4.1384,-4.0726,-4.1399,-4.3329,-4.2851,-4.2791,-4.3075,-4.1222,-4.066,-4.1025,-3.9557,-3.9492,-4.0337,-3.9694,-3.932,-3.9185,-3.9529,-3.9454,-3.92,-3.9544,-3.9816,-3.986,-3.8796,-3.8682,-3.8726,-3.7197,-3.7596,0.0,0.0,0.0,-4.1924,0.0,0.0,-4.6007,-4.6845,-4.7429,-4.7698,0.0,0.0,0.0,0.0,0.0,0.0,0.0,0.0,0.0,0.0,0.0,0.0,0.0,0.0,0.0,0.0,0.0,0.0,0.0,0.0,0.0,0.0,0.0,0.0,-3.4385,-3.4394,-3.4691,-3.5504,-3.5668,-3.5782,-3.5782,-3.5108,-3.4386,-3.3505,-3.3482,-3.371,-3.4032,-3.3644,-3.4054,-3.5017,-3.4731,-3.4559,-3.4479,-3.4379,-3.36,-3.2506,-3.2388,-3.1916,-3.136,-3.2018,-3.2362,-3.2557,0.0,0.0,0.0,0.0,0.0,0.0,0.0,0.0,0.0,0.0,0.0,0.0,-4.302,-4.3545,-4.3249,-4.1376,-4.0541,-3.9747,-3.8823,-3.928,-4.0186,-4.143,-4.146,0.0,-4.3254,-4.2058,-4.1414,-4.1384,-4.0726,-4.1399,-4.3329,-4.3329,-4.3988,-4.511,-4.3288,-4.1668,-4.0412,-3.9833,-3.9901,-4.0337,-3.9694,-3.9035,-3.8586,-3.9858,-3.9559,-3.8616,-3.9888,-3.9635,-3.8695,-3.8142,-3.7646,-3.7303,-3.7844,-3.8822,-3.9976,0.0,0.0,0.0,0.0,-4.4392,0.0,-4.6052,0.0,0.0,0.0,0.0,0.0,0.0,0.0,0.0,0.0,0.0,0.0,0.0,0.0,0.0,0.0,0.0,0.0,0.0,0.0,0.0,0.0,0.0,0.0,0.0,0.0,0.0,-3.5469,-3.5424,-3.5439,-3.5504,-3.6165,-3.6554,-3.6554,-3.5922,-3.4946,-3.3507,-3.3519,-3.3165,-3.2537,-3.3141,-3.3465,-3.3567,-3.4226,-3.4479,-3.4445,-3.3894,-3.3239,-3.2542,-3.1909,-3.1197,-3.0642,-3.133,-3.1973,-3.2422,0.0,0.0,0.0,0.0,0.0,0.0,0.0,0.0,0.0,0.0,0.0,0.0,0.0,-4.257,-4.2164,-4.0538,-3.9602,-3.9534,-4.0467,-3.9871,-4.0209,-4.2,-4.2013,-4.2237,-4.2701,-4.2252,-4.1803,-4.1384,-4.0726,-4.119,-4.2701,-4.2731,-4.297,-4.3434,-4.2879,-4.2509,-4.216,-4.0386,-4.0164,-4.0935,-3.9843,-3.9275,-3.9095,-3.9589,-3.9738,-3.9666,-3.9413,-3.9532,-3.9682,-3.7966,-3.8021,-3.881,-3.8222,-3.942,-4.1267,-4.2386,-4.2981,-4.3389,0.0,0.0,0.0,0.0,0.0,0.0,0.0,0.0,0.0,0.0,0.0,0.0,0.0,0.0,0.0,0.0,0.0,0.0,0.0,0.0,0.0,0.0,0.0,0.0,0.0,0.0,0.0,0.0,0.0,0.0,-3.5549,-3.5943,-3.6228,-3.6228,-3.698,-3.6954,-3.5995,-3.4838,-3.4024,-3.3502,-3.3006,-3.2867,-3.3014,-3.2816,-3.2679,-3.2696,-3.2949,-3.3068,-3.306,-3.2479,-3.1821,-3.115,-3.0551,-3.0368,-3.0537,-3.0776,-3.13,-3.1795,0.0,0.0,0.0,0.0,0.0,0.0,0.0,0.0,0.0,-4.4108,0.0,0.0,0.0,0.0,-4.2436,-4.0647,-4.0246,-4.0406,-4.1189,-4.0796,-4.1096,-4.2374,-4.2581,-4.2701,-4.2686,-4.2686,-4.2252,-4.1384,-4.0935,-4.1175,-4.2043,-4.2252,-4.2357,-4.2402,-4.2475,-4.2718,-4.2862,-4.1234,-4.0905,-4.128,-4.0187,-3.9753,-3.9798,-4.0247,-4.0681,-4.0919,-3.9973,-4.0262,-4.0596,-3.8415,-3.8681,-3.9812,-3.942,-4.0492,-4.2005,-4.248,-4.2836,-4.2955,-4.2731,0.0,0.0,0.0,0.0,0.0,0.0,0.0,0.0,0.0,0.0,0.0,0.0,0.0,0.0,0.0,0.0,0.0,0.0,0.0,0.0,0.0,0.0,0.0,0.0,0.0,0.0,0.0,0.0,0.0,-3.6274,-3.6753,-3.7144,-3.735,-3.768,-3.7339,-3.6437,-3.4935,-3.3988,-3.3449,-3.2719,-3.2486,-3.2645,-3.2138,-3.1918,-3.1918,-3.1918,-3.2053,-3.2225,-3.1499,-3.0909,-3.037,-2.9794,-2.9834,-3.0253,-3.0687,-3.115,-3.1482,0.0,0.0,0.0,0.0,0.0,0.0,0.0,0.0,-4.5954,-4.5142,0.0,0.0,0.0,0.0,0.0,-4.2046,-4.2548,-4.226,-4.0649,-4.1954,-4.2655,-4.2434,-4.303,-4.3374,-4.3329,-4.3329,-4.2686,-4.1384,-4.1384,-4.1354,-4.1339,-4.1998,-4.2297,-4.2297,-4.2327,-4.2327,-4.2327,-4.2312,-4.1953,-4.1354,-4.0666,-4.0427,-4.0591,-4.1848,-4.2357,-4.2384,-4.1782,-4.1601,-4.1377,-3.9535,-3.9402,-4.0187,-4.1253,-4.2027,-4.2267,-4.1609,-4.1878,-4.2237,0.0,0.0,0.0,0.0,0.0,0.0,0.0,0.0,0.0,0.0,0.0,0.0,0.0,0.0,0.0,0.0,0.0,0.0,0.0,0.0,0.0,0.0,0.0,0.0,0.0,0.0,0.0,0.0,0.0,-3.698,-3.7764,-3.7822,-3.8189,-3.8875,-3.82,-3.7817,-3.7889,-3.6332,-3.4844,-3.3389,-3.2611,-3.1884,-3.119,-3.119,-3.119,-3.119,-3.119,-3.1596,-3.2158,-3.0945,-3.0491,-3.0416,-2.9816,-2.9564,-2.9744,-3.1031,-3.1452,-3.1482,0.0,0.0,0.0,0.0,0.0,0.0,-4.8471,-4.768,-4.6855,0.0,0.0,0.0,-4.3503,-4.2925,-4.3416,-4.5508,-4.3774,-4.3059,-4.4326,-4.3229,-4.2665,-4.303,-4.3254,-4.3344,-4.3329,0.0,0.0,0.0,0.0,0.0,0.0,0.0,0.0,-4.0965,-4.1444,-4.1654,-4.1624,-4.1145,-4.1384,-4.1998,-4.0861,-4.0965,-4.1803,-4.1698,-4.2237,-4.2857,-4.1433,-4.1803,-4.2725,-4.043,-4.0644,-4.1938,-4.2614,-4.2942,-4.294,-4.2282,-4.2551,-4.2716,-4.11,0.0,0.0,0.0,0.0,0.0,0.0,0.0,0.0,0.0,0.0,0.0,0.0,0.0,0.0,0.0,0.0,0.0,0.0,0.0,0.0,0.0,0.0,0.0,0.0,0.0,0.0,0.0,-3.7537,-3.7573,-3.7822,-3.8318,-3.8694,-3.8959,-3.8254,-3.7629,-3.7094,-3.5047,-3.3812,-3.3389,-3.2104,-3.1393,-3.119,-3.119,-3.119,-3.119,-3.119,-3.1309,-3.1398,-3.0185,-2.9694,-2.9667,-2.9078,-2.916,-2.9684,-3.0492,-3.1106,-3.1482,0.0,0.0,0.0,0.0,0.0,0.0,-4.9061,-4.8208,-4.7402,0.0,0.0,0.0,-4.4445,-4.4301,-4.5246,-4.746,-4.5739,-4.4876,-4.5818,-4.4297,-4.3378,-4.3314,-4.3599,-4.3748,-4.3748,0.0,0.0,0.0,0.0,0.0,0.0,0.0,0.0,-4.0412,0.0,-4.1024,-4.1058,-4.0274,-4.0756,0.0,-4.1115,0.0,0.0,-4.2342,-4.3015,0.0,0.0,-4.2673,-4.3945,-4.144,-4.1594,-4.2908,-4.2962,-4.2925,-4.2746,-4.1818,-4.1998,-4.2147,-4.0442,-4.0666,-4.122,-4.0561,0.0,0.0,-4.1294,-4.1669,0.0,0.0,0.0,0.0,0.0,0.0,0.0,0.0,0.0,0.0,0.0,0.0,0.0,0.0,0.0,0.0,0.0,0.0,0.0,0.0,-3.8525,-3.843,-3.8723,-3.9156,-3.9276,-3.9005,-3.8278,-3.755,-3.6789,-3.4539,-3.3406,-3.3389,-3.1901,-3.119,-3.119,-3.119,-3.119,-3.119,-3.119,-3.1055,-3.074,-2.9805,-2.9406,-2.9366,-2.9109,-2.925,-2.9699,-3.0597,-3.118,-3.1511,0.0,0.0,0.0,0.0,0.0,0.0,-4.9958,-4.8833,-4.8031,0.0,-4.674,-4.5996,-4.6647,-4.7565,-4.8243,-4.8567,-4.7869,-4.6972,-4.6174,-4.5325,-4.445,-4.3554,-4.4107,-4.4421,-4.4421,-4.4347,0.0,0.0,0.0,0.0,0.0,0.0,0.0,0.0,0.0,0.0,-4.05,0.0,0.0,-4.1384,-4.1384,-4.2207,0.0,0.0,-4.4107,-4.4997,-4.3274,-4.3774,-4.4929,-4.2704,-4.2526,-4.324,-4.2656,-4.2476,-4.2222,-4.098,-4.1085,-4.1309,-3.9993,-4.0546,-4.1309,-4.0591,-4.0891,0.0,-4.11,-4.116,-4.1609,0.0,0.0,0.0,0.0,0.0,0.0,0.0,0.0,0.0,0.0,0.0,0.0,0.0,0.0,0.0,0.0,0.0,-3.9439,-4.0795,-3.9737,-3.9368,-4.007,-4.007,-3.9749,-3.9005,-3.8278,-3.755,-3.6789,-3.4539,-3.3406,-3.3389,-3.1901,-3.119,-3.119,-3.119,-3.119,-3.119,-3.119,-3.0878,-3.0251,-2.9629,-2.9409,-2.9434,-2.9565,-2.9624,-2.9834,-3.1076,-3.1482,-3.1571,-4.7547,0.0,0.0,0.0,0.0,0.0,0.0,-5.0189,-4.9814,-5.0425,-4.9155,-4.8577,-4.9801,-4.8957,-4.8807,-4.9885,-4.8576,-4.7637,-4.7415,-4.6031,-4.5146,-4.4915,-4.5035,-4.5095,-4.5095,-4.4586,0.0,0.0,0.0,0.0,0.0,0.0,0.0,0.0,0.0,0.0,0.0,0.0,0.0,-4.1384,-4.1384,0.0,-4.4062,-4.3539,-4.3823,-4.4421,-4.3492,-4.4109,-4.517,-4.4117,-4.3588,-4.3314,-4.318,-4.3135,-4.2985,-4.2207,-4.2447,-4.2671,-4.1354,-4.1564,-4.1878,-4.0696,-4.0891,0.0,-3.9334,-3.9813,-4.0666,0.0,0.0,0.0,0.0,0.0,0.0,0.0,0.0,0.0,0.0,0.0,0.0,0.0,0.0,0.0,0.0,0.0,-4.0433,-4.013,-3.999,-3.9952,-4.007,-4.007,-3.9749,-3.9005,-3.8278,-3.755,-3.6789,-3.4539,-3.3406,-3.3389,-3.1901,-3.119,-3.119,-3.119,-3.119,-3.119,-3.119,-3.0878,-3.0251,-2.9629,-2.9421,-2.9508,-2.9554,-2.9879,-3.0417,-3.124,-3.1482,-3.1571,-4.7428,-4.849,0.0,0.0,0.0,0.0,0.0,-5.0011,-4.9949,-5.1065,-5.0659,-5.0282,-5.0107,-5.0005,-4.9997,-5.0365,-4.8828,-4.7818,-4.7818,-4.6183,-4.5155,-4.4825,-4.4811,-4.496,-4.5289,-4.4332,-4.3988,0.0,0.0,0.0,0.0,0.0,0.0,0.0,0.0,0.0,0.0,0.0,-4.045,-4.1997,-4.1596,0.0,-4.3778,-4.3464,-4.3539,-4.3778,-4.3449,-4.3763,-4.4317,-4.4317,-4.3868,0.0,-4.3329,-4.3329,-4.321,-4.2551,-4.2581,-4.2566,-4.125,-4.1369,-4.1639,-4.0651,-4.0651,0.0,0.0,-3.9664,-4.0098,0.0,0.0,0.0,0.0,0.0,0.0,0.0,0.0,0.0,0.0,0.0,0.0,0.0,0.0,0.0,0.0,0.0,-4.0694,-4.0054,-4.0052,-4.007,-4.007,-4.007,-3.9749,-3.9005,-3.8278,-3.755,-3.6789,-3.4539,-3.3406,-3.3389,-3.1901,-3.119,-3.119,-3.119,-3.119,-3.119,-3.119,-3.0699,-2.9837,-2.9881,-2.9735,-2.9544,-2.9606,-2.9968,-3.0627,-3.1644,-3.2018,-3.2153,-4.7107,-4.8088,0.0,0.0,0.0,0.0,0.0,0.0,-4.9695,-5.1048,-5.171,-5.1612,-5.0225,-5.0944,-5.1259,-5.0723,-4.903,-4.8047,-4.8065,-4.6569,-4.5394,-4.4721,-4.4825,-4.502,-4.5289,-4.4257,-4.4167,0.0,0.0,0.0,0.0,0.0,0.0,0.0,0.0,0.0,-4.0117,0.0,0.0,-4.2909,0.0,-4.2621,-4.3329,-4.3551,-4.363,-4.363,-4.3756,-4.3756,-4.3626,-4.4248,-4.3923,-4.3329,-4.3329,-4.3329,0.0,0.0,0.0,-4.2282,-4.11,-4.116,0.0,0.0,0.0,-4.0487,0.0,0.0,0.0,0.0,0.0,0.0,0.0,0.0,0.0,0.0,0.0,0.0,0.0,0.0,0.0,0.0,0.0,0.0,0.0,0.0,-4.0762,-4.0121,-4.007,-4.007,-4.007,-4.007,-3.9817,-3.9225,-3.8362,-3.7618,-3.7009,-3.4742,-3.3541,-3.3389,-3.2053,-3.1326,-3.119,-3.119,-3.119,-3.119,-3.119,-3.0559,-2.9649,-3.0296,-3.0253,-2.9795,-2.9915,-3.0353,-3.1046,-3.2146,-3.2553,-3.2675,-4.7682,-4.8443,-4.9001,0.0,0.0,0.0,0.0,0.0,-5.027,-5.1099,-5.2404,-5.3087,-5.2532,-5.2097,-5.1771,-5.1654,-4.9817,-4.8844,-4.9087,-4.7845,-4.6785,-4.6127,-4.6651,-4.6441,-4.5319,-4.5155,-4.487,-4.4421,0.0,0.0,0.0,0.0,0.0,0.0,-4.1744,0.0,0.0,0.0,-4.3174,0.0,-4.4559,-4.4157,0.0,-4.4297,-4.4662,-4.4721,-4.5545,-4.5342,-4.4677,0.0,-4.4143,-4.3329,0.0,-4.3329,-4.3329,-4.324,0.0,0.0,0.0,0.0,0.0,0.0,-4.0846,0.0,0.0,0.0,-3.9993,-3.8945,0.0,0.0,0.0,0.0,0.0,0.0,0.0,0.0,0.0,0.0,0.0,0.0,0.0,0.0,0.0,0.0,0.0,-4.0138,-4.007,-4.007,-4.007,-4.007,-4.0037,-3.9952,-3.8633,-3.7872,-3.7787,-3.5504,-3.4049,-3.3389,-3.256,-3.1816,-3.119,-3.119,-3.119,-3.119,-3.119,-3.0838,-3.0258,-3.098,-3.094,-3.0464,-3.1133,-3.1782,-3.2384,-3.2539,-3.26,-3.269,-4.7293,-4.8206,-4.9001,-4.9001,0.0,0.0,0.0,0.0,-5.235,-5.1352,-5.2754,-5.3691,-5.3207,-5.2013,-5.1309,-5.1425,-5.0347,-4.9398,-4.8805,-4.8177,-4.7578,-4.692,-4.68,-4.6471,-4.5903,-4.5125,-4.4586,-4.4317,-4.3658,0.0,0.0,0.0,0.0,0.0,-4.2075,0.0,-4.2588,0.0,-4.3728,0.0,0.0,0.0,0.0,-4.5488,-4.5634,-4.5561,-4.5431,-4.5153,-4.4737,0.0,-4.363,0.0,0.0,0.0,0.0,-4.3329,0.0,0.0,0.0,0.0,0.0,0.0,0.0,0.0,-3.9753,0.0,-3.9783,0.0,0.0,0.0,0.0,0.0,0.0,0.0,-4.0716,0.0,0.0,0.0,0.0,0.0,0.0,0.0,0.0,0.0,0.0,0.0,0.0,-4.007,-4.007,-4.007,-4.007,-4.007,-3.9073,-3.8328,-3.7905,-3.6062,-3.4556,-3.3389,-3.2645,-3.1901,-3.119,-3.119,-3.119,-3.119,-3.119,-3.0878,-3.0392,-3.1528,-3.1607,-3.1255,-3.2771,-3.3043,-3.2749,-3.3952,-3.4124,-3.3877,-4.7208,-4.8139,-4.9001,-4.9001,0.0,0.0,0.0,0.0,-5.3298,-5.1362,-5.2682,-5.3644,-5.3212,-5.2052,-5.1705,-5.2507,-5.1468,-5.0376,-4.9419,-4.885,-4.8102,-4.7085,-4.6756,-4.6411,-4.6052,-4.508,-4.4644,-4.4674,0.0,0.0,0.0,0.0,0.0,0.0,0.0,-4.3299,-4.38,0.0,-4.5017,-4.5961,-4.5961,-4.609,-4.6399,-4.6306,-4.6342,-4.6232,-4.5349,-4.4919,-4.4725,-4.3777,-4.3401,0.0,-4.3329,0.0,0.0,0.0,0.0,0.0,-4.1609,0.0,0.0,0.0,0.0,0.0,0.0,0.0,0.0,0.0,0.0,0.0,0.0,0.0,-3.9437,-3.9912,0.0,-4.1047,0.0,0.0,0.0,0.0,0.0,0.0,0.0,0.0,0.0,0.0,-4.0189,0.0,-4.007,-4.007,-4.007,-4.007,-3.9377,-3.865,-3.7922,-3.6603,-3.5182,-3.3694,-3.2949,-3.2205,-3.1478,-3.1275,-3.119,-3.119,-3.119,-3.1076,-3.0958,-3.2177,-3.243,-3.2256,-3.4143,-3.4176,-3.3372,-3.5099,-3.5364,-3.5013,-4.7885,-4.8494,-4.9001,-4.9001,0.0,0.0,0.0,0.0,0.0,-5.0942,-5.2013,-5.29,-5.2844,-5.2796,-5.3607,-5.582,-5.3638,-5.2112,-5.2082,-5.0287,-4.8371,-4.6441,-4.695,-4.6666,-4.5349,-4.5289,-4.539,-4.5696,0.0,0.0,0.0,0.0,0.0,0.0,-4.5277,-4.5365,-4.5447,-4.7055,-4.7747,-4.7781,-4.7781,-4.7419,-4.6743,0.0,-4.6616,-4.6658,-4.5827,0.0,0.0,-4.4065,-4.3579,0.0,0.0,0.0,0.0,0.0,0.0,0.0,0.0,0.0,0.0,-3.9768,0.0,0.0,0.0,0.0,-4.069,0.0,0.0,0.0,0.0,-4.1342,-4.0949,-4.0925,-4.1074,0.0,0.0,0.0,0.0,0.0,0.0,0.0,0.0,0.0,0.0,-4.1221,-4.0493,0.0,-4.007,-4.007,-4.007,-4.007,-3.9377,-3.865,-3.7922,-3.7127,-3.5977,-3.4455,-3.3728,-3.2983,-3.2222,-3.1512,-3.119,-3.119,-3.119,-3.1596,-3.229,-3.3043,-3.3389,-3.359,-3.5021,-3.5159,-3.4633,-3.5422,-3.5694,-3.5751,-4.8646,-4.8832,-4.9001,-4.9001,-4.9001,0.0,0.0,-5.1597,0.0,0.0,-5.3888,0.0,0.0,-5.5755,-5.5475,-5.6645,-5.5194,-5.3608,-5.2291,-5.075,-4.9419,-4.8312,-4.8268,-4.8079,-4.7604,-4.7917,-4.757,-4.6719,0.0,0.0,0.0,0.0,0.0,0.0,0.0,-4.5454,0.0,0.0,0.0,0.0,0.0,-4.7175,-4.6101,0.0,0.0,-4.5823,-4.4903,-4.4102,0.0,-4.2539,-4.2138,-4.2043,-4.2043,-4.2043,-4.2117,-4.2566,-4.2387,0.0,0.0,0.0,-4.1713,-4.0397,0.0,0.0,0.0,0.0,0.0,0.0,0.0,0.0,0.0,-4.1876,-4.1808,-4.1798,-4.1444,-4.1211,0.0,0.0,0.0,0.0,0.0,0.0,0.0,0.0,0.0,-4.0544,-4.0223,-4.007,0.0,-4.007,-4.007,-4.007,-3.9834,-3.936,-3.8633,-3.7905,-3.6755,-3.5233,-3.4839,-3.3813,-3.233,-3.2911,-3.2718,-3.1935,-3.2442,-3.2797,-3.3119,-3.437,-3.4576,-3.4331,-3.5788,-3.5864,-3.529,-3.6079,-3.6342,-3.6549,-4.939,-4.9187,-4.9001,-4.9001,0.0,0.0,0.0,0.0,0.0,0.0,-5.4964,0.0,-5.7876,0.0,-5.675,0.0,-5.6286,-5.4581,-5.2351,-5.1301,-5.0319,-4.9167,-4.9306,-4.9376,-4.9376,-4.9372,-4.8971,-4.8117,0.0,-4.7598,0.0,0.0,0.0,0.0,0.0,-4.5754,-4.643,-4.6684,-4.7225,0.0,0.0,-4.6439,0.0,0.0,-4.5213,-4.4532,0.0,-4.2705,-4.2252,-4.1368,-4.119,-4.1384,-4.1384,-4.1384,-4.1459,-4.1893,-4.1713,-4.1414,-4.1609,-4.1669,0.0,-4.0701,-4.1235,0.0,-4.1283,0.0,0.0,0.0,0.0,0.0,0.0,-4.297,-4.2858,-4.2325,-4.1862,-4.1407,0.0,-4.0392,0.0,0.0,0.0,0.0,0.0,0.0,-4.1508,-4.0544,-4.0223,-4.007,0.0,0.0,-4.007,-4.007,-4.007,-3.9865,-3.9276,-3.8542,-3.7627,-3.6603,-3.5734,-3.4611,-3.3379,-3.3762,-3.3488,-3.2713,-3.3474,-3.3947,-3.4242,-3.5215,-3.5459,-3.5382,-3.6329,-3.641,-3.6052,-3.681,-3.7455,-3.803,-5.0084,-4.956,-4.912,0.0,-4.9661,0.0,0.0,0.0,-5.3851,0.0,-5.5187,-5.6143,-5.7079,-5.7288,-5.7513,-5.8068,-5.7047,-5.52,-5.2587,-5.2091,-5.1026,-4.9093,-4.9962,-5.0474,-5.0474,-4.9828,-4.9669,-4.9813,0.0,0.0,0.0,0.0,0.0,0.0,-4.6701,0.0,-4.5703,-4.643,-4.7158,-4.775,-4.6963,-4.5336,-4.3306,-4.3169,0.0,-4.297,-4.128,-4.1055,-4.1432,-4.0616,-4.0771,-4.128,-4.128,-4.128,-4.1294,-4.1324,-4.1324,-4.1205,-4.0606,-4.0442,-4.0555,-4.0716,0.0,0.0,0.0,0.0,-4.3366,0.0,0.0,0.0,0.0,0.0,-4.4028,-4.2523,-4.2252,-4.1728,-4.0273,-4.007,0.0,0.0,0.0,0.0,0.0,-4.1593,-4.1187,-4.1153,-4.0493,-4.007,0.0,0.0,0.0,-4.007,-4.0121,-4.0044,-3.9863,-3.9084,-3.8622,-3.8394,-3.6409,-3.5382,-3.5215,-3.4089,-3.3491,-3.3508,-3.4269,-3.5013,-3.5588,-3.5694,-3.6105,-3.6675,-3.6748,-3.6798,-3.6878,-3.7623,-3.8761,-4.007,-5.0084,-5.0388,-5.0659,0.0,-5.0338,-5.0298,0.0,0.0,0.0,0.0,-5.6122,-5.7196,-5.8411,-5.9348,-5.9389,-5.7955,-5.7977,0.0,0.0,0.0,0.0,-5.1581,-5.1556,-5.1525,-5.1525,-5.1566,-5.1614,-5.1648,0.0,0.0,-4.8968,0.0,0.0,0.0,0.0,0.0,-4.4925,-4.5669,-4.6092,-4.6186,-4.5384,-4.4296,0.0,0.0,-4.1346,-4.128,-4.0878,-4.0416,-3.9938,-3.9736,-3.9783,-3.9918,-3.9918,-3.9918,-4.0023,-4.0502,-4.0651,-4.0726,-4.104,-4.1607,-4.1991,-4.1581,-4.2386,-4.3295,0.0,0.0,0.0,0.0,0.0,0.0,0.0,0.0,0.0,-4.2439,-4.183,-4.1153,-4.0206,-4.007,0.0,-4.0849,0.0,0.0,0.0,-4.0984,-4.0967,-4.0409,-4.0189,0.0,0.0,0.0,0.0,-4.007,-4.0497,-4.0694,-4.0626,-4.0332,-3.9645,-3.8597,-3.794,-3.6609,-3.4746,-3.5359,-3.5095,-3.4286,-3.5622,-3.5988,-3.5678,-3.6783,-3.6686,-3.5917,-3.709,-3.7858,-3.8374,-3.857,-3.887,-3.9315,-5.0591,-5.093,0.0,-5.164,0.0,0.0,-5.2797,0.0,0.0,-5.6867,-5.7112,0.0,-5.9107,-5.9887,-5.9753,-5.8279,-5.7587,0.0,-5.532,0.0,0.0,-5.2296,-5.2439,-5.2627,-5.2627,-5.2404,-5.2147,-5.1826,0.0,0.0,-4.8494,0.0,0.0,0.0,0.0,-4.4587,-4.4621,-4.5382,-4.531,-4.4658,-4.4445,0.0,0.0,-4.108,-4.0432,-4.0115,-4.0115,-3.9793,-3.9424,-3.9424,-3.9424,-3.9481,-3.9864,-3.999,-4.0137,-4.0909,-4.1086,-4.1163,-4.1549,-4.1774,-4.2003,-4.2309,-4.2893,-4.3482,-4.3772,-4.4253,-4.4587,0.0,0.0,0.0,0.0,0.0,0.0,-4.1982,-4.1204,-4.0561,-4.0138,0.0,0.0,0.0,-4.0629,0.0,0.0,-4.046,-4.0544,-4.0104,0.0,0.0,0.0,0.0,0.0,-4.0449,-4.1013,-4.1296,-4.1296,-4.0863,-4.0129,-3.9063,-3.8351,-3.6908,-3.4912,-3.5718,-3.5501,-3.4638,-3.6125,-3.6498,-3.6145,-3.6957,-3.6969,-3.6625,-3.7817,-3.8761,-3.9437,-3.9437,-3.9437,-3.9489,-5.1352,-5.1454,0.0,0.0,0.0,0.0,0.0,-5.482,0.0,-5.8605,0.0,-5.7809,-5.9119,-5.9361,-5.9036,-5.8213,0.0,-5.5031,-5.3842,-5.3373,-5.2874,-5.2247,-5.2974,-5.3348,-5.3348,-5.2469,-5.1758,-5.1217,0.0,0.0,0.0,0.0,0.0,0.0,0.0,0.0,0.0,-4.5149,-4.4591,-4.3355,-4.3764,-4.259,-4.069,-4.069,-4.0239,-3.961,-3.9666,-3.961,-3.9409,-3.9553,-3.9493,-3.9617,-4.043,-4.0754,-4.0888,-4.1596,-4.1869,-4.1869,-4.1869,-4.1421,-4.1222,-4.2665,-4.2591,-4.2601,-4.4002,-4.4282,-4.4282,-4.4282,-4.4367,0.0,0.0,0.0,0.0,-4.1271,-4.051,0.0,0.0,0.0,0.0,0.0,0.0,0.0,0.0,0.0,0.0,0.0,0.0,0.0,0.0,0.0,0.0,0.0,-4.1402,0.0,-4.1664,0.0,-4.0288,-3.9394,-3.8225,-3.6874,-3.5434,-3.5547,-3.527,-3.4793,-3.6118,-3.6694,-3.6685,-3.6742,-3.7203,-3.8035,-3.8635,-3.9368,-4.007,-4.007,-4.007,-4.007,-5.1995,0.0,0.0,0.0,0.0,-5.5108,-5.7188,-5.7404,-5.7541,-5.8017,-5.8664,-5.8772,-5.7921,-5.8189,-5.7691,-5.578,-5.6177,0.0,0.0,0.0,0.0,-5.4157,-5.3112,-5.252,-5.252,-5.1183,-5.0727,0.0,0.0,0.0,0.0,0.0,0.0,0.0,0.0,0.0,-4.4587,-4.3948,0.0,-4.3185,-4.1851,-4.1122,-4.069,-4.069,-4.0622,-4.0569,-4.1295,-4.0638,-3.9481,-4.0239,-4.0078,-3.9683,-4.0576,-4.0833,-4.0896,-4.1023,-4.1087,-4.1087,-4.1087,-4.1051,-4.1065,-4.1313,-4.1866,-4.2345,-4.2658,-4.2692,-4.2692,-4.2692,-4.32,-4.325,-4.2033,0.0,0.0,0.0,0.0,0.0,0.0,0.0,0.0,0.0,0.0,-4.046,0.0,0.0,0.0,0.0,0.0,0.0,0.0,0.0,0.0,0.0,0.0,0.0,0.0,0.0,0.0,-3.8832,-3.8618,-3.7452,-3.5594,-3.5578,-3.555,-3.5473,-3.6342,-3.6694,-3.6741,-3.7345,-3.8019,-3.8745,-3.8854,-3.9368,-4.007,-4.007,-4.007,-4.007,-5.2773,0.0,0.0,0.0,0.0,0.0,0.0,-5.7758,0.0,-5.7912,-5.756,-5.7199,-5.6639,-5.7139,-5.7063,-5.5996,-5.577,-5.5513,-5.5158,-5.4042,-5.3399,-5.3399,-5.2334,-5.1742,-5.1742,-5.0287,-4.9881,-5.0642,0.0,0.0,0.0,0.0,0.0,0.0,0.0,-4.4587,0.0,0.0,0.0,-4.3246,-4.2395,-4.1804,-4.1346,-4.1346,-4.1125,-4.0891,-4.1279,-4.0655,-3.9714,-4.0504,-4.0289,-3.985,-4.0704,-4.0961,-4.1021,-4.1493,-4.1626,-4.1626,-4.1626,-4.1399,-4.1226,-4.1593,-4.1698,-4.183,-4.2202,-4.2286,-4.2286,-4.2286,-4.2574,-4.2506,-4.1407,-4.0916,0.0,0.0,0.0,0.0,0.0,0.0,-4.0206,0.0,0.0,0.0,0.0,0.0,0.0,0.0,0.0,0.0,0.0,0.0,0.0,0.0,0.0,0.0,0.0,0.0,0.0,-3.822,-3.822,-3.7114,-3.5043,-3.5363,-3.5361,-3.5056,-3.6182,-3.6641,-3.6731,-3.7874,-3.858,-3.8962,-3.9368,-3.9782,-4.007,-4.007,-4.007,-4.007,0.0,-5.3946,0.0,0.0,-5.5449,0.0,-5.6713,-5.7309,-5.7708,-5.792,-5.6603,-5.5646,-5.5714,-5.6089,-5.6207,-5.5869,-5.4769,-5.4042,-5.389,-5.2739,-5.208,-5.208,-5.1369,-5.098,-5.098,-4.9526,-4.8968,0.0,0.0,0.0,0.0,0.0,0.0,0.0,0.0,0.0,0.0,0.0,-4.3948,-4.3306,-4.3108,-4.2583,-4.1981,-4.2012,-4.1689,-4.1206,-4.1168,-4.0712,-4.0194,-4.076,-4.0446,-3.9978,-4.0795,-4.1038,-4.1166,-4.1873,-4.2066,-4.2066,-4.2066,-4.1525,-4.1102,-4.1677,-4.139,-4.1119,-4.1694,-4.1813,-4.1813,-4.1813,-4.1813,-4.1694,-4.1288,-4.1068,0.0,0.0,0.0,0.0,0.0,0.0,0.0,0.0,0.0,0.0,-4.0138,0.0,0.0,0.0,0.0,0.0,0.0,0.0,0.0,0.0,0.0,0.0,-4.0733,0.0,-3.973,0.0,-3.7817,-3.6726,-3.4755,-3.5247,-3.5324,-3.4997,-3.6153,-3.6783,-3.7188,-3.8564,-3.9139,-3.9209,-3.9833,-4.007,-4.007,-4.007,-4.007,-4.0121,0.0,0.0,0.0,0.0,0.0,0.0,0.0,-5.6865,-5.7139,-5.784,-5.7183,-5.644,-5.5801,-5.5175,-5.4228,-5.2841,-5.2604,-5.2232,-5.1572,-5.1403,-5.1319,-5.1319,-5.0591,-5.0202,-5.0202,-4.8765,-4.7716,0.0,0.0,-4.6701,0.0,0.0,0.0,0.0,0.0,0.0,0.0,-4.3756,-4.3366,-4.3246,-4.2458,-4.2062,-4.1981,-4.2113,-4.2134,-4.2061,-4.2172,-4.1685,-4.1079,-4.1163,-4.0579,-4.0038,-4.0886,-4.1184,-4.1201,-4.1305,-4.1305,-4.1305,-4.1305,-4.0747,-4.0206,-4.0273,-4.0223,-4.0206,-4.0273,-4.029,-4.029,-4.029,-4.029,-4.0476,-4.1085,-4.0646,-4.0155,0.0,0.0,0.0,0.0,0.0,-4.007,-4.007,0.0,0.0,0.0,0.0,0.0,0.0,0.0,0.0,0.0,0.0,0.0,0.0,0.0,-4.0303,-4.0171,-4.0154,0.0,-3.7825,-3.7825,-3.699,-3.5439,-3.5499,-3.5852,-3.6399,-3.6523,-3.7408,-3.8728,-3.961,-4.002,-4.002,-4.007,-4.007,-4.007,-4.007,-4.007,-4.0171,0.0,0.0,0.0,0.0,0.0,0.0,0.0,-5.6458,-5.6064,-5.5869,-5.5619,-5.5192,-5.4465,-5.3687,-5.2976,-5.235,-5.1911,-5.1522,-5.1234,-5.0794,-5.0541,-5.0541,-4.9407,-4.8781,-4.8781,-4.7344,-4.665,0.0,0.0,0.0,0.0,0.0,0.0,0.0,0.0,-4.4587,-4.457,-4.4253,-4.4064,-4.4064,-4.368,-4.3264,-4.2833,-4.2912,-4.239,-4.1586,-4.1623,-4.117,-4.0527,-4.0527,-4.0288,-4.0098,-4.0408,-4.0527,-4.0527,-4.0527,-4.0527,-4.0527,-4.0527,-4.0307,-4.007,-4.007,-4.007,-4.007,-4.007,-4.007,-4.007,-4.007,-4.007,-4.0172,-4.0476,-4.029,-4.007,0.0,0.0,0.0,0.0,0.0,0.0,-4.007,0.0,-4.007,0.0,0.0,0.0,0.0,0.0,0.0,0.0,0.0,0.0,-4.1268,0.0,-4.0417,-4.0121,-4.007,-3.9558,-3.8469,-3.8469,-3.7905,-3.689,-3.689,-3.7279,-3.7987,-3.7987,-3.8619,-3.9662,-3.9969,-4.007,-4.007,-4.007,-4.007,-4.007,-4.007,-4.0286,-4.0625,-5.5544,0.0,-5.583,0.0,-5.6045,-5.5848,-5.6421,-5.5865,-5.5132,-5.4581,-5.4356,-5.3909,-5.3236,-5.2673,-5.2119,-5.1674,-5.1183,-5.0693,-5.027,-4.9746,-4.9357,-4.9137,-4.8139,0.0,-4.7581,-4.6346,-4.5855,-4.6143,-4.5314,0.0,0.0,0.0,0.0,0.0,-4.4333,-4.4451,-4.4248,-4.4485,-4.4316,-4.3927,-4.4147,-4.3775,-4.3064,-4.2844,-4.2117,-4.117,-4.095,-4.0527,-4.007,-4.007,-4.007,-4.007,-4.007,-4.007,-4.007,-4.007,-4.007,-4.007,-4.007,-4.007,-4.007,-4.007,-4.007,-4.007,-4.007,-4.007,-4.007,-4.007,-4.007,-4.007,-4.007,-4.007,-4.007,-4.007,0.0,0.0,0.0,0.0,0.0,0.0,-4.007,-4.007,-4.007,0.0,0.0,0.0,0.0,0.0,0.0,0.0,0.0,0.0,0.0,0.0,0.0,0.0,-3.988,-3.8908,-3.8908,-3.8525,-3.7822,-3.8035,-3.8414,-3.8908,-3.9139,-3.961,-4.007,-4.007,-4.007,-4.007,-4.007,-4.0204,-4.0336,-4.0336,-4.0672,-4.1178,-5.5459,-5.5611,-5.5611,-5.5629,-5.5611,-5.5611,-5.5629,-5.4989,-5.4517,-5.4517,-5.3832,-5.3053,-5.2414,-5.2295,-5.1701,-5.0232,-5.0101,-4.9492,-4.8054,-4.7953,-4.7614,0.0,0.0,-4.6802,-4.6802,-4.6075,-4.5348,-4.4604,0.0,0.0,-4.2354,0.0,0.0,-4.457,-4.4587,-4.4147,-4.3487,-4.4248,-4.3707,-4.2388,-4.3132,-4.298,-4.2219,-4.1508,-4.1221,-4.1102,-4.0358,-4.0087,-4.007,-4.007,-4.007,-4.007,-4.007,-4.007,-4.007,-4.007,-4.007,-4.007,-4.007,-4.007,-4.007,-4.007,-4.007,-4.007,-4.007,-4.007,-4.007,-4.007,-4.007,-4.007,-4.007,-4.007,-4.007,-4.007,0.0,0.0,0.0,0.0,0.0,-4.007,-4.007,-4.007,-4.007,0.0,0.0,0.0,0.0,0.0,0.0,0.0,0.0,-4.0856,-4.1102,0.0,-4.0087,-4.0815,-4.04,-3.8908,-3.8908,-3.8525,-3.7806,-3.858,-3.8908,-3.8962,-3.9731,-4.007,-4.007,-4.007,-4.007,-4.007,-4.007,-4.04,-4.0903,-4.0903,-4.1268,-4.1895,-5.5328,-5.5592,-5.5592,-5.5592,-5.5592,-5.5409,-5.4858,-5.4572,-5.4036,-5.2923,-5.2563,-5.1925,-5.0659,-5.1035,-5.1036,0.0,-4.9079,-4.8094,0.0,-4.7141,-4.7056,-4.6802,-4.6312,-4.6058,-4.6058,-4.5314,-4.457,-4.3792,0.0,0.0,0.0,-4.3842,-4.3775,-4.3047,-4.3555,-4.3369,-4.2675,-4.2912,-4.2743,-4.2303,-4.2557,-4.2202,-4.1525,-4.1288,-4.0882,-4.0409,-4.0155,-4.007,-4.007,-4.007,-4.007,-4.007,-4.007,-4.007,-4.007,-4.007,-4.007,-4.007,-4.007,-4.007,-4.007,-4.007,-4.007,-4.007,-4.007,-4.007,-4.007,-4.007,-4.007,-4.007,-4.007,-4.007,-4.007,-4.007,0.0,0.0,0.0,0.0,0.0,-4.007,-4.04,-4.0497,0.0,-4.0417,0.0,0.0,0.0,0.0,0.0,0.0,0.0,0.0,-4.1172,0.0,-4.1593,-4.1322,-4.0965,-4.0469,-3.9966,-3.961,-3.9401,-3.961,-3.9731,-3.9731,-4.002,-4.007,-4.007,-4.007,-4.0336,-4.0655,-4.0655,-4.1013,-4.1534,-4.1534,-4.1895,-4.244,-5.3592,-5.3794,-5.3794,-5.3794,-5.3794,-5.3518,-5.2692,-5.2839,-5.2582,-5.1261,-5.1353,-5.1083,-4.981,-4.9884,0.0,-4.9536,-4.841,-4.7441,-4.6772,-4.6265,-4.5821,-4.5534,-4.5094,-4.4722,-4.4434,0.0,0.0,-4.2997,-4.32,-4.32,-4.2997,-4.3217,-4.2946,-4.2303,-4.2777,-4.2591,-4.1897,-4.2168,-4.1965,-4.1491,-4.1779,-4.1441,-4.0781,-4.0781,-4.0493,-4.007,-4.007,-4.007,-4.007,-4.007,-4.007,-4.007,-4.007,-4.007,-4.007,-4.007,-4.007,-4.007,-4.007,-4.007,-4.007,-4.007,-4.007,-4.007,-4.007,-4.007,-4.007,-4.007,-4.007,-4.007,-4.007,-4.007,-4.007,-4.007,0.0,-4.007,-4.007,0.0,0.0,0.0,0.0,0.0,0.0,-4.0703,0.0,0.0,0.0,0.0,0.0,0.0,0.0,-4.1187,-4.1745,0.0,-4.2286,-4.183,-4.1474,-4.1187,-4.0443,-4.007,-4.007,-4.007,-4.007,-4.007,-4.007,-4.007,-4.0121,-4.0336,-4.0625,-4.0903,-4.1133,-4.1621,-4.2121,-4.2121,-4.2501,-4.3014,-5.0692,-5.071,0.0,0.0,-5.0747,0.0,-4.9554,-5.0068,-5.0251,-4.9426,-4.9976,-5.0178,-4.9407,-4.8579,-4.8211,-4.8493,0.0,0.0,0.0,-4.5285,-4.4181,-4.3453,-4.3369,0.0,-4.2303,-4.298,-4.2997,-4.2286,-4.1559,-4.1576,-4.2286,-4.1593,-4.1627,-4.2219,-4.2219,-4.1813,-4.117,-4.1847,-4.1339,-4.0138,-4.0849,-4.0696,-4.007,-4.007,-4.007,-4.007,-4.007,-4.007,-4.007,-4.007,-4.007,-4.007,-4.007,-4.007,-4.007,-4.007,-4.007,-4.007,-4.007,-4.007,-4.007,-4.007,-4.007,-4.007,-4.007,-4.007,-4.007,-4.007,-4.007,-4.007,-4.007,-4.007,-4.007,-4.007,-4.007,-4.0121,-4.0171,0.0,0.0,0.0,0.0,0.0,0.0,-4.0938,-4.075,0.0,0.0,0.0,0.0,0.0,-4.1204,-4.1204,-4.254,-4.2946,-4.2303,-4.2236,-4.1899,-4.1154,-4.0493,-4.0171,-4.0204,-4.0204,-4.0221,-4.0171,-4.0221,-4.0204,-4.0204,-4.075,-4.0995,-4.1087,-4.1621,-4.2244,-4.275,-4.275,-4.305,-4.3497,0.0,0.0,-5.0068,-5.0692,-5.0288,-4.9572,-4.8728,-4.8251,-4.77,-4.6874,-4.6929,-4.6985,-4.6801,-4.6241,-4.6119,-4.6737,-4.6187,-4.5789,-4.5736,-4.4446,-4.3606,-4.342,-4.2861,-4.2472,-4.2286,-4.2472,-4.2472,-4.2286,-4.1559,-4.1576,-4.2286,-4.2117,-4.183,-4.1457,-4.1457,-4.1052,-4.0358,-4.0527,-4.0392,-4.0104,-4.0273,-4.024,-4.007,-4.007,-4.007,-4.007,-4.007,-4.007,-4.007,-4.007,-4.007,-4.007,-4.007,-4.007,-4.007,-4.007,-4.007,-4.007,-4.007,-4.007,-4.007,-4.007,-4.007,-4.007,-4.007,-4.007,-4.007,-4.007,-4.007,-4.007,-4.007,-4.007,-4.007,-4.007,-4.007,-4.0254,-4.0707,-4.0861,0.0,0.0,-4.1446,-4.142,-4.0385,-4.1076,-4.1358,0.0,0.0,0.0,0.0,0.0,-4.1204,-4.1204,-4.1542,-4.1914,-4.2286,-4.1745,-4.1308,-4.0961,-4.0789,-4.0967,-4.142,-4.142,-4.115,-4.075,-4.1196,-4.115,-4.075,-4.1358,-4.1853,-4.2302,-4.244,-4.2808,-4.3286,-4.3286,-4.341,-4.3497,-4.7317,-4.728,-4.7342,-4.8061,-4.7828,-4.7341,-4.6745,-4.6617,-4.6269,-4.5461,-4.5461,-4.5496,-4.5352,-4.4617,-4.4438,-4.5111,-4.4644,-4.4519,-4.4973,-4.3389,-4.2494,-4.2791,-4.2433,-4.219,-4.2089,-4.2417,-4.2417,-4.2089,-4.14,-4.127,-4.1663,-4.141,-4.1068,-4.0696,-4.0696,-4.046,-4.007,-4.007,-4.007,-4.007,-4.007,-4.007,-4.007,-4.007,-4.007,-4.007,-4.007,-4.007,-4.007,-4.007,-4.007,-4.007,-4.007,-4.007,-4.0003,-3.9681,-3.9817,-4.007,-4.007,-4.007,-4.007,-4.007,-4.007,-4.007,-4.007,-4.007,-4.007,-4.007,-4.007,-4.007,-4.007,-4.007,-4.0154,-4.0417,-4.0237,-4.0303,-4.0861,-4.092,0.0,-4.0903,-4.1446,-4.1464,-4.0528,-4.1268,-4.1534,-4.0949,0.0,0.0,-4.1313,-4.1412,-4.1383,-4.1204,-4.1801,-4.233,-4.2723,-4.2236,-4.1777,-4.1313,-4.1313,-4.149,-4.181,-4.181,-4.1621,-4.1313,-4.1664,-4.1621,-4.1358,-4.1979,-4.2382,-4.2732,-4.2976,-4.325,-4.3497,-4.3497,-4.3497,-4.3497,-4.4782,-4.4389,-4.4252,-4.4962,-4.4989,-4.4859,-4.4729,-4.5186,-4.5296,-4.4617,-4.4651,-4.4642,-4.4437,-4.3391,-4.2967,-4.3589,-4.3131,-4.3227,-4.4175,-4.2432,-4.1579,-4.2085,-4.2059,-4.1985,-4.181,-4.243,-4.2448,-4.181,-4.1313,-4.0995,-4.0903,-4.0449,-4.0171,-4.007,-4.007,-4.007,-4.007,-4.007,-4.007,-4.007,-4.007,-4.007,-4.007,-4.007,-4.007,-4.007,-4.007,-4.007,-4.007,-4.007,-4.007,-4.007,-4.007,-4.0003,-3.9783,-3.9174,-3.9343,-3.9766,-3.9884,-3.9918,-3.9935,-4.0054,-4.0003,-3.9918,-3.9918,-3.9918,-3.9918,-3.9918,-3.9918,-3.9952,-4.0054,-4.007,-4.0237,-4.0703,-4.0417,-4.0286,-4.081,0.0,-4.0903,-4.0903,-4.1446,-4.1578,-4.0949,-4.1534,-4.1664,-4.1087,-4.1578,0.0,0.0,-4.181,-4.1628,-4.1273,-4.2371,-4.2992,-4.2992,-4.2808,-4.2448,-4.1937,-4.1937,-4.1979,-4.2062,-4.2062,-4.2021,-4.1937,-4.2021,-4.2021,-4.1979,-4.2559,-4.2826,-4.2864,-4.3321,-4.3497,-4.3497,-4.3497,-4.3497,-4.3497,-4.3315,-4.3251,-4.3611,-4.4872,-4.4538,-4.4207,-4.4656,-4.4232,-4.3828,-4.3699,-4.3341,-4.3057,-4.3025,-4.1927,-4.154,-4.2329,-4.1263,-4.1423,-4.3311,-4.2521,-4.1988,-4.2085,-4.1918,-4.1849,-4.181,-4.1917,-4.1917,-4.181,-4.1725,-4.1402,-4.0903,-4.081,-4.0528,-4.007,-4.007,-4.007,-4.007,-4.007,-4.007,-4.007,-4.007,-4.007,-4.007,-4.007,-4.007,-4.007,-4.007,-4.007,-4.007,-4.007,-4.007,-4.007,-4.007,-3.9648,-3.914,-3.9022,-3.8633,-3.8379,-3.8988,-3.9157,-3.9309,-3.9918,-3.9614,-3.9157,-3.9157,-3.9157,-3.9157,-3.9157,-3.9157,-3.9343,-3.9969,-4.007,-4.0121,-4.0204,-4.0171,-4.0286,-4.081,0.0,-4.0903,-4.0903,-4.1446,-4.1578,-4.0949,-4.1895,-4.2302,-4.1725,-4.2203,-4.2342,-4.1853,-4.181,-4.1778,-4.1728,-4.1895,-4.2035,-4.2035,-4.1998,-4.2187,-4.2577,-4.2577,-4.2808,-4.3232,-4.3232,-4.2995,-4.2577,-4.3032,-4.2995,-4.2598,-4.3124,-4.3375,-4.3375,-4.3463,-4.3497,-4.3497,-4.3497,-4.3497,-4.3497,-4.184,-4.1627,-4.1841,-4.3119,-4.303,-4.308,-4.3924,-4.3736,-4.3497,-4.3497,-4.2752,-4.2342,-4.2655,-4.1375,-4.0714,-4.1393,-4.0622,-4.0626,-4.1942,-4.1665,-4.1615,-4.1918,-4.215,-4.2422,-4.2734,-4.2734,-4.2734,-4.2734,-4.2103,-4.1664,-4.1358,-4.075,-4.0336,-4.007,-4.007,-4.007,-4.007,-4.007,-4.007,-4.007,-4.007,-4.007,-4.007,-4.007,-4.007,-4.007,-4.007,-4.007,-4.007,-4.007,-3.9817,-3.9495,-3.9495,-3.8988,-3.8328,-3.7922,-3.8125,-3.8481,-3.843,-3.87,-3.8988,-3.892,-3.865,-3.8413,-3.8413,-3.8413,-3.8514,-3.892,-3.8988,-3.9225,-3.9935,-4.007,-4.0204,-4.0497,-4.0286,0.0,0.0,-4.1087,-4.1041,-4.1358,-4.1621,-4.1664,-4.1402,-4.2162,-4.2559,-4.2302,-4.2808,-4.2995,-4.2734,-4.2734,-4.2734,-4.2734,-4.2462,-4.2404,-4.2716,-4.2734,-4.2865,-4.3142,-4.3142,-4.325,-4.3497,-4.3497,-4.3356,-4.3124,-4.341,-4.3375,-4.3142,-4.341,-4.3497,-4.3497,-4.3497,-4.3497,-4.3497,-4.3497,-4.3497,-4.3497,-4.0733,-4.0497,-4.0594,-4.1621,-4.1895,-4.2364,-4.3356,-4.3497,-4.3463,-4.3321,-4.2444,-4.1937,-4.2262,-4.1001,-4.0254,-4.0703,-4.0336,-4.0336,-4.0856,-4.1041,-4.1402,-4.1979,-4.2559,-4.3087,-4.3479,-4.3497,-4.3497,-4.3497,-4.2483,-4.1937,-4.1768,-4.0767,-4.0204,-4.007,-4.007,-4.007,-4.007,-4.007,-4.007,-4.007,-4.007,-4.007,-4.007,-4.007,-4.007,-4.007,-4.007,-4.007,-4.007,-4.007,-3.9597,-3.8988,-3.8988,-3.8379,-3.7533,-3.6958,-3.7584,-3.8362,-3.7804,-3.8058,-3.8379,-3.8007,-3.7848,-3.7793,-3.7919,-3.7984,-3.8265,-3.9044,-3.9197,-3.9418,-4.015,-4.0286,-4.0368,-4.0655,0.0,0.0,0.0,-4.1313,-4.1268,-4.175,-4.1937,-4.2021,-4.2021,-4.2559,-4.2902,-4.2902,-4.325,-4.3497,-4.3497,-4.3497,-4.3497,-4.3497,-4.3105,-4.3087,-4.3497,-4.3497,-4.3497,-4.3497,-4.3497,-4.3497,-4.3497,-4.3497,-4.3497,-4.3497,-4.3497,-4.3497,-4.3497,-4.3497,-4.3497,-4.3497,-4.3497,-4.3497,-4.3497,-4.3497,-4.3497,-4.3497,-4.0254,-4.0546,-4.1041,-4.1664,-4.2262,-4.2808,-4.341,-4.3497,-4.3321,-4.2826,-4.2203,-4.1621,-4.1087,-4.0449,-4.0121,-4.0171,-4.0121,-4.0336,-4.0856,-4.1446,-4.1979,-4.2616,-4.3124,-4.3444,-4.3497,-4.3497,-4.3497,-4.3497,-4.2939,-4.2342,-4.181,-4.1133,-4.0577,-4.007,-4.007,-4.007,-4.007,-4.007,-4.007,-4.007,-4.007,-4.007,-4.007,-4.007,-4.007,-4.007,-4.007,-4.007,-4.007,-4.007,-3.9597,-3.8988,-3.8988,-3.8007,-3.6857,-3.6806,-3.6857,-3.6924,-3.6874,-3.6907,-3.7094,-3.7736,-3.7729,-3.7602,-3.7861,-3.8242,-3.8787,-3.9593,-3.9749,-3.9991,-4.0735,-4.0856,-4.0703,-4.0254,0.0,0.0,-4.0949,-4.1402,-4.175,-4.1793,-4.2302,-4.2616,-4.2616,-4.3124,-4.3444,-4.3444,-4.3479,-4.3497,-4.3497,-4.3497,-4.3497,-4.3497,-4.3444,-4.3444,-4.3497,-4.3497,-4.3497,-4.3497,-4.3497,-4.3497,-4.3497,-4.3497,-4.3497,-4.3497,-4.3497,-4.3497,-4.3497,-4.3497,-4.3497,-4.3497,-4.3497,-4.3497,-4.3497,-4.3497,-4.3497,-4.3497,-4.0655,-4.078,-4.1087,-4.1707,-4.2302,-4.2902,-4.341,-4.3497,-4.3304,-4.2788,-4.2162,-4.1578,-4.0949,-4.0417,-4.007,-4.007,-4.007,-4.0514,-4.1402,-4.1664,-4.2226,-4.3178,-4.341,-4.3259,-4.2763,-4.2429,-4.2032,-4.1541,-4.1083,-4.0787,-4.0542,-4.0449,-4.0286,-4.007,-4.007,-4.007,-4.007,-4.007,-4.007,-4.007,-4.007,-3.9817,-3.9411,-3.9411,-3.9123,-3.8734,-3.8734,-3.8734,-3.8734,-3.8734,-3.8244,-3.7618,-3.7618,-3.6907,-3.6062,-3.6062,-3.6062,-3.6062,-3.6062,-3.6417,-3.6738,-3.6535,-3.6384,-3.6348,-3.6463,-3.7007,-3.7718,-3.847,-3.8849,-3.9264,-4.0026,-4.0035,-3.9896,-3.9695,0.0,-4.0813,-4.1156,-4.1882,-4.2462,-4.281,-4.305,-4.3214,-4.3214,-4.3375,-4.3497,-4.3497,-4.3497,-4.3497,-4.3497,-4.3497,-4.3497,-4.3497,-4.3497,-4.3497,-4.3497,-4.3497,-4.3497,-4.3497,-4.3497,-4.3497,-4.3497,-4.3497,-4.3497,-4.3497,-4.3497,-4.3497,-4.3497,-4.3497,-4.3497,-4.3497,-4.3497,-4.3497,-4.3497,-4.3497,-4.3497,-4.3497,-4.0903,-4.0903,-4.1041,-4.1446,-4.2038,-4.2598,-4.316,-4.325,-4.3142,-4.275,-4.2162,-4.1578,-4.0949,-4.0417,-4.007,-4.007,-4.007,-4.0514,-4.1446,-4.1707,-4.2226,-4.3214,-4.325,-4.2795,-4.1814,-4.1448,-4.0845,-4.0073,-3.9673,-3.9475,-3.9448,-3.9685,-3.9732,-3.9749,-3.9969,-4.007,-4.007,-4.007,-3.9952,-3.9732,-3.9732,-3.9292,-3.865,-3.865,-3.8345,-3.7905,-3.7905,-3.7905,-3.7905,-3.7905,-3.7398,-3.6772,-3.6772,-3.6367,-3.5898,-3.6054,-3.6079,-3.6079,-3.6079,-3.6361,-3.6491,-3.5785,-3.5739,-3.5922,-3.6144,-3.6737,-3.7541,-3.8415,-3.8868,-3.9245,-3.9771,-3.9746,-3.9611,-3.9451,-4.0015,-4.0681,-4.1301,-4.2066,-4.2814,-4.3426,-4.3497,-4.3497,-4.3497,-4.3497,-4.3497,-4.3497,-4.3497,-4.3497,-4.3497,-4.3497,-4.3497,-4.3497,-4.3497,-4.3497,-4.3497,-4.3497,-4.3497,-4.3497,-4.3497,-4.3497,-4.3497,-4.3497,-4.3497,-4.3497,-4.3497,-4.3497,-4.3497,-4.3497,-4.3497,-4.3497,-4.3497,-4.3497,-4.3497,-4.3497,-4.3497,-4.3497,-4.0903,-4.0903,-4.0903,-4.0903,-4.1402,-4.1979,-4.2616,-4.2693,-4.2711,-4.2711,-4.2162,-4.1578,-4.0949,-4.0417,-4.007,-4.007,-4.007,-4.0336,-4.0856,-4.1446,-4.2062,-4.2655,-4.2693,-4.2045,-4.0724,-4.0689,-4.0316,-3.9554,-3.8978,-3.8677,-3.8695,-3.8918,-3.8988,-3.9005,-3.9732,-4.0054,-4.0054,-4.0054,-3.9648,-3.8988,-3.8988,-3.8548,-3.7889,-3.7889,-3.7889,-3.7889,-3.7889,-3.7889,-3.7889,-3.7889,-3.7398,-3.6772,-3.6818,-3.66,-3.6498,-3.702,-3.719,-3.719,-3.7173,-3.6803,-3.6266,-3.5739,-3.6011,-3.6582,-3.7309,-3.7901,-3.8631,-3.993,-4.0166,-4.0203,-4.0203,-4.0203,-4.0,-3.9456,-3.9866,-4.0473,-4.1286,-4.1903,-4.2598,-4.3387,-4.3479,-4.3479,-4.3497,-4.3497,-4.3497,-4.3497,-4.3497,-4.3497,-4.3497,-4.3497,-4.3497,-4.3497,-4.3497,-4.3497,-4.3497,-4.3497,-4.3497,-4.3497,-4.3497,-4.3497,-4.3497,-4.3497,-4.3497,-4.3497,-4.3497,-4.3497,-4.3497,-4.3497,-4.3497,-4.3497,-4.3497,-4.3497,-4.3497,-4.3497,-4.3497,-4.3497,-4.0768,-4.1121,-4.1402,-4.0995,-4.1402,-4.1853,-4.2021,-4.208,-4.1895,-4.149,-4.1268,-4.0967,-4.0417,-4.0204,-3.9868,-3.936,-3.9783,-4.0336,-4.0856,-4.0981,-4.0895,-4.0699,-4.1055,-4.0864,-3.9886,-3.8971,-3.8115,-3.7365,-3.7359,-3.7382,-3.7399,-3.795,-3.8227,-3.8244,-3.8464,-3.8565,-3.8565,-3.8565,-3.843,-3.8227,-3.8227,-3.7787,-3.711,-3.711,-3.6772,-3.6299,-3.6299,-3.6299,-3.6299,-3.6299,-3.6146,-3.6005,-3.6414,-3.6439,-3.6498,-3.702,-3.719,-3.7114,-3.6724,-3.6539,-3.6333,-3.6224,-3.6028,-3.5922,-3.6144,-3.6991,-3.7847,-3.8205,-3.8874,-3.9373,-3.9373,-3.9254,-3.9112,-3.8943,-3.9534,-4.0072,-4.0309,-4.0976,-4.1772,-4.2561,-4.2653,-4.2873,-4.3442,-4.3497,-4.3497,-4.3497,-4.3497,-4.3497,-4.3497,-4.3497,-4.3497,-4.3497,-4.3497,-4.3497,-4.3497,-4.3497,-4.3497,-4.3497,-4.3497,-4.3497,-4.3497,-4.3497,-4.3497,-4.3497,-4.3497,-4.3497,-4.3497,-4.3497,-4.3497,-4.3497,-4.3497,-4.3497,-4.3497,-4.3497,-4.3497,-4.3497,-4.1435,-4.1618,-4.1621,-4.0995,-4.1223,-4.1446,-4.1446,-4.1446,-4.1402,-4.1268,-4.1041,-4.078,-4.0449,-3.9999,-3.958,-3.9428,-3.9563,-3.9693,-3.9718,-3.9621,-3.9406,-3.9078,-3.9145,-3.892,-3.845,-3.7672,-3.6895,-3.6097,-3.6259,-3.6315,-3.6332,-3.711,-3.7449,-3.7483,-3.777,-3.7905,-3.7905,-3.7905,-3.7736,-3.7449,-3.7449,-3.7009,-3.6315,-3.6315,-3.6028,-3.5622,-3.5622,-3.5622,-3.5622,-3.5622,-3.5622,-3.5739,-3.6481,-3.6724,-3.6843,-3.756,-3.7791,-3.7703,-3.7414,-3.702,-3.6724,-3.6724,-3.6165,-3.5667,-3.5854,-3.6526,-3.7158,-3.7589,-3.8148,-3.8632,-3.8839,-3.8775,-3.8707,-3.8707,-3.9111,-3.9533,-3.9845,-4.0598,-4.1405,-4.2194,-4.258,-4.2965,-4.3442,-4.3497,-4.3497,-4.3497,-4.3497,-4.3497,-4.3497,-4.3185,-4.302,-4.302,-4.2708,-4.269,-4.302,-4.302,-4.3185,-4.3497,-4.3497,-4.3497,-4.3497,-4.3497,-4.3497,-4.3497,-4.3497,-4.3497,-4.3497,-4.3497,-4.3497,-4.3497,-4.3497,-4.3497,-4.3497,-4.3497,-4.3597,-4.3693,-4.2441,-4.219,-4.1664,-4.1087,-4.0995,-4.0949,-4.0903,-4.0903,-4.1087,-4.1578,-4.1178,-4.0827,-4.0827,-3.9819,-3.9326,-3.9935,-3.9326,-3.8633,-3.8041,-3.7872,-3.7804,-3.7804,-3.7077,-3.6671,-3.6671,-3.6671,-3.6332,-3.5622,-3.5622,-3.5622,-3.5639,-3.6349,-3.6671,-3.6705,-3.7398,-3.7702,-3.7702,-3.7702,-3.7313,-3.6671,-3.6671,-3.6248,-3.5622,-3.5622,-3.5622,-3.5622,-3.5622,-3.5622,-3.5622,-3.5622,-3.5622,-3.5766,-3.6803,-3.7135,-3.7377,-3.835,-3.8658,-3.8707,-3.8627,-3.7982,-3.7248,-3.7228,-3.6481,-3.5854,-3.6224,-3.6416,-3.6724,-3.7649,-3.7911,-3.8099,-3.8627,-3.8707,-3.8707,-3.8707,-3.8707,-3.8982,-3.979,-4.0524,-4.1332,-4.2194,-4.2947,-4.3406,-4.3479,-4.3497,-4.3497,-4.3497,-4.3497,-4.3461,-4.3387,-4.269,-4.2268,-4.2194,-4.1497,-4.1497,-4.2286,-4.2304,-4.269,-4.3497,-4.3497,-4.3497,-4.3497,-4.3497,-4.3497,-4.3497,-4.3497,-4.3497,-4.3497,-4.3497,-4.3497,-4.3479,-4.3548,-4.3548,-4.3548,-4.3582,-4.3772,-4.4058,-4.1758,-4.2109,-4.2302,-4.1707,-4.1621,-4.1446,-4.0949,-4.0903,-4.078,-4.0514,-4.0336,-4.0286,-4.0286,-4.0018,-3.9681,-3.9259,-3.8565,-3.8328,-3.8734,-3.7669,-3.7026,-3.7026,-3.6282,-3.5876,-3.5876,-3.5876,-3.5791,-3.5622,-3.5622,-3.5622,-3.5622,-3.5791,-3.5876,-3.5876,-3.6045,-3.6113,-3.6113,-3.6113,-3.6028,-3.5876,-3.5876,-3.5774,-3.5622,-3.5622,-3.5622,-3.5622,-3.5622,-3.5622,-3.5622,-3.5622,-3.5622,-3.5694,-3.6374,-3.6882,-3.734,-3.7911,-3.8382,-3.8627,-3.8183,-3.7911,-3.7649,-3.7285,-3.7038,-3.6666,-3.5941,-3.6399,-3.7097,-3.7323,-3.7982,-3.8546,-3.8676,-3.8707,-3.8707,-3.8707,-3.8707,-3.8982,-3.979,-4.0047,-4.0689,-4.2139,-4.2451,-4.28,-4.3424,-4.3497,-4.3497,-4.3497,-4.3497,-4.3222,-4.2598,-4.2396,-4.2011,-4.1387,-4.1203,-4.1497,-4.2286,-4.2304,-4.269,-4.3497,-4.3497,-4.3497,-4.3497,-4.3497,-4.3497,-4.3497,-4.3497,-4.3497,-4.3497,-4.3497,-4.3497,-4.3513,-4.3804,-4.3912,-4.3924,-4.4252,-4.4419,-4.4474,-4.2395,-4.2778,-4.279,-4.1937,-4.181,-4.149,-4.0672,-4.0546,-4.0417,-4.0121,-4.007,-4.007,-4.007,-3.9766,-3.9276,-3.8531,-3.8447,-3.8294,-3.7956,-3.7212,-3.662,-3.6231,-3.5825,-3.5622,-3.5622,-3.5622,-3.5622,-3.5622,-3.5622,-3.5622,-3.5622,-3.5622,-3.5622,-3.5622,-3.5622,-3.5622,-3.5622,-3.5622,-3.5622,-3.5622,-3.5622,-3.5622,-3.5622,-3.5622,-3.5622,-3.5622,-3.5622,-3.5622,-3.5622,-3.5622,-3.5622,-3.5694,-3.6224,-3.6603,-3.6943,-3.7685,-3.8099,-3.83,-3.83,-3.8099,-3.7825,-3.7578,-3.736,-3.7058,-3.6481,-3.6786,-3.7248,-3.7506,-3.7964,-3.8382,-3.8658,-3.8707,-3.8707,-3.8707,-3.8707,-3.8982,-3.979,-4.023,-4.0928,-4.2158,-4.2635,-4.3039,-4.3442,-4.28,-4.2506,-4.2892,-4.2561,-4.2176,-4.1754,-4.1368,-4.0965,-4.0543,-4.0175,-4.0341,-4.1148,-4.1552,-4.2139,-4.2928,-4.3314,-4.3497,-4.3497,-4.3497,-4.3497,-4.3497,-4.3497,-4.3497,-4.3513,-4.366,-4.3646,-4.3548,-4.4076,-4.4175,-4.4046,-4.4447,-4.4682,-4.4872,-4.3068,-4.3196,-4.2903,-4.1961,-4.181,-4.1464,-4.0385,-4.0254,-4.0204,-4.0121,-4.007,-4.007,-4.007,-3.9529,-3.8937,-3.8328,-3.8717,-3.8413,-3.706,-3.6857,-3.6434,-3.5656,-3.5622,-3.5554,-3.5419,-3.5419,-3.5487,-3.5622,-3.5622,-3.5622,-3.5622,-3.5622,-3.5622,-3.5622,-3.5622,-3.5622,-3.5622,-3.5622,-3.5622,-3.5622,-3.5622,-3.5622,-3.5622,-3.5622,-3.5622,-3.5622,-3.5694,-3.5827,-3.5854,-3.5854,-3.5854,-3.5924,-3.6416,-3.6603,-3.6825,-3.7649,-3.798,-3.8132,-3.8578,-3.8382,-3.8032,-3.8032,-3.7738,-3.7451,-3.7451,-3.7414,-3.7433,-3.7825,-3.798,-3.8219,-3.881,-3.8909,-3.8946,-3.9093,-3.9111,-3.9386,-4.0194,-4.0891,-4.1607,-4.2415,-4.3075,-4.3497,-4.3497,-4.2176,-4.1589,-4.2249,-4.1552,-4.1056,-4.091,-4.0267,-3.9827,-3.9698,-3.9056,-3.9093,-3.9882,-4.0708,-4.1515,-4.2304,-4.3112,-4.3497,-4.3497,-4.3497,-4.3497,-4.3497,-4.3497,-4.3548,-4.3597,-4.3881,-4.3881,-4.3758,-4.4419,-4.4482,-4.4233,-4.4631,-4.4943,-4.5222,-4.1985,-4.2021,-4.1979,-4.1853,-4.181,-4.1578,-4.092,-4.078,-4.0625,-4.0171,-4.007,-4.007,-4.007,-3.9986,-3.9884,-3.9783,-3.9292,-3.8633,-3.7821,-3.7144,-3.6434,-3.5656,-3.5622,-3.5318,-3.4658,-3.4641,-3.4962,-3.5622,-3.5622,-3.5622,-3.5622,-3.5622,-3.5622,-3.5622,-3.5622,-3.5622,-3.5622,-3.5622,-3.5622,-3.5622,-3.5622,-3.5622,-3.5622,-3.5622,-3.5622,-3.565,-3.6139,-3.6603,-3.6981,-3.6981,-3.6981,-3.6981,-3.7076,-3.736,-3.772,-3.7859,-3.8216,-3.8627,-3.8676,-3.8658,-3.8578,-3.8578,-3.8546,-3.8515,-3.8515,-3.815,-3.7825,-3.7911,-3.8267,-3.8829,-3.9606,-3.9735,-3.9974,-4.0671,-4.0799,-4.1075,-4.1864,-4.2066,-4.2433,-4.3222,-4.3424,-4.3497,-4.3497,-4.2671,-4.2176,-4.2286,-4.1552,-4.0799,-4.0102,-3.9955,-3.957,-3.8891,-3.8762,-3.9093,-3.9882,-4.0708,-4.1515,-4.2304,-4.3112,-4.3497,-4.3497,-4.3497,-4.3497,-4.3497,-4.3497,-4.366,-4.3924,-4.3986,-4.4194,-4.4501,-4.4872,-4.4988,-4.4988,-4.5342,-4.5495,-4.555,-4.181,-4.1456,-4.1071,-4.0727,-4.0316,-4.0018,-3.986,-3.9833,-3.9907,-4.007,-4.007,-4.007,-4.007,-4.007,-4.007,-4.007,-3.9783,-3.9123,-3.799,-3.7601,-3.6874,-3.5673,-3.5622,-3.547,-3.5131,-3.5115,-3.5284,-3.5622,-3.5199,-3.5199,-3.5622,-3.5622,-3.5622,-3.5622,-3.5622,-3.5622,-3.5622,-3.5622,-3.5622,-3.5622,-3.5622,-3.5622,-3.5622,-3.5622,-3.5622,-3.565,-3.6224,-3.6427,-3.6534,-3.7031,-3.719,-3.719,-3.719,-3.7323,-3.7542,-3.7825,-3.8065,-3.83,-3.8627,-3.8707,-3.8707,-3.8707,-3.8707,-3.8707,-3.8707,-3.8844,-3.8879,-3.8441,-3.8546,-3.8946,-3.9753,-3.99,-4.0157,-4.0983,-4.1111,-4.124,-4.1589,-4.1644,-4.1937,-4.2727,-4.2818,-4.2818,-4.2818,-4.1699,-4.1148,-4.1607,-4.0469,-3.9808,-3.9882,-3.946,-3.9074,-3.8707,-3.8707,-3.8872,-3.9239,-4.0487,-4.1295,-4.1644,-4.2892,-4.3497,-4.3497,-4.3497,-4.3497,-4.3497,-4.3497,-4.3693,-4.4016,-4.4233,-4.4447,-4.4657,-4.518,-4.5074,-4.4672,-4.482,-4.4874,-4.4932]}]]